GFSGL_500_spd_000.txt.gz
Wind_Speed
35 35 37 36 36 37 37 36 38 36 37 39 42 39 37 39 38 38 42 41 40 35 37 43 46 48 48 48 49 49 52 45 51 51 52 51 48 44 45 39 39 45 44
36 37 39 39 40 39 39 38 39 39 41 42 40 40 39 40 41 42 43 40 38 37 37 39 45 48 48 49 50 50 49 47 49 51 52 52 50 47 47 40 38 41 45
39 40 40 42 41 41 40 39 40 42 44 43 45 45 47 45 40 39 38 37 35 37 35 35 40 46 48 49 50 50 50 49 48 51 50 52 50 49 47 44 39 39 41
41 42 42 41 41 41 40 41 42 45 45 47 45 43 40 39 37 38 37 37 35 36 37 36 35 39 46 49 50 50 51 51 49 49 52 54 51 50 48 46 41 40 40
41 44 43 42 41 41 42 43 45 45 46 45 39 42 44 47 43 39 34 35 33 35 35 35 31 35 39 44 48 49 50 51 51 49 49 53 53 49 48 46 45 40 40
43 45 44 43 43 43 44 45 46 46 45 38 44 45 46 43 40 33 35 33 34 34 32 28 26 28 35 40 45 46 49 50 50 52 50 51 51 51 49 47 45 45 41
45 46 46 45 45 44 44 47 45 45 42 44 45 45 44 38 34 31 31 31 34 36 33 28 23 27 29 38 41 44 47 48 48 51 51 49 50 51 53 50 49 46 41
46 46 46 45 44 45 47 48 47 46 46 49 48 42 35 34 34 30 28 31 34 35 34 30 25 28 35 37 38 42 45 46 45 46 46 45 49 50 54 53 52 52 49
47 46 46 46 45 46 48 49 50 49 50 46 44 37 33 31 28 25 27 29 31 33 36 31 24 26 32 33 35 38 41 40 41 43 44 46 48 47 49 51 50 51 52
46 47 48 47 46 47 48 50 48 47 42 39 37 32 26 24 23 27 25 27 28 32 35 32 26 24 25 35 35 33 36 36 38 37 39 43 46 46 45 48 46 49 46
48 50 50 46 46 48 48 47 46 43 39 36 32 31 31 24 26 28 28 25 25 28 32 27 29 19 25 21 28 32 32 33 35 37 38 41 44 45 44 46 46 43 44
50 51 46 42 45 48 45 44 44 42 35 35 31 31 23 22 26 26 26 23 23 24 28 31 25 18 5 12 21 28 27 26 31 36 37 39 42 43 41 44 43 45 48
48 46 43 42 44 43 41 44 44 43 38 33 27 27 24 24 23 22 22 24 25 22 24 31 22 10 5 8 15 28 19 22 27 36 33 39 39 40 43 44 46 46 48
46 44 43 43 42 42 43 42 40 35 31 22 23 24 20 17 18 20 23 23 23 20 22 28 27 16 3 5 7 15 31 32 27 26 33 34 38 36 38 42 44 44 44
43 42 42 41 41 40 40 38 34 30 24 22 25 21 17 17 21 21 26 22 20 19 20 20 24 24 7 4 2 8 19 35 34 31 22 30 32 38 39 41 42 41 42
40 40 38 34 38 36 40 37 33 25 20 21 19 18 19 21 22 23 25 22 19 19 20 17 21 20 22 6 6 3 4 18 26 29 33 32 33 36 39 42 42 39 38
38 36 34 35 37 36 34 36 31 22 19 20 19 18 20 21 21 23 22 21 18 17 19 18 18 16 16 19 14 4 5 5 13 32 39 33 31 41 41 41 39 42 42
35 34 34 36 36 37 36 33 25 23 25 18 18 19 24 23 23 23 21 19 17 16 20 20 16 16 17 12 14 17 10 5 8 11 23 38 37 42 43 44 41 43 45
33 34 34 37 35 34 33 25 25 22 21 11 15 19 19 19 17 18 19 20 19 18 17 16 15 14 14 11 11 13 12 13 12 5 10 16 16 23 29 34 42 47 50
31 31 34 33 33 33 31 27 25 26 29 19 15 15 17 17 18 20 24 22 22 21 20 19 19 20 19 17 15 14 13 13 10 8 13 14 11 12 20 29 34 37 37
28 30 31 31 31 31 31 28 21 17 18 21 20 21 23 21 24 29 27 26 24 23 24 25 25 25 24 24 23 20 18 16 14 14 14 13 12 12 16 17 15 22 27
29 30 29 27 26 25 28 28 29 33 37 24 27 24 23 22 23 25 25 25 26 26 28 29 28 27 27 27 26 25 24 23 22 21 19 18 18 18 17 18 17 19 19
30 30 27 26 25 26 26 27 26 26 24 23 25 24 23 23 25 26 27 28 29 29 30 30 31 31 31 31 31 31 31 31 30 29 28 28 27 25 25 26 25 25 25
31 28 25 26 29 29 30 31 30 29 29 29 29 29 29 29 31 31 31 31 32 32 32 33 34 35 35 36 36 36 36 36 35 34 33 32 32 33 34 33 32 31 32
31 29 29 29 27 27 27 28 29 30 30 30 29 29 29 30 31 31 32 33 35 36 37 37 38 37 37 36 35 34 34 33 34 34 34 34 34 34 35 36 37 38 38
26 25 25 25 25 26 27 27 28 29 30 30 30 30 31 32 33 33 33 34 34 34 35 35 33 31 30 29 28 28 27 28 28 29 30 30 31 32 33 34 36 37 39

GFSGL_500_spd_003.txt.gz
Wind_Speed
35 36 36 36 37 38 39 39 40 40 39 39 41 42 44 45 46 46 47 47 45 45 47 45 45 45 41 43 49 49 50 49 50 48 55 52 55 56 51 44 47 45 39
38 39 39 38 38 40 41 42 42 41 40 41 42 43 44 45 47 46 45 44 43 41 41 44 42 44 43 46 46 50 50 50 50 49 53 49 53 57 51 49 49 45 41
39 40 41 40 40 40 41 42 43 42 42 41 43 43 44 47 44 44 50 49 47 45 41 39 40 42 44 42 44 48 51 50 50 51 51 48 49 55 55 51 48 44 42
42 43 44 42 41 42 42 43 44 44 44 44 44 45 47 47 45 49 49 47 43 42 39 39 37 41 41 41 44 45 49 51 50 50 50 48 48 52 53 49 46 45 43
44 44 45 42 44 44 45 47 47 44 45 46 47 49 48 48 50 49 47 39 36 38 37 37 36 39 40 39 40 43 44 50 50 48 49 49 48 49 47 47 47 46 44
45 46 44 44 45 46 48 48 46 46 46 46 48 51 52 51 45 44 42 35 36 35 34 35 34 37 33 38 38 40 43 46 49 49 47 49 47 47 50 49 47 48 44
45 45 44 45 47 48 48 48 48 47 46 46 49 50 48 44 40 41 37 32 32 33 33 35 35 37 34 20 31 41 39 42 46 47 46 46 49 47 46 49 50 48 44
44 45 47 48 47 48 50 51 51 48 49 50 47 46 44 40 35 34 30 25 30 32 33 35 36 37 39 33 40 39 35 36 40 45 45 44 42 47 46 47 48 50 48
46 46 48 50 49 49 52 51 50 49 50 49 46 46 41 37 34 30 28 23 30 34 36 38 38 36 37 34 30 36 31 34 36 38 42 43 43 49 47 47 47 51 49
46 48 49 50 51 50 50 47 56 42 50 46 46 46 41 38 33 35 30 28 32 34 33 35 37 37 33 30 25 29 27 33 36 36 36 39 41 41 46 47 47 47 46
47 48 50 50 51 48 45 44 37 57 48 46 45 43 42 37 16 34 27 30 30 30 30 34 35 37 32 18 13 27 30 30 34 34 33 35 38 38 41 44 45 44 44
46 48 49 51 48 48 44 42 45 47 47 45 42 41 39 29 32 25 32 26 27 30 30 31 32 40 19 6 12 10 25 28 30 31 33 34 35 35 38 41 43 45 41
47 48 48 49 46 46 44 45 47 43 41 40 40 35 27 29 33 25 24 23 22 26 27 26 29 35 18 2 5 9 10 22 26 29 32 35 35 36 38 40 42 44 41
48 48 47 47 45 45 43 46 42 38 38 39 36 32 28 20 30 22 20 21 21 23 25 23 27 31 29 5 5 9 5 18 28 35 35 38 39 37 36 36 39 41 41
49 49 47 46 45 44 42 39 38 38 36 36 34 26 22 26 22 20 23 22 23 24 23 22 25 24 29 27 8 5 5 13 20 30 24 31 29 31 34 38 40 41 43
51 48 46 45 44 44 40 38 36 34 36 34 29 25 24 24 19 19 19 19 23 24 23 20 23 22 21 26 25 6 3 4 3 19 22 29 33 35 36 36 37 38 39
49 45 44 43 42 40 40 39 38 33 35 31 26 31 27 23 19 20 21 21 22 21 19 18 22 20 18 19 22 22 5 3 6 2 12 21 21 24 41 45 34 34 35
44 42 43 42 39 39 39 38 37 33 32 33 27 29 28 24 23 21 20 20 18 18 18 17 18 16 15 16 16 18 28 20 6 5 1 11 20 26 30 38 40 39 42
41 42 40 38 36 37 37 36 35 33 30 33 31 24 18 21 20 18 18 17 17 18 19 19 18 18 17 18 18 17 18 19 24 19 11 6 18 25 23 34 29 36 35
39 39 37 35 33 33 35 34 34 32 30 31 32 30 25 18 20 21 23 23 24 23 21 21 21 22 21 21 22 20 18 17 17 15 17 18 11 6 20 31 24 40 44
37 34 33 32 31 32 32 31 29 27 26 24 27 21 23 21 22 25 25 23 22 22 23 22 23 23 24 25 24 22 21 20 19 18 15 13 12 14 17 13 22 18 29
33 30 30 32 32 32 32 30 29 28 27 26 26 26 24 19 16 19 20 21 20 22 23 23 23 24 24 25 25 25 24 23 22 23 21 20 18 14 14 14 13 17 17
32 33 32 32 32 31 29 28 29 30 28 28 28 27 26 24 24 24 24 23 23 25 25 25 25 26 26 28 29 29 29 30 30 29 28 27 27 24 22 20 19 20 20
32 32 32 33 32 31 31 33 32 32 31 29 27 26 26 26 25 26 25 25 25 26 27 26 28 29 30 31 32 32 33 33 34 34 33 32 31 31 30 29 28 27 27
32 32 31 28 26 27 26 27 26 27 26 26 26 25 25 26 26 26 27 27 28 28 30 30 31 31 32 32 31 31 31 32 32 33 31 30 30 31 32 31 31 32 33
32 28 26 25 24 26 28 29 29 29 28 28 29 29 29 29 29 29 29 29 28 27 27 28 29 30 27 26 26 26 27 27 27 28 29 28 28 28 29 29 30 31 31

GFSGL_500_spd_006.txt.gz
Wind_Speed
33 34 34 35 36 38 36 36 37 36 38 40 40 39 41 41 43 43 44 46 48 48 49 52 50 51 48 47 46 48 48 48 48 43 49 49 54 54 50 56 47 49 41
35 36 35 37 39 39 38 37 37 37 38 40 41 42 42 43 42 44 47 49 50 50 53 53 51 46 46 46 44 45 47 49 48 44 47 50 53 53 53 49 53 48 52
36 37 37 38 38 38 37 38 38 39 40 42 43 43 43 43 43 47 48 51 53 54 52 49 44 41 41 41 42 42 44 46 50 45 45 49 51 54 54 55 52 58 60
36 37 37 37 37 37 38 40 40 41 44 44 44 43 43 43 46 47 48 50 50 50 46 42 39 35 35 36 39 42 42 43 47 45 43 47 50 50 51 55 53 53 52
37 40 37 37 37 39 40 40 42 45 47 47 45 44 44 46 47 45 45 45 46 41 39 38 37 35 35 37 38 38 40 38 42 46 43 45 47 49 49 48 50 45 52
39 38 42 39 38 41 42 43 47 49 50 50 47 43 44 44 44 46 44 42 39 37 35 32 34 36 37 39 43 42 42 41 44 44 42 43 45 46 45 46 46 43 46
40 40 41 40 42 44 45 47 50 52 54 51 46 46 45 41 44 43 43 39 34 31 31 31 33 37 41 43 44 40 45 37 40 36 40 41 44 51 37 45 46 41 39
39 41 42 43 45 45 48 51 52 52 52 53 52 39 48 44 43 42 42 36 35 32 27 29 36 39 41 43 45 44 42 40 44 41 36 40 42 41 43 41 45 44 46
39 41 43 45 45 47 51 53 53 52 54 49 44 48 49 43 38 40 41 35 26 28 29 32 37 37 41 44 45 45 36 29 32 32 33 37 39 39 41 40 44 45 41
40 42 44 47 48 51 54 55 53 52 52 48 47 47 45 41 38 40 28 20 28 25 31 32 34 38 41 40 47 22 25 27 27 32 28 32 36 35 38 39 42 43 43
42 44 48 50 52 53 54 53 53 49 47 45 48 44 39 41 36 35 29 35 32 34 30 32 33 36 37 38 33 21 23 25 22 24 27 31 35 35 37 39 43 35 41
42 47 50 52 54 55 54 54 52 49 45 45 45 39 38 38 37 33 30 25 28 24 26 30 30 31 34 41 28 17 20 22 19 20 24 29 34 33 34 33 32 37 39
44 48 50 51 52 53 54 56 52 46 44 44 41 39 36 38 34 33 24 33 26 23 26 28 27 27 32 35 30 15 20 20 9 18 23 28 34 33 32 32 32 36 39
38 41 51 51 53 55 57 60 47 43 44 42 41 40 37 36 32 24 32 26 22 24 25 24 25 24 29 25 37 16 16 18 12 19 21 26 33 35 33 31 32 34 37
39 50 50 53 54 58 52 51 38 46 47 43 40 39 37 38 31 28 26 21 20 21 23 23 23 20 26 25 29 28 19 15 18 8 14 22 30 37 38 37 35 36 37
50 56 56 59 57 57 50 42 53 50 46 41 39 38 37 35 31 31 28 24 20 20 22 20 19 18 20 21 20 28 36 12 12 17 8 21 27 32 39 38 37 34 32
58 62 62 58 58 53 49 45 43 43 41 41 41 37 36 34 32 34 36 24 26 22 20 18 16 16 15 16 18 19 25 29 15 7 6 12 16 31 31 40 40 41 41
62 60 59 58 56 50 46 45 44 41 40 38 36 34 33 33 33 29 25 21 19 16 15 15 16 14 14 15 18 19 20 19 29 30 16 3 5 19 28 30 40 40 37
56 55 54 51 47 45 42 42 40 37 36 35 34 32 32 32 29 26 24 23 20 22 19 17 17 16 16 16 18 20 20 18 16 18 24 28 12 8 13 21 27 34 37
48 49 47 45 39 41 40 38 34 34 33 31 29 25 26 25 26 26 28 24 23 24 23 21 21 19 19 18 18 19 19 19 18 16 13 19 21 23 20 7 5 25 36
47 44 42 40 38 38 35 34 32 31 31 29 27 26 24 26 21 21 28 28 27 26 22 20 18 18 19 21 19 18 18 18 19 18 17 15 13 14 16 23 15 5 10
45 40 37 36 37 34 33 35 33 33 31 29 24 24 24 24 22 23 21 22 24 21 23 23 21 20 19 20 21 19 19 20 20 20 20 18 17 15 14 14 15 19 19
39 35 35 34 34 34 34 32 34 32 31 31 30 29 28 26 25 23 24 23 23 25 26 25 25 24 22 22 23 24 24 23 23 24 24 23 23 21 18 17 17 15 14
34 31 33 34 34 34 35 33 30 28 30 28 27 27 25 21 22 22 21 21 22 23 24 24 24 25 26 25 26 27 26 25 26 26 26 25 26 25 24 23 22 21 19
30 32 33 35 37 31 30 29 27 25 26 27 28 28 27 26 24 25 25 26 27 27 27 27 28 28 29 28 28 27 27 27 25 25 26 26 26 25 25 25 24 25 25
33 35 37 36 33 28 27 26 28 29 29 28 28 28 28 28 28 28 27 27 27 27 27 27 27 27 27 26 24 22 22 23 23 23 24 25 25 24 24 25 26 26 27

GFSGL_500_spd_009.txt.gz
Wind_Speed
29 29 28 29 26 26 28 30 30 30 31 32 33 36 36 38 39 40 42 42 43 44 45 45 45 45 50 50 49 49 49 50 48 43 45 45 49 46 50 51 56 54 55
29 29 30 30 28 28 29 32 32 31 32 34 36 37 40 41 43 44 44 43 44 44 45 43 45 48 47 41 39 40 41 45 48 42 40 44 45 47 49 52 52 52 57
29 28 31 32 31 29 29 33 33 31 33 36 36 39 43 45 44 43 44 43 45 45 47 48 48 47 40 35 34 36 37 38 43 44 42 41 44 46 45 51 50 54 57
30 28 31 33 32 31 31 34 33 32 35 38 40 43 47 48 47 48 41 43 43 45 46 45 45 41 36 33 33 34 34 37 39 41 44 41 43 47 46 49 52 51 51
30 29 32 32 31 32 33 34 34 35 39 42 45 47 50 51 47 39 43 43 43 44 43 40 39 36 34 33 32 34 38 41 40 38 40 43 44 45 47 47 51 49 52
32 30 31 33 32 33 34 35 36 39 43 45 50 52 52 52 46 39 48 45 44 45 41 38 35 34 33 33 35 36 41 43 43 41 38 42 44 44 46 47 50 50 52
33 32 32 35 35 36 36 37 39 43 46 48 52 53 53 50 45 45 44 43 43 42 43 36 31 32 34 38 34 34 41 46 46 49 38 34 39 46 47 48 49 50 49
35 35 36 37 37 37 38 39 43 46 48 51 51 52 52 49 45 46 40 42 41 40 31 31 30 29 35 36 33 37 38 47 50 42 40 37 31 38 45 48 47 48 46
36 36 38 38 39 40 42 42 45 49 52 54 52 51 50 46 46 41 38 38 36 25 28 32 30 34 34 36 37 34 42 46 36 37 40 34 34 31 40 45 44 45 45
36 38 38 39 40 41 42 44 47 51 51 54 50 49 47 47 44 44 41 39 36 32 32 32 33 32 36 35 36 35 38 38 32 34 37 30 25 32 38 43 43 41 41
41 41 39 41 41 41 41 45 50 51 53 57 48 44 46 42 41 41 40 38 35 32 27 34 28 33 34 33 32 35 35 31 31 31 34 21 25 26 31 41 42 43 40
44 39 40 44 41 37 40 45 50 50 51 37 49 36 41 40 41 40 39 41 35 28 34 32 25 33 33 27 30 31 37 27 26 32 28 20 20 26 26 39 40 38 36
43 37 43 48 38 39 45 51 46 46 42 43 40 37 46 42 42 40 38 37 29 32 33 26 24 30 28 23 28 27 37 24 24 31 20 17 21 23 27 36 38 37 38
16 29 39 41 37 34 40 44 46 45 44 47 49 54 55 45 42 39 38 36 30 27 25 25 22 28 25 20 21 22 30 29 20 24 23 2 14 20 25 32 34 32 34
65 50 43 40 42 51 45 46 46 48 50 48 48 51 51 44 41 39 37 35 32 29 27 25 23 24 22 19 16 20 23 39 29 15 19 6 14 24 25 29 32 33 34
58 47 47 53 57 50 46 48 49 49 48 46 46 45 45 41 38 37 35 32 27 31 32 30 25 22 20 17 16 18 20 21 36 28 16 9 5 19 23 33 33 33 34
62 63 60 59 56 56 48 49 47 54 47 45 44 42 39 37 35 35 33 31 30 28 22 19 18 19 18 16 15 17 18 19 20 32 29 14 6 7 28 35 39 41 38
58 58 57 55 55 51 53 52 52 48 45 42 40 37 35 32 32 32 31 28 26 21 20 17 18 18 18 16 17 17 16 15 17 17 24 30 7 7 12 34 40 39 40
54 52 53 56 55 51 50 49 47 44 41 37 34 34 30 29 29 29 29 25 24 23 22 23 23 23 23 19 18 17 18 16 14 13 15 18 31 9 9 10 25 39 36
42 50 52 52 52 49 44 43 40 38 35 30 31 32 31 30 29 27 28 25 21 25 26 24 24 24 26 23 19 18 17 16 14 13 11 12 12 23 26 4 11 13 35
42 49 47 46 43 40 36 37 35 32 31 31 32 34 31 26 24 22 21 21 21 22 28 28 24 21 22 22 21 21 19 16 16 15 14 13 12 11 11 20 21 20 7
33 38 39 35 37 33 33 31 29 30 30 30 31 32 30 28 27 25 25 25 25 23 20 21 21 21 22 23 22 22 23 20 18 18 17 16 15 12 11 8 10 16 15
35 36 41 40 36 31 28 28 29 30 32 32 30 29 27 26 26 23 23 23 24 24 22 23 23 24 24 25 25 24 24 25 24 22 22 19 17 16 14 12 11 11 10
39 40 36 33 31 27 26 30 32 32 30 32 28 25 23 22 25 25 22 21 21 21 23 23 23 24 24 24 24 25 26 26 27 26 24 24 22 19 18 17 15 15 14
36 32 30 30 30 29 28 31 33 30 25 26 26 26 26 25 23 24 24 24 24 25 26 28 29 28 28 27 26 27 27 27 27 27 27 25 24 24 22 21 19 18 19
34 34 31 30 30 29 27 28 27 28 29 27 27 26 24 25 25 25 25 26 26 25 26 26 26 28 25 25 24 24 23 23 24 25 25 24 23 23 23 22 22 21 22

GFSGL_500_spd_012.txt.gz
Wind_Speed
31 25 31 30 27 27 25 29 31 30 27 26 27 30 34 37 37 38 39 42 42 43 43 40 42 44 48 50 48 50 50 45 38 38 45 46 47 49 50 54 54 51 52
29 27 31 31 31 30 28 28 30 29 28 28 29 32 35 38 39 40 41 43 44 42 41 47 48 46 45 49 45 43 42 40 37 35 36 40 41 45 47 49 56 54 51
28 29 30 31 32 33 31 30 31 31 33 32 32 34 36 38 40 42 44 46 47 45 47 50 48 47 46 47 44 37 38 37 39 37 37 38 40 43 45 46 50 56 53
30 30 31 31 33 32 33 31 33 35 36 34 34 36 38 40 43 45 46 46 46 42 44 46 47 49 47 46 41 37 36 35 37 38 37 38 41 47 44 48 48 54 53
32 33 34 34 35 34 34 34 35 37 38 35 36 39 41 43 46 47 48 47 44 44 45 43 44 49 49 46 39 37 35 37 41 42 43 46 45 47 46 49 48 51 52
33 34 37 36 37 36 37 39 38 38 38 37 39 41 44 45 47 50 50 44 44 46 43 41 45 45 45 32 33 35 36 39 40 43 48 50 46 43 45 48 48 47 51
32 34 33 36 41 38 39 44 41 39 39 41 42 46 46 49 49 48 48 45 42 42 42 40 43 39 32 34 32 36 37 39 42 46 50 47 42 33 39 43 47 47 48
39 38 37 41 44 41 40 41 41 40 42 42 44 45 50 54 51 49 43 42 40 40 41 42 41 36 40 36 37 35 36 37 39 46 52 44 34 26 26 41 42 45 44
43 39 41 43 44 42 38 41 43 43 43 43 45 52 52 49 34 40 37 39 40 42 41 42 37 34 32 33 33 35 33 37 38 46 46 39 40 40 27 36 36 39 42
45 45 45 44 44 43 42 46 45 44 43 40 46 47 45 45 19 26 36 41 42 41 41 43 36 31 39 32 32 33 30 36 35 40 37 37 40 42 30 32 27 38 44
48 45 44 43 47 55 40 46 46 45 41 42 47 41 47 55 53 45 50 42 42 39 40 38 31 35 34 30 31 32 29 33 35 34 34 35 42 28 20 23 27 30 39
42 46 44 47 49 44 48 41 47 47 40 49 42 44 40 43 47 48 47 47 45 37 36 30 32 33 31 28 30 30 27 23 32 28 30 34 38 14 18 22 21 31 35
37 43 46 38 32 42 34 33 39 38 46 41 42 45 46 48 48 47 45 44 40 36 33 29 28 30 28 26 29 26 23 25 29 31 24 30 29 14 20 19 22 31 38
48 43 45 34 43 27 36 31 36 52 48 47 51 46 46 43 44 42 42 39 38 34 33 31 27 29 29 28 28 25 21 24 24 35 28 23 25 9 16 15 17 26 34
43 48 54 52 41 51 41 38 43 45 47 49 45 43 40 40 40 39 39 36 35 34 33 30 27 28 31 31 26 23 21 22 25 24 40 26 21 16 14 18 17 20 30
53 48 49 60 57 52 50 43 42 44 45 44 44 42 39 39 37 34 32 31 34 35 32 29 29 27 21 22 22 21 21 21 22 23 24 41 21 14 10 15 18 21 28
58 46 51 56 51 50 48 47 47 44 46 48 43 39 38 38 34 30 29 30 31 31 28 27 21 19 19 18 20 21 21 20 20 20 19 26 24 30 10 13 23 24 28
50 46 52 57 52 48 45 46 42 43 44 41 38 38 36 31 30 27 27 31 30 30 28 26 21 20 22 22 21 22 22 20 18 18 18 17 26 31 9 2 28 23 29
42 38 43 51 51 37 41 40 45 45 40 36 36 35 31 28 29 29 29 31 29 29 26 25 22 24 23 22 23 23 25 24 20 16 16 16 14 19 21 12 8 22 26
43 41 39 33 32 38 43 45 45 38 33 35 36 31 29 28 30 31 30 27 25 24 21 22 23 26 27 26 24 24 23 23 21 17 15 15 14 12 12 23 16 9 20
50 40 33 28 27 34 36 35 35 36 34 33 31 29 28 29 31 30 29 29 26 27 27 25 24 23 23 23 23 23 23 22 21 20 19 17 15 15 11 9 15 20 14
41 41 37 33 30 32 35 34 34 34 32 32 31 30 30 31 31 30 28 28 30 29 29 28 27 25 22 20 21 23 23 22 22 21 21 21 18 16 14 11 9 10 17
42 44 42 37 34 35 38 33 33 30 29 29 31 31 29 29 29 27 24 24 25 24 25 24 23 22 23 24 23 23 23 24 24 24 24 23 22 19 18 16 11 11 9
41 39 39 38 34 30 30 30 31 30 31 29 27 23 23 23 25 28 26 24 25 25 24 24 25 25 24 24 25 25 24 24 25 26 26 24 23 21 20 19 18 16 14
40 37 32 29 27 29 29 29 29 30 27 24 23 22 22 24 25 26 27 24 24 25 26 26 28 30 30 29 28 26 26 27 26 26 26 26 24 23 22 22 21 20 19
30 27 26 26 27 27 27 27 27 29 26 24 24 26 26 25 24 23 24 25 26 27 27 29 29 29 29 28 27 24 21 22 22 22 23 24 24 24 23 23 22 22 21

GFSGL_500_spd_015.txt.gz
Wind_Speed
26 29 31 30 31 30 30 29 28 30 33 30 29 27 29 31 34 35 36 36 38 40 39 40 40 38 44 46 43 44 44 45 43 39 37 37 38 39 41 45 50 52 51
23 26 28 29 31 33 33 31 28 30 32 30 29 29 30 33 35 38 38 39 39 40 39 40 41 43 42 43 43 44 46 47 46 36 32 33 36 41 42 41 42 49 57
31 29 30 30 31 35 34 33 30 32 31 31 31 32 34 35 37 39 40 40 40 40 40 42 43 43 43 43 44 48 50 48 45 36 33 36 36 39 41 40 42 42 51
35 36 34 33 35 37 37 36 33 35 34 34 34 36 38 38 40 41 43 42 42 41 40 41 40 40 40 42 45 49 47 43 37 35 36 36 38 41 42 44 45 46 44
42 44 38 33 35 36 39 37 34 41 39 41 37 36 41 42 40 43 48 48 47 43 40 39 36 38 42 45 49 44 37 36 34 36 39 37 37 41 43 47 49 53 49
43 42 54 38 35 38 39 33 38 48 45 41 36 38 42 42 37 43 45 50 39 42 34 31 35 40 44 48 50 42 44 44 41 42 40 40 41 43 46 46 48 48 51
44 42 46 59 44 36 50 42 45 51 54 39 39 42 44 42 40 45 46 44 45 29 31 34 37 42 46 46 47 45 39 40 39 39 40 39 43 47 46 38 39 44 48
48 46 45 37 40 43 46 45 49 49 46 49 41 46 44 43 41 44 43 37 30 42 42 40 38 44 45 46 43 39 38 40 38 37 38 42 45 50 49 32 35 41 48
46 46 45 47 46 45 46 47 55 53 54 50 43 47 49 41 42 37 43 42 45 47 44 42 42 44 44 45 42 35 35 34 37 36 37 44 48 51 46 38 41 41 49
49 48 52 48 45 48 46 51 54 55 52 54 45 53 49 42 39 42 42 46 46 49 51 48 45 42 43 42 34 36 30 31 34 32 32 39 47 48 49 47 49 34 38
43 48 44 42 49 47 48 51 50 55 43 34 47 52 37 33 39 41 41 43 45 46 46 43 40 39 40 37 32 30 29 30 30 33 34 39 41 42 44 41 26 22 20
45 43 39 40 35 40 41 41 40 54 37 30 41 47 46 39 42 41 42 44 46 47 48 43 39 39 38 33 30 29 28 29 30 30 34 36 39 35 38 30 20 14 16
45 42 38 38 43 45 39 48 50 30 30 38 31 37 44 41 41 44 45 47 43 44 44 42 38 37 33 30 31 29 30 31 30 30 34 36 41 30 36 24 14 17 18
41 43 44 41 43 41 44 51 55 52 46 39 34 38 43 42 43 43 43 40 39 39 39 37 34 33 29 31 33 30 30 28 28 28 31 33 44 30 32 14 12 15 20
42 44 45 44 46 48 55 49 47 55 49 45 39 36 34 37 39 39 36 35 36 33 32 33 32 29 27 29 30 28 25 24 25 25 27 30 38 37 24 7 7 12 15
50 50 47 48 42 48 48 44 47 44 46 45 41 35 36 39 38 35 32 32 29 27 28 30 30 28 27 26 23 21 21 21 22 23 25 27 29 36 25 10 6 10 14
54 54 52 50 47 41 46 48 45 47 45 41 35 37 38 37 35 32 31 29 26 27 28 30 30 28 27 23 22 22 24 22 20 23 25 24 26 29 27 15 1 14 14
54 53 52 53 49 46 40 43 48 38 30 32 38 38 36 33 32 32 31 28 27 27 28 29 29 28 25 23 23 24 24 25 22 22 24 23 22 22 30 29 21 10 11
49 51 50 48 49 49 47 49 46 37 35 35 34 34 32 31 32 31 29 28 27 27 28 28 26 25 23 22 22 22 23 23 22 21 20 20 21 20 19 22 24 10 12
46 46 46 44 45 45 41 33 32 34 33 33 36 38 35 34 33 32 29 28 28 29 30 28 27 27 25 25 22 24 24 21 22 22 20 18 19 19 18 18 19 22 8
38 39 41 41 40 38 36 42 31 31 35 36 36 36 34 33 33 33 32 32 33 33 29 27 27 29 28 26 24 23 23 22 22 22 22 19 18 18 19 17 16 15 16
43 43 43 40 39 36 34 34 31 31 37 39 38 33 34 34 33 32 32 31 29 28 27 26 24 24 23 22 22 22 22 21 21 21 21 21 20 19 19 17 15 15 12
41 40 38 37 38 38 38 36 34 34 35 32 31 32 35 35 36 32 28 23 23 24 24 24 24 24 23 21 20 20 21 21 22 22 21 21 21 21 20 19 17 15 13
38 39 38 36 33 32 33 32 32 32 33 31 30 32 34 32 29 29 27 25 26 25 25 25 25 24 24 24 24 24 25 25 25 25 24 24 24 22 21 20 18 17 16
33 35 26 23 23 24 25 27 29 31 32 32 31 32 31 27 26 27 30 27 27 26 25 24 25 25 26 26 28 28 28 26 25 25 25 24 24 25 23 22 20 20 18
24 25 22 22 22 24 25 28 30 31 32 30 27 28 28 27 27 27 28 28 27 28 27 27 26 25 25 25 25 24 24 23 21 22 23 23 24 25 25 24 23 22 22

GFSGL_500_spd_018.txt.gz
Wind_Speed
17 18 20 23 26 27 30 30 32 30 27 28 28 30 29 28 28 28 27 30 34 35 36 37 37 38 39 38 40 43 41 44 42 40 43 46 47 46 42 42 42 38 40
20 24 29 28 29 28 33 34 33 32 29 28 31 31 32 30 30 28 28 30 35 37 39 40 40 38 39 40 41 45 45 46 47 48 49 47 46 45 42 41 42 43 41
24 32 35 36 38 29 31 36 38 34 30 27 33 34 35 35 30 31 31 31 33 35 35 40 38 34 40 41 43 46 47 47 51 53 45 39 38 40 39 40 43 43 44
30 34 36 37 46 49 30 41 46 36 24 29 30 36 40 42 33 33 35 35 37 35 37 28 36 41 43 38 41 46 49 52 54 51 44 41 36 39 40 40 39 43 44
30 33 37 45 44 41 55 39 40 39 40 38 34 38 35 48 33 37 38 39 38 40 41 41 42 40 39 47 47 48 51 52 50 47 45 41 39 43 46 44 42 40 42
32 34 38 46 39 34 43 34 31 35 40 34 33 40 42 46 36 32 39 39 42 41 38 40 43 40 50 51 51 49 51 50 48 44 40 42 40 42 44 45 46 45 40
36 38 39 45 48 45 38 38 41 45 41 35 34 42 44 49 41 44 42 42 40 30 34 37 42 47 49 49 50 50 49 46 44 38 39 39 39 41 42 43 47 47 42
42 43 44 50 50 48 41 39 41 45 44 42 38 45 40 43 47 46 43 45 36 35 38 41 42 45 44 47 47 45 43 43 38 40 36 35 38 37 39 42 42 41 38
44 47 48 49 50 45 39 36 43 36 35 38 41 43 47 40 44 47 45 35 34 38 39 41 42 43 46 48 48 45 40 38 38 35 32 37 36 37 40 47 49 39 32
47 42 48 46 44 42 37 41 41 33 36 37 36 41 46 39 40 41 33 36 44 41 39 40 44 46 48 47 45 39 39 39 35 33 32 35 37 39 42 50 53 46 43
46 38 45 43 42 43 38 39 36 39 42 36 44 44 43 37 34 41 45 48 52 41 41 45 47 46 44 45 40 37 38 38 35 32 32 35 35 40 44 49 48 47 38
38 37 44 44 42 39 38 38 39 43 44 42 42 44 41 43 39 40 45 42 41 40 44 47 46 42 43 41 39 38 34 33 34 34 34 34 33 38 40 48 47 42 25
35 44 45 43 41 41 41 38 38 43 46 44 51 47 44 46 39 34 38 41 40 41 43 44 42 42 40 36 37 37 32 33 35 34 33 31 32 37 38 45 38 30 24
45 46 46 44 42 40 42 44 44 45 43 48 48 47 47 36 39 37 36 36 37 39 41 40 38 37 35 35 34 30 29 31 29 26 26 27 31 33 36 45 37 23 16
45 42 44 45 43 44 47 49 48 46 46 46 46 46 43 47 46 38 36 37 38 40 37 36 36 34 34 33 30 26 25 24 22 23 24 25 27 29 32 42 29 15 15
46 44 46 45 48 49 50 49 47 45 42 42 38 39 44 42 34 35 39 38 38 37 36 35 34 34 35 33 28 26 24 23 23 24 25 25 26 27 29 33 35 17 13
46 47 50 51 53 55 53 49 46 40 39 39 45 46 41 36 35 36 36 35 34 34 35 35 34 33 31 30 26 25 25 24 25 23 25 26 25 25 25 27 36 24 16
51 52 52 53 55 53 50 45 43 41 39 38 39 40 39 35 34 33 33 34 34 33 33 33 31 29 29 29 25 22 23 24 22 21 21 21 22 22 24 26 26 31 20
48 48 48 47 48 47 46 41 39 39 41 37 37 37 34 34 35 36 35 33 32 33 33 31 30 29 29 29 26 24 24 24 21 21 21 21 20 21 21 22 24 24 26
43 44 44 43 42 42 39 39 41 36 36 39 38 37 37 38 40 39 36 32 31 32 34 33 32 30 28 28 26 24 25 24 22 20 21 20 20 20 20 21 23 21 20
43 41 37 37 38 41 42 40 37 35 34 34 37 42 43 44 43 39 34 32 32 34 34 31 28 25 25 24 24 22 22 22 20 18 18 19 19 19 19 20 20 20 18
41 38 38 40 41 39 36 35 35 36 36 36 37 36 37 35 34 33 31 31 32 31 29 26 24 23 23 23 21 19 19 18 18 17 17 18 18 18 18 19 19 19 18
40 39 37 35 35 34 34 33 33 32 33 32 31 31 32 32 34 33 34 32 29 26 24 25 25 24 24 24 23 21 20 20 19 19 19 19 20 19 18 18 18 18 17
38 37 30 31 31 31 27 28 27 29 28 29 30 30 29 30 32 32 33 31 29 27 27 27 25 24 24 24 24 23 23 23 23 22 22 22 21 21 20 19 17 18 16
21 22 25 23 22 22 22 23 25 27 28 30 31 30 28 28 28 29 29 28 29 29 29 28 27 26 26 27 27 26 25 25 24 22 22 22 21 21 20 20 19 18 18
18 19 19 21 22 21 21 23 25 26 24 22 23 23 23 25 26 27 28 29 30 30 29 28 27 27 29 26 24 24 22 20 18 17 17 19 20 20 20 20 20 20 19

GFSGL_500_spd_021.txt.gz
Wind_Speed
9 9 13 18 21 22 28 26 42 36 30 30 27 25 31 30 28 28 28 29 26 32 31 32 32 30 35 34 34 31 31 35 36 37 43 46 49 52 54 49 44 44 43
13 15 20 26 28 39 34 31 33 40 35 33 32 26 29 34 36 33 33 32 32 30 30 35 29 26 25 31 31 36 41 40 42 45 43 49 50 56 49 45 39 38 40
14 20 26 25 22 40 38 44 45 53 56 44 34 29 19 26 35 33 37 34 32 28 31 36 36 37 39 40 39 40 40 42 45 47 49 49 49 48 48 42 40 38 38
17 22 26 29 34 39 40 42 53 49 28 24 29 30 29 29 32 32 35 38 35 33 36 35 36 42 40 37 38 39 45 46 45 49 50 51 49 46 48 42 38 42 42
20 24 26 30 35 40 42 44 45 42 40 21 27 28 24 25 35 35 42 39 33 35 34 33 39 35 34 39 37 42 44 46 45 51 52 49 47 47 44 42 42 39 38
23 25 30 31 35 39 42 44 41 39 31 30 28 27 22 24 31 34 37 28 37 36 36 37 35 32 36 40 42 44 46 45 47 50 49 47 46 40 41 41 39 40 37
29 31 32 33 35 40 43 45 40 33 33 31 26 27 25 24 31 37 34 32 36 39 32 32 30 37 44 45 42 47 47 48 50 47 45 45 41 39 34 36 39 39 35
34 38 40 39 38 40 41 38 34 34 33 33 29 28 31 24 31 35 35 35 34 32 33 28 37 44 47 46 46 48 49 49 47 48 45 41 40 37 32 38 36 38 40
42 43 45 44 44 47 41 39 38 33 32 33 34 35 35 28 32 34 32 39 31 28 29 33 44 51 48 51 48 49 48 49 46 45 43 41 39 36 36 40 39 42 44
48 48 50 40 44 47 40 39 38 31 31 34 34 35 36 33 35 36 26 34 42 29 34 44 41 44 47 48 49 48 46 47 43 42 43 41 39 39 40 41 40 43 47
50 53 48 52 35 34 40 40 38 36 36 36 34 33 36 38 39 38 37 40 35 41 41 45 42 44 46 48 49 46 45 43 41 41 41 39 37 38 40 39 41 47 52
52 52 57 58 45 38 43 41 42 40 39 39 38 37 33 43 43 42 38 31 39 41 45 46 45 45 46 47 44 42 41 40 41 42 38 38 38 36 34 33 38 45 50
52 53 52 55 41 42 49 48 42 42 40 43 43 42 36 46 45 42 43 38 37 44 43 44 44 45 46 44 40 38 37 38 40 38 37 34 30 27 29 30 35 40 46
60 51 50 48 47 45 44 44 43 42 43 42 43 44 43 45 43 43 40 40 43 43 41 41 45 46 44 39 38 36 36 40 40 36 30 27 25 25 28 30 33 37 44
47 41 45 45 45 43 46 46 47 46 45 44 44 41 43 41 42 42 43 42 40 37 40 44 45 43 38 37 36 36 38 40 38 32 28 28 28 27 29 31 31 33 42
42 47 44 42 46 48 50 51 51 52 50 48 44 42 38 40 40 39 37 39 39 41 42 41 39 38 35 35 35 35 36 36 33 31 28 28 28 26 27 28 29 30 38
42 45 46 46 48 51 53 55 55 52 49 44 41 39 39 36 36 36 38 39 39 38 37 39 39 36 34 33 33 33 33 32 29 26 26 27 26 25 25 25 27 27 30
46 49 51 50 52 52 53 54 50 43 41 38 35 35 37 36 34 34 35 35 37 39 38 36 34 32 31 32 33 32 31 30 27 25 25 24 24 23 24 23 23 23 24
49 51 50 48 47 47 46 42 40 39 39 38 38 37 35 37 37 38 40 39 39 38 35 31 32 31 32 33 32 31 29 27 26 25 23 23 23 23 22 22 22 21 21
47 45 44 44 43 41 39 40 38 37 39 40 37 35 37 38 38 40 41 39 39 38 32 30 30 31 30 30 29 27 24 23 23 24 23 20 20 21 21 21 20 20 19
45 44 45 42 38 37 36 35 35 37 35 34 36 37 37 37 37 36 36 36 33 32 31 30 29 26 25 24 24 24 22 21 21 21 20 18 18 18 19 19 18 18 16
42 40 41 40 41 42 39 36 35 35 36 37 35 30 28 27 29 31 30 31 30 30 29 28 24 23 22 22 23 22 21 21 21 19 18 17 18 18 19 18 17 16 14
37 36 37 39 39 38 36 35 33 31 31 31 26 24 25 27 29 31 33 33 30 28 26 24 23 23 24 25 23 22 21 20 21 21 21 22 21 21 20 19 18 16 14
26 28 29 29 32 28 25 25 24 23 23 22 25 26 27 28 26 26 25 25 26 26 25 24 24 24 24 23 22 22 22 23 24 24 24 24 23 22 22 21 19 18 15
22 23 23 21 22 23 22 25 26 23 24 25 24 22 18 19 21 22 23 24 25 25 26 25 25 25 26 25 24 24 24 25 24 24 24 23 22 21 21 21 20 18 17
21 20 21 22 24 24 25 25 24 23 22 18 17 18 19 20 21 22 21 21 22 23 24 24 24 24 23 24 25 22 20 21 21 20 19 18 18 18 18 19 20 19 17

GFSGL_500_spd_024.txt.gz
Wind_Speed
11 12 13 13 15 19 18 33 28 29 29 39 47 39 39 37 29 31 32 32 30 28 29 32 36 32 29 26 24 28 31 30 29 35 37 40 39 45 45 49 50 48 42
14 14 15 17 20 22 22 25 29 32 32 35 43 38 31 23 24 22 25 30 30 31 34 34 31 34 30 34 33 35 40 35 34 33 36 42 45 45 48 52 52 48 39
17 15 15 18 21 23 24 28 29 33 32 35 39 12 21 16 20 35 31 27 30 34 32 35 34 39 41 39 38 42 37 34 33 36 42 45 46 47 49 54 52 45 42
21 21 21 21 22 26 26 31 30 33 35 30 23 21 23 21 23 28 25 29 34 35 37 34 30 38 42 41 40 40 33 33 38 45 48 49 48 49 51 49 47 44 42
22 18 18 21 26 30 31 33 35 35 34 33 27 24 27 25 25 25 29 28 27 33 35 33 31 32 37 39 36 32 37 42 46 47 47 49 50 49 45 45 42 41 41
22 22 22 26 30 35 37 36 37 37 32 28 28 26 28 25 21 22 24 28 33 40 37 35 33 32 33 33 30 36 41 43 42 46 49 49 50 49 46 43 42 43 39
25 25 24 30 34 38 40 41 39 40 36 33 29 29 28 27 27 28 32 31 31 33 35 31 36 34 34 29 32 40 47 44 46 50 49 48 49 48 44 43 43 41 39
27 28 29 31 36 40 43 45 40 47 41 36 30 30 28 28 32 31 30 30 30 31 32 33 35 34 31 25 36 49 47 47 47 48 49 49 49 49 46 43 40 40 39
29 34 34 35 38 45 47 39 39 41 35 35 35 31 34 30 34 35 36 34 32 32 31 31 37 40 39 43 43 44 49 48 47 48 47 47 48 47 45 41 40 38 40
33 36 39 41 44 49 54 39 44 39 39 39 40 37 36 34 32 37 39 36 34 36 34 37 38 43 45 42 51 49 50 49 49 48 45 46 43 42 42 40 41 40 39
40 40 45 49 51 47 47 47 41 39 39 41 45 41 39 37 36 37 42 41 37 40 39 35 37 42 49 50 54 50 50 49 50 45 43 41 40 40 40 42 41 38 37
43 46 50 52 53 49 49 49 48 38 42 44 41 41 40 40 40 38 39 45 54 43 42 42 39 45 47 51 48 48 49 50 45 42 41 40 39 39 40 37 35 34 35
46 50 56 51 57 48 50 46 43 43 42 42 42 44 43 44 44 42 40 43 45 43 41 40 42 44 46 45 45 49 49 43 40 40 38 39 39 38 37 35 34 35 35
51 53 59 61 57 46 43 44 48 46 43 44 44 46 47 46 45 43 46 43 43 44 45 46 46 43 42 43 47 46 41 39 39 38 36 37 38 37 36 34 36 34 33
55 57 58 57 55 45 44 44 46 48 47 46 48 48 46 45 43 41 43 43 45 45 45 45 44 43 44 44 42 38 38 38 35 34 35 36 35 35 33 33 34 32 32
56 51 49 46 46 42 44 49 50 50 50 50 49 47 44 41 39 40 42 43 43 44 44 44 44 42 41 42 40 38 36 33 31 32 33 34 32 30 29 29 30 30 30
53 41 43 47 47 49 53 54 53 54 53 52 51 47 42 40 37 37 38 41 41 41 39 40 40 40 38 35 34 33 34 31 30 31 33 33 29 28 28 26 27 28 28
43 45 50 50 50 54 55 54 51 50 49 48 48 45 38 35 36 39 39 37 39 41 41 40 40 39 36 33 32 32 33 31 30 31 31 30 28 26 26 27 25 26 26
51 54 53 51 51 53 52 50 48 50 49 46 43 40 37 39 38 35 36 40 39 40 38 36 33 32 30 29 30 31 31 30 28 27 27 26 25 25 24 24 23 23 23
49 48 50 49 48 49 51 51 49 47 42 39 40 37 38 36 35 34 35 36 35 33 30 29 29 29 30 28 28 26 25 25 24 24 24 23 22 22 21 21 21 21 20
46 45 46 47 48 48 46 46 43 41 41 39 35 35 35 36 32 29 30 28 27 28 28 29 29 29 27 25 23 22 22 22 22 22 21 20 19 18 19 19 20 19 18
43 43 43 43 42 42 40 39 38 37 35 34 34 34 34 29 27 26 27 28 30 29 27 26 26 25 23 22 21 22 24 23 23 22 22 21 21 21 21 21 21 20 18
38 37 37 37 35 32 31 31 31 31 26 25 27 24 23 22 25 26 27 26 24 23 23 24 23 23 23 22 22 22 22 22 21 21 21 21 22 23 24 23 23 20 19
33 34 31 29 29 28 26 23 21 21 23 24 26 23 24 24 23 20 20 21 22 23 24 25 25 25 24 23 23 23 23 24 24 24 24 24 24 25 25 24 23 21 18
29 30 29 29 26 24 23 22 24 25 24 24 23 23 23 19 19 21 23 22 22 21 22 23 23 23 23 23 21 21 21 23 24 23 22 21 21 21 21 21 21 20 19
29 28 28 27 26 26 27 26 26 25 25 25 25 21 18 20 21 21 21 20 20 21 23 23 23 24 24 23 22 22 22 21 20 20 20 19 18 18 18 19 18 17 17

GFSGL_500_spd_027.txt.gz
Wind_Speed
18 18 15 13 12 15 16 16 18 20 20 23 28 25 22 21 24 18 26 26 26 30 28 27 29 31 34 33 32 31 32 35 38 40 40 39 37 35 35 40 44 46 48
19 18 14 14 17 19 21 22 18 21 26 27 30 27 18 25 22 28 25 25 30 33 33 30 32 32 33 38 32 34 38 40 38 39 42 40 36 35 41 46 47 50 51
18 20 19 19 16 19 21 20 22 26 26 28 29 28 28 24 24 28 26 28 30 36 34 33 35 37 40 39 31 34 40 43 40 37 29 31 36 44 50 52 55 50 50
21 20 19 17 17 18 19 22 24 26 30 32 30 29 29 27 29 29 30 31 30 30 32 32 33 33 37 33 35 35 37 39 39 31 33 38 42 44 47 51 49 46 47
24 23 20 17 17 19 18 22 26 29 31 34 34 33 32 34 33 32 31 27 29 31 30 34 40 44 43 38 35 38 35 36 32 35 41 43 46 48 50 49 49 49 50
25 24 24 23 22 23 25 27 31 36 38 37 34 39 35 32 36 34 35 32 32 35 33 38 40 39 42 38 37 35 39 31 30 36 43 45 48 49 52 52 51 50 49
27 27 27 26 22 24 25 30 35 38 43 47 39 39 33 29 33 33 36 36 35 36 33 37 39 38 40 40 39 40 38 36 35 35 41 47 47 47 50 51 50 50 50
29 25 28 28 26 29 32 34 37 40 46 49 45 43 36 34 34 35 38 39 37 38 36 40 38 40 40 43 40 43 47 40 42 43 44 48 47 48 49 50 49 50 45
25 26 30 33 30 32 34 37 39 42 47 53 51 49 41 38 38 35 39 41 39 38 38 44 40 38 43 45 42 43 50 49 45 47 49 50 50 50 51 50 50 47 42
27 29 33 36 37 38 41 41 43 46 49 57 50 49 45 40 45 42 38 40 42 42 42 46 45 48 51 46 43 44 46 51 57 57 58 56 50 49 46 46 45 43 40
35 36 40 41 41 43 46 46 46 48 52 59 57 54 48 44 47 40 41 41 41 43 45 45 46 52 53 45 44 46 51 56 57 58 59 51 50 47 45 45 41 38 36
41 43 46 47 47 48 47 49 51 55 56 58 59 48 49 44 43 41 41 41 42 45 48 50 42 46 48 48 49 50 51 53 56 54 50 49 44 42 40 40 39 37 36
46 48 53 52 46 48 49 53 55 58 59 58 53 52 48 45 44 43 44 45 42 46 37 47 51 46 50 55 51 49 47 48 48 47 44 41 40 38 36 36 36 35 33
53 55 58 64 48 52 53 57 60 64 63 55 53 49 46 48 47 48 49 48 45 39 51 47 50 49 52 50 51 48 46 43 41 40 39 39 37 34 34 35 34 33 33
55 58 57 53 52 56 60 66 51 50 50 52 49 51 52 51 49 48 47 47 44 44 44 49 50 50 51 51 47 44 40 41 39 37 36 35 33 32 33 34 32 32 33
55 55 57 56 57 59 56 54 50 48 51 52 50 50 52 49 43 46 46 45 43 43 45 47 49 50 49 46 45 41 37 35 35 36 35 34 32 32 33 33 31 32 31
51 54 58 59 61 58 46 51 53 54 56 53 51 50 50 47 47 46 43 42 41 42 46 47 44 44 43 42 39 36 35 35 36 35 34 33 33 33 31 30 30 31 30
51 57 61 62 45 55 53 53 54 53 52 51 50 50 49 45 44 42 41 42 42 42 41 41 42 39 37 35 34 33 32 32 32 34 33 32 30 29 28 29 28 28 26
49 55 62 56 48 48 48 49 52 53 51 48 47 45 43 39 39 40 41 39 38 39 38 36 33 32 32 32 31 30 30 30 30 29 27 26 25 26 26 25 25 24 24
51 48 46 46 46 49 49 49 50 49 48 44 42 41 40 40 37 36 36 35 34 32 30 30 32 33 33 32 31 30 30 28 27 26 25 24 23 23 23 22 21 20 22
48 47 48 49 48 48 47 49 45 40 38 35 33 28 29 29 27 27 28 29 28 28 30 30 26 24 25 25 25 25 25 25 25 26 26 24 23 23 23 23 22 21 22
44 43 44 44 44 46 42 38 36 32 30 28 26 24 23 25 26 28 26 25 27 25 21 21 23 24 25 25 25 24 24 24 24 23 22 22 21 22 23 23 24 24 24
38 40 42 41 38 37 34 35 31 29 29 29 25 23 24 26 28 25 24 23 21 21 21 22 21 22 23 25 25 25 25 24 24 23 23 23 23 24 25 26 25 25 25
36 34 34 36 34 32 32 30 30 31 29 27 27 26 25 23 23 23 20 20 21 22 22 23 22 25 26 25 25 25 24 23 22 21 22 23 23 24 24 23 24 24 23
31 31 32 32 29 31 33 32 32 29 29 30 28 27 26 24 21 19 19 20 19 20 20 22 23 24 24 24 24 24 26 25 24 22 21 19 19 20 21 21 21 20 20
30 28 29 30 32 33 32 32 31 30 30 29 27 26 25 23 18 18 19 19 18 19 21 22 22 22 24 24 23 23 23 24 23 21 19 19 18 18 18 18 18 18 18

GFSGL_500_spd_030.txt.gz
Wind_Speed
12 12 14 13 9 7 9 13 12 12 14 14 16 20 21 21 29 27 29 30 31 30 26 26 31 32 34 31 33 35 36 34 34 38 36 40 38 40 42 43 39 36 39
11 10 10 10 9 10 12 11 8 11 17 21 21 23 25 23 24 25 30 32 30 30 30 29 32 36 33 34 38 42 41 35 31 34 40 43 39 37 35 34 34 39 43
12 11 7 11 13 15 13 5 9 13 17 21 25 29 29 28 31 32 31 33 33 33 29 27 28 30 32 36 37 38 44 38 38 36 37 37 37 36 32 37 38 41 46
19 16 12 11 16 14 10 7 12 14 17 21 24 27 34 37 37 40 33 34 33 33 31 34 32 35 35 35 38 38 41 43 41 39 33 33 33 35 35 38 38 40 43
19 17 12 13 18 16 14 16 14 19 23 25 27 33 37 39 36 39 34 34 35 32 33 36 38 38 36 37 41 40 38 43 43 46 44 41 37 36 35 34 38 44 49
22 18 16 16 19 20 20 20 19 21 25 28 31 34 38 43 45 39 39 36 35 34 37 37 39 39 37 39 40 41 43 43 44 42 50 50 46 42 43 42 44 49 50
27 23 21 17 18 22 21 20 20 23 27 29 33 37 42 45 47 44 43 42 44 37 40 44 41 41 39 40 42 42 39 42 49 50 48 49 50 50 45 42 48 47 49
30 27 24 19 19 22 24 25 25 26 29 33 36 41 46 51 52 53 52 46 44 45 42 42 43 45 40 42 45 44 44 48 49 50 50 46 54 54 53 53 48 47 45
32 32 24 17 20 22 25 27 32 33 34 38 41 42 46 52 57 57 54 46 48 49 44 41 44 44 43 43 44 43 42 50 54 51 52 54 54 55 58 58 51 49 47
33 34 29 23 22 25 29 32 35 36 41 40 43 47 50 54 54 58 56 48 47 45 45 44 42 43 44 45 49 44 48 53 49 50 53 54 55 56 55 54 51 49 47
38 36 32 27 29 32 35 39 41 42 44 44 49 52 55 57 57 58 59 48 45 45 46 43 44 45 48 44 45 48 50 52 51 54 54 52 52 53 53 49 43 41 40
39 38 37 37 39 39 43 48 53 48 41 45 50 55 59 65 65 58 50 43 43 44 48 47 44 44 49 44 44 53 53 54 58 55 52 51 49 45 42 42 41 41 41
42 40 42 44 44 45 47 54 57 53 48 50 54 61 64 59 55 47 45 46 47 49 48 47 45 44 45 47 53 55 53 53 51 50 46 42 40 41 41 39 38 36 34
43 43 45 47 48 50 53 55 53 56 56 56 60 62 61 51 48 50 49 50 49 48 46 46 45 42 50 50 51 49 50 51 47 42 40 37 38 38 35 34 34 34 33
43 44 47 51 55 57 57 55 57 56 55 58 60 63 53 52 54 53 49 49 48 48 48 44 45 45 49 48 48 49 47 44 41 38 39 37 37 34 34 35 35 34 33
47 46 48 55 56 54 54 51 53 54 55 56 64 57 53 52 52 49 47 47 50 48 43 41 43 45 45 45 43 43 41 39 35 34 35 34 34 34 35 35 34 33 32
49 49 45 47 43 51 54 49 54 62 62 50 52 47 50 52 51 49 48 45 40 39 40 41 41 41 39 39 36 36 36 36 35 34 34 34 34 33 32 30 29 29 30
44 46 45 49 57 46 53 54 58 66 59 37 43 47 50 51 51 49 44 42 40 40 38 37 37 36 32 32 34 35 36 36 35 34 33 33 32 30 28 26 27 28 28
47 45 44 46 49 51 53 52 53 45 40 43 44 45 46 48 46 41 36 35 34 33 31 31 30 28 31 31 29 29 29 29 29 30 30 29 28 27 26 25 25 25 25
48 52 51 48 55 55 57 55 50 49 43 41 42 39 39 41 37 32 31 30 28 28 28 27 27 27 25 26 26 26 27 27 26 26 27 27 28 27 26 26 25 25 25
55 54 49 43 52 50 48 49 47 43 41 39 33 33 35 32 32 32 29 30 30 27 23 22 21 21 23 23 25 26 27 27 27 26 26 26 25 24 24 24 24 24 24
56 44 37 50 54 46 45 43 42 40 37 33 32 29 29 33 34 30 29 29 26 21 19 18 20 21 22 23 25 26 27 26 26 27 27 26 26 26 26 26 26 26 27
42 36 45 44 44 44 40 42 38 32 31 30 29 31 32 33 34 32 30 25 21 19 18 19 19 20 20 23 23 25 26 26 26 26 25 25 24 25 26 25 25 25 25
36 40 42 39 37 35 31 29 34 33 30 31 33 34 33 32 32 31 27 23 19 18 17 16 17 18 20 22 23 25 25 25 26 26 25 24 24 24 22 22 23 23 23
36 36 36 33 34 31 33 34 31 30 32 35 34 34 34 31 29 29 24 23 19 18 17 17 18 19 21 21 22 23 24 25 26 26 25 23 22 22 21 20 20 19 19
32 32 34 33 31 29 30 31 32 35 36 34 33 32 30 29 28 26 21 21 20 19 20 20 20 21 22 23 22 23 23 24 25 26 26 23 21 20 18 16 16 17 17

GFSGL_500_spd_033.txt.gz
Wind_Speed
6 2 4 4 7 9 9 7 9 7 8 11 13 14 15 18 21 25 29 33 33 31 28 28 27 25 24 23 25 26 28 29 30 32 34 33 28 32 34 36 36 35 34
9 4 4 4 7 9 8 10 10 9 6 9 13 14 16 19 27 31 31 32 32 29 32 28 27 27 29 29 29 29 28 30 29 29 33 37 37 37 34 35 38 37 33
13 11 7 8 8 9 10 11 13 9 7 9 10 14 18 22 25 30 36 34 34 33 33 30 30 32 33 34 34 32 34 34 34 31 33 38 38 40 40 37 35 31 34
15 16 14 10 13 15 14 12 15 10 11 10 10 14 19 22 26 32 33 34 36 38 36 34 36 37 38 38 37 36 37 37 36 36 37 38 39 42 40 42 44 42 39
17 18 16 13 17 20 16 17 19 19 15 17 16 17 19 24 28 33 36 38 41 45 39 36 36 39 41 45 45 42 43 39 38 39 37 38 38 43 48 45 44 44 45
25 19 19 17 16 21 20 19 21 19 16 15 17 18 22 27 31 34 39 41 43 45 44 34 38 40 42 45 45 45 43 41 41 42 41 43 40 47 49 48 47 46 48
29 26 25 23 18 19 22 22 23 21 21 19 18 21 25 31 33 39 42 45 45 49 50 43 39 40 41 41 41 43 44 43 44 43 41 41 46 52 49 50 50 49 51
32 32 29 26 21 20 23 22 22 25 21 22 24 27 30 33 34 39 45 51 51 50 52 53 44 41 39 39 41 41 40 43 48 47 49 49 51 53 54 54 52 54 52
34 35 31 29 25 21 25 24 24 23 22 25 30 32 36 36 38 43 48 53 58 58 55 50 42 40 42 41 39 42 44 46 50 50 50 54 53 51 55 53 54 54 49
38 39 38 33 29 24 25 26 27 27 26 30 36 39 39 33 42 42 50 54 54 55 52 44 42 42 44 46 46 46 45 50 52 48 49 53 54 54 55 55 50 49 49
43 42 42 38 35 30 27 32 32 32 33 37 42 47 52 43 34 41 50 58 57 46 41 44 45 46 48 47 47 47 46 52 51 47 54 57 52 51 49 48 46 44 42
48 46 43 43 39 34 33 37 39 33 37 42 45 48 48 51 45 49 56 58 57 48 46 49 48 48 49 47 49 49 51 52 58 57 58 54 48 46 41 42 43 42 40
51 51 45 44 42 37 38 42 39 39 42 46 49 48 51 46 49 50 57 60 54 48 49 48 48 49 48 48 49 49 48 51 54 49 49 49 47 43 41 40 40 38 37
53 52 53 47 45 42 42 42 43 44 47 48 54 50 51 45 49 50 57 54 43 46 50 49 48 47 47 44 42 43 44 45 47 45 44 45 40 37 36 36 36 36 35
57 53 53 51 47 43 43 44 44 47 51 54 53 54 50 48 53 58 54 46 45 48 47 47 47 46 43 41 40 41 42 41 40 39 37 37 36 35 35 35 35 35 34
47 48 47 48 46 41 44 46 46 52 55 51 42 54 58 52 61 58 50 46 45 47 47 45 41 39 40 38 37 37 34 34 36 36 36 36 35 34 33 32 30 29 28
44 48 46 45 41 42 44 48 51 54 37 46 48 50 58 45 44 44 45 43 44 43 39 36 36 35 33 32 31 31 32 31 30 33 33 33 32 31 29 27 27 27 26
46 47 35 37 38 45 51 50 51 53 40 43 47 48 49 49 46 42 41 39 39 35 34 33 35 33 31 31 28 26 26 27 28 30 31 31 30 28 27 27 27 26 25
47 44 35 41 47 52 50 44 51 43 47 46 49 48 48 48 43 39 35 35 33 33 33 33 34 32 28 24 22 23 23 26 28 30 30 30 29 29 29 27 26 26 26
39 42 43 39 45 50 46 43 42 42 43 42 45 44 42 41 38 37 35 33 34 33 33 33 31 23 22 21 21 21 23 25 27 29 31 30 29 29 29 28 27 26 26
43 42 50 53 47 49 48 46 50 49 41 43 43 40 38 36 35 33 32 36 35 32 31 30 23 21 20 21 21 22 23 24 26 28 29 30 30 29 28 27 28 29 29
40 45 51 52 54 52 52 50 42 37 42 39 35 32 33 33 32 31 33 36 33 30 30 24 20 19 19 18 19 21 22 24 25 26 28 29 31 30 27 27 28 26 25
54 54 63 57 61 49 45 27 34 35 36 34 29 27 26 29 31 32 37 34 28 27 25 21 18 17 17 18 19 20 21 22 24 25 28 28 30 29 26 25 25 25 25
53 32 25 21 18 21 23 29 31 34 32 30 32 34 32 31 34 34 33 28 27 24 22 20 18 18 17 18 21 21 22 22 23 24 26 28 29 28 24 23 23 21 21
18 10 16 24 27 27 28 31 31 31 30 33 35 34 33 33 34 29 27 27 27 23 21 20 20 20 20 21 23 23 23 24 23 24 26 27 28 28 25 22 20 20 19
23 25 29 32 32 32 31 30 31 32 33 33 33 34 35 34 32 28 27 26 25 21 21 21 21 22 21 23 22 23 24 24 23 24 25 25 26 27 25 22 21 19 18

GFSGL_500_spd_036.txt.gz
Wind_Speed
8 7 5 10 15 16 18 19 15 10 6 6 4 3 4 8 11 17 21 25 24 25 27 27 27 27 27 27 27 27 26 24 26 29 29 31 27 23 16 13 21 27 32
10 8 8 7 11 14 17 19 14 11 10 9 6 3 5 8 10 15 18 22 24 26 28 31 30 29 30 31 30 30 31 30 29 30 30 31 32 33 30 28 22 19 24
13 13 12 10 10 13 16 16 14 14 14 12 8 6 5 7 11 16 17 21 23 27 29 32 35 31 30 30 33 32 33 34 32 30 29 31 33 36 37 38 37 34 34
16 14 15 15 12 14 17 16 16 17 18 15 11 12 13 11 15 16 20 23 26 28 31 35 37 35 34 34 34 35 33 36 35 33 33 33 34 34 36 38 41 43 44
20 18 16 19 18 20 21 20 20 19 23 24 23 19 18 15 15 19 23 26 30 33 36 40 44 43 40 37 36 35 36 37 37 35 37 39 40 40 40 41 42 45 50
21 19 21 23 22 18 22 24 24 24 27 27 25 23 21 20 21 23 26 26 31 34 40 46 46 45 42 40 36 36 36 34 37 40 40 37 42 46 48 49 48 50 50
26 26 28 27 28 24 22 27 29 28 30 30 27 26 25 25 24 26 28 30 33 34 39 44 48 42 38 37 36 34 35 36 38 40 42 46 48 50 53 55 52 52 53
31 29 32 32 31 29 27 25 29 32 34 34 32 28 27 26 25 29 33 33 34 36 40 43 47 41 34 37 39 40 39 41 42 43 45 49 49 55 59 57 54 54 52
32 29 33 31 33 33 32 28 30 34 35 33 33 31 28 28 30 37 40 26 39 35 39 41 44 41 40 41 44 46 47 45 46 51 49 51 51 54 53 52 49 50 48
41 34 36 35 35 34 32 32 33 32 32 33 32 34 36 31 35 34 38 41 43 41 41 42 46 47 42 41 44 47 46 49 49 50 50 53 53 54 57 64 46 42 44
40 40 41 42 40 40 38 38 36 36 37 37 37 44 51 21 32 37 40 43 41 47 49 47 45 42 42 44 45 45 46 46 47 50 52 50 50 50 50 48 47 48 44
51 43 45 47 47 46 45 44 41 44 45 44 45 45 41 41 41 44 47 43 42 46 48 52 40 44 46 46 46 43 42 47 47 47 48 47 48 49 47 45 45 43 41
60 59 51 55 57 44 47 49 46 49 51 53 53 50 35 46 50 53 48 40 41 44 50 46 44 45 45 43 40 42 41 41 43 43 43 43 44 43 42 43 42 39 38
67 64 62 59 60 56 54 57 55 52 60 61 49 35 42 48 50 52 40 43 41 39 39 38 41 42 43 42 38 39 40 39 39 41 39 40 42 43 42 41 41 40 38
77 73 65 69 72 69 71 65 64 58 58 48 30 35 45 49 53 50 33 39 38 40 43 42 43 43 39 37 36 39 41 39 37 37 37 37 38 38 38 37 36 35 33
55 56 52 53 53 70 63 57 59 63 62 49 31 42 49 45 45 37 38 39 42 41 40 40 41 35 33 36 38 37 37 34 32 31 32 33 35 36 36 35 33 31 29
53 55 53 59 63 60 34 55 24 43 31 27 42 42 47 58 46 45 47 39 40 39 36 36 35 33 34 37 37 35 30 26 27 27 29 31 33 35 36 35 33 32 30
52 57 41 42 47 49 44 54 21 28 35 35 40 50 46 40 49 54 42 40 38 38 34 31 32 33 37 36 32 26 24 24 23 26 29 30 33 34 35 36 34 31 30
49 44 28 37 41 40 46 49 43 32 35 40 46 53 46 39 47 42 38 38 37 35 31 30 33 35 35 31 26 24 23 23 25 27 29 31 32 34 35 36 34 32 29
37 36 39 42 50 56 50 40 41 37 42 46 51 44 42 48 43 39 34 36 38 32 29 32 33 32 31 26 25 23 21 22 24 26 27 29 31 33 35 36 34 31 30
30 38 43 33 48 47 33 32 33 36 41 45 44 42 45 42 36 35 36 36 34 29 31 34 31 28 27 24 23 19 18 21 23 24 26 27 29 31 33 34 32 28 27
29 31 25 35 36 31 33 38 45 48 49 47 49 50 33 41 35 34 33 33 30 30 31 31 29 28 25 22 19 17 17 21 23 24 26 26 28 30 32 33 30 28 27
29 28 31 30 29 34 38 47 52 53 55 55 57 38 33 35 33 32 30 29 29 30 28 30 31 29 24 22 18 16 19 21 23 24 25 26 27 29 30 31 30 28 26
34 36 36 39 38 38 46 52 47 42 31 27 26 31 30 26 28 28 26 29 28 27 25 28 31 26 24 22 19 18 21 22 23 24 25 26 27 27 28 30 29 29 27
41 43 49 35 38 32 36 30 25 23 25 27 28 25 30 33 30 28 30 30 28 28 29 27 27 26 25 22 21 21 21 22 22 23 24 25 26 26 27 27 28 27 25
49 44 37 30 31 28 31 29 25 26 27 27 28 26 27 32 30 31 31 31 30 28 31 28 27 27 25 23 22 22 22 22 22 23 24 24 24 25 25 25 26 26 24

GFSGL_500_spd_039.txt.gz
Wind_Speed
13 13 13 12 17 23 24 22 19 22 16 14 13 13 10 5 4 7 11 12 16 19 22 23 23 25 26 24 24 24 22 24 26 26 24 24 23 22 21 22 22 22 24
15 14 11 11 10 14 19 21 20 23 18 16 16 16 12 11 8 9 11 12 13 16 18 21 23 26 28 28 27 26 24 24 26 29 28 27 27 26 26 26 26 28 27
18 17 14 12 11 10 15 19 20 22 19 18 20 19 18 14 13 11 13 14 15 17 19 22 25 30 33 34 32 30 30 28 28 30 28 28 28 31 31 33 33 34 33
23 20 17 15 14 13 15 16 19 22 21 21 22 21 19 18 18 18 19 18 18 21 22 25 29 31 34 37 32 31 31 28 29 31 30 33 35 37 39 39 37 41 42
27 22 18 17 19 19 16 17 21 23 21 22 25 26 25 23 25 24 24 23 21 23 23 26 29 32 35 35 32 33 29 27 28 30 33 36 38 39 40 41 45 47 48
31 24 21 20 20 21 21 19 19 25 26 27 26 28 32 31 31 29 28 26 25 27 28 29 30 34 37 36 33 34 32 33 36 38 38 41 41 38 44 47 48 51 50
31 29 24 21 21 23 26 27 24 24 29 31 32 32 32 33 32 31 31 27 28 30 28 30 29 33 37 39 38 39 38 38 38 37 40 38 40 40 46 49 52 53 55
34 34 29 35 23 28 30 32 31 30 31 33 36 37 38 37 37 37 35 33 34 33 23 29 32 37 41 44 41 35 37 41 42 44 47 35 50 41 51 51 54 57 55
38 41 36 32 33 33 32 34 35 33 32 31 35 38 40 41 43 42 42 38 30 36 42 34 38 35 38 46 45 40 38 42 43 42 41 53 44 41 52 55 56 50 48
38 41 40 40 37 33 32 36 39 39 37 35 38 40 44 45 45 46 49 43 40 40 33 39 37 50 42 40 46 41 40 42 43 41 43 48 49 52 54 53 49 45 45
40 49 49 38 37 34 36 41 43 43 43 41 41 46 46 45 46 51 54 59 30 35 40 46 37 35 39 42 41 40 40 41 42 44 47 48 47 49 46 43 43 44 45
39 44 50 47 45 41 41 43 44 48 48 48 51 51 54 52 54 56 61 60 36 39 47 47 34 36 36 35 35 36 38 43 41 41 43 44 42 40 40 40 41 42 43
48 47 51 47 51 54 49 53 47 51 55 56 58 58 58 58 61 67 60 39 32 37 42 41 35 32 33 35 37 38 38 38 39 41 41 39 38 36 36 36 39 41 41
52 51 50 52 53 47 52 59 57 56 58 59 58 61 66 67 61 70 33 23 34 27 31 37 35 34 33 36 38 36 34 38 39 38 36 33 32 32 33 36 39 40 41
57 51 52 56 60 61 63 65 64 65 64 65 68 67 71 68 57 42 17 31 23 26 34 32 31 31 34 36 34 33 37 39 36 33 30 30 30 33 36 39 39 40 41
53 57 59 59 61 65 68 67 67 71 74 72 74 76 77 68 68 49 38 26 24 31 36 30 29 31 35 34 33 36 38 34 29 28 28 30 33 35 37 38 39 40 41
52 58 63 65 67 67 66 67 71 76 76 72 77 33 30 38 16 27 36 30 36 37 33 29 31 31 31 30 34 37 33 29 28 23 28 32 34 34 35 37 38 40 41
51 55 60 65 68 71 74 46 48 50 34 48 40 51 37 21 16 23 24 31 30 30 31 30 30 29 29 33 36 34 29 28 28 25 29 30 32 32 33 35 37 39 39
48 47 59 69 81 78 79 40 32 23 27 36 37 26 16 26 25 23 30 31 31 33 32 28 28 29 32 36 34 29 26 27 27 25 26 27 29 30 32 34 36 38 38
35 44 51 43 53 45 36 31 25 26 32 37 38 35 34 32 27 24 29 30 27 32 28 26 29 29 31 33 30 27 26 27 24 23 24 26 27 28 30 33 35 37 37
28 34 36 17 8 13 25 23 26 25 21 25 26 26 29 33 30 33 31 26 28 28 30 29 32 29 31 29 27 27 26 24 22 22 23 25 27 28 30 33 34 34 35
29 27 17 23 19 19 28 24 22 32 29 27 31 33 36 37 37 33 29 31 32 28 29 31 31 29 28 27 27 26 23 22 21 22 24 25 26 27 28 31 32 33 34
30 30 25 19 18 19 16 15 18 26 31 34 38 40 41 41 41 30 24 26 27 29 30 30 28 27 26 27 26 25 23 23 21 23 24 25 25 26 26 28 30 30 32
33 33 30 28 26 21 26 30 32 32 29 35 32 30 24 23 24 26 28 24 27 30 30 28 28 30 27 27 26 25 26 26 25 25 25 25 25 25 24 25 28 29 29
38 37 37 38 36 31 33 33 32 33 38 27 22 29 28 25 24 28 28 28 28 29 29 30 30 29 27 27 26 25 25 25 26 27 26 25 25 24 24 23 25 27 27
39 40 42 40 37 42 42 34 37 31 25 22 25 29 31 30 30 28 32 35 37 32 31 32 30 29 28 27 27 26 26 24 25 26 26 26 26 25 24 22 22 24 26

GFSGL_500_spd_042.txt.gz
Wind_Speed
14 17 19 20 22 24 25 24 21 21 18 20 19 14 14 13 10 8 10 11 11 11 13 15 15 16 22 23 22 18 17 17 17 17 19 20 22 21 22 23 25 26 26
17 20 19 19 15 14 18 23 25 23 21 22 21 17 17 16 17 13 12 14 17 17 15 14 16 20 21 25 26 27 19 21 24 22 23 22 20 23 24 26 27 27 30
20 21 21 17 14 12 13 15 18 21 22 24 21 18 20 20 19 17 16 17 20 19 20 16 18 21 23 23 29 25 20 18 20 23 26 27 29 33 33 34 36 36 35
26 23 22 19 16 14 13 14 16 19 23 24 22 22 22 24 23 22 22 22 22 22 21 21 21 19 22 24 28 29 27 23 19 20 24 26 31 37 38 38 39 37 37
28 27 22 21 21 20 18 16 17 19 19 23 23 24 24 26 28 27 27 26 26 27 29 28 26 21 22 25 26 32 29 24 23 24 27 29 34 36 42 35 31 38 41
24 23 27 25 23 22 20 19 19 17 19 24 27 28 28 25 29 32 33 31 32 31 34 36 35 29 26 26 30 34 35 32 31 29 29 32 37 39 39 36 43 50 49
26 24 23 27 25 24 24 24 23 22 24 23 25 28 29 29 28 32 34 36 36 36 39 42 37 30 30 32 34 36 43 39 36 35 34 35 38 41 38 40 47 52 54
34 32 28 28 29 28 27 23 27 28 30 30 28 30 32 33 36 38 42 42 41 39 43 43 48 39 38 42 45 43 44 41 39 34 38 39 40 44 41 44 52 54 52
26 28 34 32 35 35 32 34 26 31 35 35 35 33 33 33 39 45 49 49 44 45 45 44 46 43 39 44 30 37 35 37 33 35 39 40 44 45 45 46 47 44 42
26 31 36 37 37 40 39 40 36 37 35 40 42 40 39 39 40 48 50 49 47 46 51 50 49 44 44 29 32 34 35 34 33 37 40 44 44 43 41 42 39 37 35
27 32 34 36 36 38 46 45 42 40 39 40 44 46 46 47 49 53 53 55 53 54 60 51 55 28 33 39 30 32 33 34 35 39 40 39 40 41 37 33 32 33 36
33 37 37 41 41 42 47 54 53 53 45 41 44 49 50 55 60 60 62 62 63 64 67 51 51 35 22 22 26 33 34 35 36 37 37 38 37 33 29 28 31 35 38
40 41 47 47 38 46 43 44 48 56 54 46 40 48 57 54 60 62 76 84 71 55 70 45 42 23 20 28 30 34 34 33 34 35 35 34 29 26 25 29 32 37 39
44 43 46 47 45 47 50 49 53 51 49 53 51 53 56 59 65 71 74 87 72 50 49 54 34 19 22 27 30 32 31 31 32 33 32 27 23 22 26 31 34 37 40
56 53 49 44 48 52 53 56 59 58 59 61 59 63 66 66 70 72 77 67 74 61 46 55 27 27 29 28 29 28 29 29 30 29 25 22 19 23 27 31 34 36 40
40 42 43 43 47 52 55 56 60 63 65 66 69 72 75 76 83 79 53 42 52 46 15 14 20 28 24 24 27 26 27 27 27 24 22 20 21 25 28 32 34 37 40
45 47 52 55 56 55 54 56 62 66 68 71 74 74 77 62 73 66 45 52 42 34 36 21 21 27 21 26 25 24 25 24 22 20 20 19 21 24 28 32 33 37 41
49 47 47 43 46 48 55 61 63 66 67 68 68 72 70 71 60 73 53 22 16 14 17 16 21 23 24 25 23 23 22 21 19 18 18 18 19 22 28 30 32 36 39
43 45 44 47 49 53 58 54 58 65 69 70 68 71 72 19 12 10 21 14 13 12 14 18 21 22 23 21 21 21 21 21 18 17 16 17 18 21 26 28 31 35 36
42 40 42 47 44 41 42 44 47 45 52 39 32 12 22 17 15 14 14 18 12 15 20 22 25 22 21 19 19 20 21 21 17 16 15 15 17 21 26 27 29 33 34
43 43 38 40 38 35 31 30 29 19 15 16 8 10 18 16 16 16 19 19 17 20 26 24 21 20 19 22 20 20 22 19 17 16 14 14 18 21 24 26 28 30 32
40 37 38 37 34 29 28 23 20 14 13 14 18 11 13 17 22 25 26 26 26 25 27 24 20 20 20 22 21 21 21 20 18 15 15 18 20 22 24 26 26 28 30
37 36 40 40 34 30 24 18 20 23 11 11 14 18 23 25 27 29 30 28 30 33 27 23 20 23 22 23 23 23 21 19 17 17 19 22 23 24 26 26 26 26 28
37 36 37 33 29 26 26 25 23 25 23 23 25 23 25 28 27 24 23 23 24 26 26 22 22 23 24 24 26 24 21 21 18 19 22 25 27 27 27 27 26 26 26
37 38 31 25 24 24 25 26 25 27 27 28 35 29 31 30 28 27 26 25 25 27 28 26 22 23 24 25 24 24 22 22 22 23 24 26 27 27 27 27 27 27 26
34 34 32 31 31 31 30 28 30 29 32 32 31 29 23 27 30 29 26 27 26 27 29 31 31 28 28 27 27 26 24 24 25 25 27 28 28 28 26 27 27 27 26

GFSGL_500_spd_045.txt.gz
Wind_Speed
12 12 16 19 24 24 24 26 24 23 18 17 17 18 16 15 13 13 9 8 10 13 14 14 14 13 13 12 13 16 15 12 12 15 16 17 17 16 18 22 23 24 27
16 17 16 19 21 23 23 25 26 26 23 21 20 21 20 18 17 16 16 15 15 15 16 18 17 16 17 14 14 14 15 18 19 16 15 15 17 19 21 25 28 29 33
20 20 19 19 20 18 17 15 15 17 20 22 22 23 21 20 19 19 18 20 19 19 19 22 21 23 23 24 21 18 17 21 23 25 24 21 21 22 23 25 27 33 37
24 22 21 19 18 18 19 16 14 13 15 19 22 24 23 22 20 21 20 22 23 24 23 25 29 28 28 29 20 19 20 24 25 26 28 28 30 28 27 29 31 35 40
24 26 22 21 22 23 21 17 17 14 13 14 20 25 25 23 22 23 23 25 27 29 30 29 31 35 33 36 42 23 24 28 32 36 38 34 33 32 34 36 35 38 40
25 25 25 27 24 24 22 19 18 15 14 15 16 19 24 24 25 25 27 27 29 32 30 31 34 37 37 40 46 25 29 35 42 39 42 38 35 33 38 39 37 40 45
23 27 29 27 23 24 25 26 22 19 21 17 19 21 21 24 27 29 32 33 32 34 35 36 38 40 42 41 46 37 31 39 46 39 40 39 36 34 40 40 41 45 46
30 25 28 29 24 25 29 28 27 26 25 26 25 26 27 26 27 30 35 41 39 39 42 43 42 46 47 49 55 40 37 36 42 39 41 37 36 38 41 42 45 44 46
24 23 25 25 29 33 29 30 33 33 31 31 27 29 31 33 34 34 37 41 42 43 46 50 49 51 51 56 50 39 38 38 37 38 37 37 37 40 43 43 44 44 43
22 18 21 34 35 36 33 33 36 39 42 42 40 34 32 34 38 42 46 47 49 49 48 52 55 57 60 56 54 50 39 45 41 35 38 37 38 41 41 42 41 39 36
27 31 31 27 35 41 46 51 42 42 49 49 49 41 37 35 38 42 52 62 58 58 58 57 58 63 67 67 49 37 33 36 32 37 37 37 39 39 39 39 36 32 31
38 37 36 33 35 40 46 43 48 58 51 65 45 41 46 49 41 47 51 58 61 64 59 64 66 72 73 73 71 56 34 33 32 35 36 39 38 37 37 35 29 27 30
43 40 38 38 42 44 45 46 45 44 59 57 55 44 40 41 47 44 50 55 63 68 74 78 87 74 65 64 54 29 25 34 32 30 35 36 37 35 33 30 24 27 30
40 38 42 39 38 41 39 43 46 51 51 58 55 45 51 54 61 58 58 58 65 68 73 54 46 84 80 53 62 28 20 28 27 29 33 35 35 33 31 25 24 27 29
42 45 46 44 44 44 44 48 50 48 48 50 55 58 58 60 61 62 64 70 69 72 82 62 52 42 52 50 24 13 21 27 25 30 31 34 33 30 29 24 25 27 28
48 50 51 52 53 52 50 50 48 48 53 55 61 59 58 61 65 67 67 70 70 74 63 49 59 35 19 20 10 16 22 24 27 28 29 31 29 29 26 23 24 25 27
42 44 44 43 42 44 44 46 50 50 49 51 55 58 59 64 66 70 73 73 73 77 75 71 54 35 20 8 16 19 22 27 27 26 28 27 26 25 21 21 22 24 27
46 45 45 46 46 48 48 50 49 44 45 50 54 59 65 71 72 71 67 68 71 76 77 64 51 29 11 18 17 19 25 26 26 26 26 24 23 22 20 21 21 23 25
49 50 51 52 49 48 44 45 44 46 50 48 49 53 61 68 72 71 66 55 57 31 16 18 16 8 15 19 22 24 25 25 26 25 24 22 22 21 21 21 21 23 25
54 55 53 47 45 45 44 43 46 48 45 45 46 49 44 33 33 38 20 15 12 13 12 4 9 14 20 24 24 25 26 25 23 22 22 23 22 22 21 19 22 23 24
51 53 51 51 49 46 44 46 46 45 44 43 43 37 24 11 13 8 10 13 19 20 17 14 20 18 22 26 26 27 24 23 21 22 23 23 23 22 20 20 22 23 25
54 57 57 48 48 44 44 43 41 41 39 35 31 24 21 15 17 13 14 18 21 23 21 22 22 22 25 28 27 25 24 23 24 25 24 22 22 21 22 23 22 24 25
37 33 35 37 39 40 37 38 42 40 36 33 30 29 22 18 20 22 24 27 28 26 25 25 22 24 26 26 26 27 25 24 26 26 23 22 23 23 25 25 24 25 25
42 37 39 38 36 37 38 40 41 38 34 33 30 31 25 18 22 24 27 27 25 24 23 23 22 25 25 27 27 26 24 24 26 26 25 26 26 25 26 26 25 25 23
36 39 40 40 40 42 40 40 39 37 38 41 31 28 27 33 37 39 33 28 26 24 22 21 23 26 28 27 25 24 25 26 27 28 29 28 27 26 26 26 26 24 23
38 39 38 39 41 39 41 40 37 36 35 36 35 30 32 34 34 34 30 24 27 27 26 26 26 27 29 28 28 29 29 29 30 31 31 30 28 27 28 28 25 24 23

GFSGL_500_spd_048.txt.gz
Wind_Speed
16 15 15 18 21 23 23 24 21 22 19 19 20 19 19 17 14 13 14 11 13 13 14 13 15 15 14 16 16 15 14 12 13 13 16 18 19 21 21 20 22 25 27
19 18 14 14 15 16 18 22 23 21 22 23 24 23 19 20 17 15 16 17 16 18 17 17 17 19 19 18 20 21 22 17 18 19 16 20 25 28 28 30 29 31 33
24 24 20 14 13 13 16 20 20 18 19 22 23 25 23 22 20 17 16 18 20 22 23 22 23 23 23 24 24 23 22 24 22 22 20 23 26 28 29 33 33 34 37
26 29 26 19 16 13 15 16 13 15 14 15 16 19 23 22 23 19 16 16 18 23 24 25 27 27 29 27 28 27 24 31 29 27 30 28 29 28 31 34 34 37 36
24 25 20 19 18 17 16 15 14 13 13 14 15 14 17 20 21 20 18 19 19 22 25 24 27 29 30 30 30 33 35 32 31 33 30 37 27 29 34 37 38 38 40
15 11 19 22 23 21 20 19 17 17 14 12 11 13 14 15 16 18 21 23 22 23 26 25 29 31 33 36 36 38 41 40 43 31 35 41 35 33 33 40 38 37 41
23 19 20 18 21 25 24 23 21 21 21 18 16 15 16 18 19 21 24 28 29 29 33 33 34 36 41 42 45 45 46 47 52 41 35 39 37 35 37 36 37 41 42
25 22 19 19 22 27 28 24 25 25 26 24 23 24 23 21 23 25 30 33 31 31 34 39 42 43 44 48 48 47 53 52 52 50 44 46 39 38 39 36 39 41 40
37 28 25 25 27 28 28 25 26 29 31 31 32 32 32 28 29 32 36 39 41 42 41 43 48 50 50 53 56 54 55 58 57 56 59 50 46 42 42 40 40 39 42
37 28 28 27 25 23 28 34 36 38 36 35 38 40 40 41 43 37 36 39 45 51 51 43 51 55 58 59 57 63 65 70 57 56 47 44 37 34 40 41 39 41 44
33 31 31 28 26 25 27 32 35 38 42 46 49 46 50 48 49 52 47 49 56 49 40 37 45 44 59 62 68 73 74 70 67 63 59 40 39 37 42 42 38 41 41
31 30 32 29 30 33 34 37 38 42 50 57 54 53 54 51 41 47 47 41 42 52 49 43 54 55 63 68 68 73 73 70 73 68 55 39 45 37 40 38 37 40 37
32 32 33 34 38 39 39 41 39 42 45 49 48 50 50 48 50 48 47 51 48 47 51 50 56 60 64 68 69 72 65 70 70 51 22 36 37 36 39 34 37 36 33
35 38 40 43 41 40 42 42 43 46 49 50 50 50 49 48 49 50 52 53 49 53 62 60 64 66 70 72 70 71 48 54 59 53 24 35 36 35 33 32 35 33 30
41 42 44 43 41 42 44 45 41 43 45 48 52 51 54 54 52 53 57 60 60 63 70 72 70 70 74 72 72 69 68 48 47 30 29 35 32 31 29 32 32 30 29
39 41 42 44 45 47 48 48 47 48 50 53 56 56 55 52 52 55 60 62 67 74 73 74 74 72 72 75 72 70 63 33 26 26 35 28 28 27 29 30 28 26 26
37 40 44 45 44 43 47 51 53 56 54 53 54 54 54 56 51 50 53 55 58 63 69 73 74 75 69 66 67 58 22 23 26 27 24 25 26 27 28 28 24 25 24
38 38 39 43 47 47 48 50 51 52 53 56 55 52 48 46 49 53 52 54 59 65 70 69 69 72 70 62 50 36 31 32 26 23 23 25 25 27 26 24 22 23 23
41 40 41 42 45 46 47 48 48 51 51 51 46 41 43 50 50 48 51 56 60 61 50 41 43 41 30 17 13 22 30 32 26 25 25 24 23 26 24 22 20 22 24
47 46 46 46 46 44 47 50 52 52 53 50 48 47 49 50 45 43 45 52 44 34 18 12 7 7 5 9 22 27 27 27 25 24 24 24 25 24 22 20 20 23 25
52 53 52 53 51 54 55 58 59 56 53 51 48 48 49 46 41 40 37 35 17 10 15 13 12 10 13 19 24 26 29 25 25 24 24 26 25 23 21 21 22 24 26
62 59 56 55 57 55 57 56 60 58 55 49 48 49 45 40 38 37 31 31 19 19 19 18 18 19 24 26 27 28 26 26 26 26 26 26 26 24 22 24 24 26 29
64 61 54 55 57 58 56 56 52 45 44 44 43 43 43 40 35 35 36 33 30 28 27 25 28 29 30 33 33 31 28 26 26 26 26 26 27 25 26 26 27 29 29
42 49 51 52 56 57 51 43 37 39 41 41 41 43 42 41 35 35 38 38 30 30 27 30 31 35 32 32 30 28 27 27 27 27 26 27 27 27 28 29 29 30 29
45 45 45 45 45 46 45 43 42 46 47 47 46 43 41 41 37 37 35 37 38 38 38 37 32 32 30 29 27 26 27 29 28 27 27 27 27 29 30 31 30 30 32
46 41 39 38 41 43 44 42 42 44 49 48 47 44 43 45 44 42 43 40 41 41 42 39 36 34 30 28 27 27 29 31 28 26 28 30 29 29 30 32 33 34 33

GFSGL_500_spd_051.txt.gz
Wind_Speed
19 17 16 16 16 17 19 20 21 20 16 15 16 17 15 14 15 14 14 16 12 12 12 11 13 14 16 18 18 19 21 25 21 22 21 20 18 23 26 27 26 28 29
20 19 17 16 12 12 12 16 20 20 19 17 17 18 19 18 17 18 15 15 17 16 17 18 19 19 20 21 21 22 21 22 22 24 28 28 26 29 34 34 32 33 33
19 21 19 19 14 13 11 11 12 13 15 16 15 18 21 21 19 19 18 14 13 16 19 19 21 22 24 24 25 24 25 25 24 26 32 33 32 34 33 32 35 37 35
20 17 20 24 21 19 17 13 10 11 12 13 13 13 15 16 15 15 18 16 16 19 19 18 22 22 25 27 24 27 29 31 31 30 33 37 40 44 39 34 32 37 38
18 14 17 18 21 20 16 13 12 12 13 13 11 10 10 9 8 10 13 19 19 20 19 20 21 22 23 24 27 27 32 35 40 41 43 40 46 40 42 37 35 37 41
17 12 13 14 15 16 18 17 14 14 16 12 9 8 8 7 8 10 14 16 20 24 23 24 26 26 28 29 30 32 34 37 40 43 44 43 47 41 36 43 42 38 40
19 19 16 13 13 15 17 17 17 17 19 15 14 14 14 14 15 16 19 22 24 25 27 30 32 34 33 38 39 40 39 40 45 49 52 53 51 49 52 50 43 41 44
27 22 23 17 15 15 16 17 20 22 21 19 20 20 21 20 22 23 25 27 29 31 33 36 39 39 39 43 46 49 48 50 47 53 59 61 56 53 55 52 36 41 35
33 26 24 25 22 23 21 22 24 25 25 21 22 25 27 29 29 31 33 34 36 42 41 44 49 51 44 50 52 52 46 54 60 56 64 66 60 54 47 32 36 42 37
35 36 34 33 33 32 26 27 28 29 29 28 29 28 30 32 35 35 38 45 46 49 49 42 48 53 46 42 40 45 56 58 64 74 70 71 63 54 54 47 42 49 43
41 43 43 40 34 32 29 30 26 24 26 27 31 34 37 38 45 44 48 38 42 37 40 45 39 41 38 46 47 52 60 67 78 61 56 65 68 74 71 60 47 52 45
41 42 37 37 36 33 31 32 31 30 30 31 33 38 39 41 49 48 46 46 46 46 52 48 44 50 48 46 48 55 61 70 61 56 62 64 37 36 45 48 36 45 37
32 33 35 36 33 32 33 35 34 32 33 35 40 42 42 43 47 47 48 49 54 53 59 56 46 50 53 57 58 59 63 69 68 64 63 64 58 48 49 30 36 34 31
35 34 35 35 36 35 36 36 34 37 40 42 42 43 45 48 52 55 52 54 53 58 54 54 56 60 62 62 68 71 70 69 70 61 61 65 56 48 31 30 35 32 29
37 39 39 38 38 38 41 42 40 43 42 45 47 46 47 47 50 52 53 57 57 53 57 59 62 65 69 73 75 74 74 67 64 59 61 61 42 24 26 34 31 29 27
38 40 42 43 44 45 46 46 48 47 46 47 49 53 51 51 52 56 60 60 54 55 55 58 59 62 65 66 69 70 72 70 62 58 54 28 25 21 29 29 31 24 24
39 41 42 43 42 45 47 49 50 50 49 50 51 52 51 53 58 60 59 54 57 56 57 61 64 62 62 65 70 64 57 50 45 36 22 16 21 29 27 30 26 22 23
39 37 39 42 43 46 48 50 49 51 52 52 54 56 57 57 58 60 60 48 49 52 55 53 57 61 66 65 56 48 40 31 21 15 27 22 23 27 29 26 23 22 25
41 42 43 43 44 46 47 49 53 56 59 57 56 57 57 60 62 61 51 51 51 52 51 52 53 55 48 33 27 19 12 10 13 12 24 26 28 27 26 24 23 24 26
45 48 48 48 48 46 47 49 51 52 53 56 57 57 57 60 62 58 54 51 49 48 47 50 47 36 16 12 3 1 17 14 19 24 27 30 27 28 24 24 24 25 28
53 54 53 53 52 52 53 54 54 55 55 56 52 52 57 57 56 59 56 50 44 40 41 43 40 28 20 15 19 8 17 21 26 30 32 30 30 27 24 25 26 26 26
57 57 58 57 57 56 56 58 59 58 59 59 58 59 59 61 63 55 49 44 42 41 40 40 40 34 24 24 21 20 23 25 29 32 31 31 30 28 28 28 28 26 26
61 60 61 61 62 62 61 62 62 63 63 63 68 66 63 60 46 40 40 40 41 39 40 41 44 44 28 24 22 30 31 31 32 32 32 32 31 30 30 29 28 28 28
61 63 63 62 62 64 64 64 61 64 68 71 66 61 57 50 40 38 39 42 42 40 44 40 42 40 31 25 28 34 36 34 35 36 34 34 33 30 30 29 28 29 30
61 61 64 66 68 68 72 63 60 59 62 67 61 52 52 50 43 42 43 43 42 41 41 42 40 38 39 38 34 36 34 35 35 34 34 33 32 30 30 27 28 30 31
63 66 73 73 72 53 50 52 54 52 44 44 44 45 51 52 46 45 46 45 45 47 47 46 47 49 45 40 39 38 36 34 32 31 31 32 32 30 28 27 29 32 31

GFSGL_500_spd_054.txt.gz
Wind_Speed
17 15 12 12 12 12 12 14 16 16 14 14 16 14 13 10 8 10 11 8 11 14 12 12 13 15 15 17 19 21 21 21 22 21 20 25 28 28 30 33 35 32 33
20 17 15 13 12 9 9 12 13 14 14 15 15 16 14 14 12 10 10 13 13 14 15 15 15 16 18 18 21 22 21 21 21 22 24 26 29 34 37 35 42 39 35
20 16 14 14 15 13 11 9 10 8 9 11 12 15 18 16 14 13 14 15 16 13 14 16 16 17 19 21 21 22 24 24 26 28 30 30 28 34 36 41 42 40 38
19 17 15 14 15 18 19 15 13 11 10 9 10 11 10 8 8 10 11 13 14 15 17 17 17 17 19 22 24 24 26 26 29 32 36 39 36 40 39 42 43 43 39
21 17 13 14 15 17 19 16 11 11 11 10 9 10 10 7 7 10 12 15 16 17 18 17 16 19 21 23 26 29 30 32 33 36 40 43 47 48 47 48 49 48 43
21 15 15 15 15 10 11 10 10 10 11 11 11 11 8 7 7 10 13 15 16 18 19 19 19 22 25 29 30 35 38 40 42 43 43 47 52 54 56 51 50 50 49
23 17 16 16 12 10 10 9 9 11 12 12 13 14 13 12 12 14 16 17 18 19 21 23 28 29 31 33 36 40 46 45 43 50 57 54 56 60 64 63 50 53 55
23 20 16 15 15 14 13 11 12 13 13 14 16 17 16 16 17 19 21 23 24 26 28 28 35 38 39 39 45 49 40 39 40 48 51 58 62 68 70 66 65 63 59
27 24 21 20 18 17 16 17 17 18 18 18 20 20 16 14 15 19 25 30 32 35 32 38 33 31 34 39 45 42 40 42 48 54 59 54 65 48 44 50 43 50 40
27 29 30 26 26 22 23 25 26 25 24 25 24 21 20 17 18 22 26 31 39 38 35 34 32 38 33 34 40 42 41 39 44 55 62 68 64 61 66 54 52 37 49
31 34 33 32 32 34 34 34 29 28 28 25 22 21 22 20 22 24 28 35 36 40 40 41 41 44 44 49 47 50 44 47 49 53 57 63 62 55 64 52 50 35 34
35 34 37 37 39 38 35 33 30 30 31 28 25 25 25 26 27 28 33 36 38 42 41 44 47 51 49 49 51 54 56 57 59 62 61 63 62 52 59 43 44 37 25
31 32 34 35 36 39 35 33 32 32 32 31 32 31 29 32 31 33 36 39 43 44 44 50 50 51 46 50 54 57 62 64 67 68 67 64 61 64 63 44 43 19 23
28 31 31 32 33 33 33 33 32 33 33 33 34 35 34 35 38 40 41 41 43 45 49 50 53 53 51 55 57 61 63 64 63 65 66 66 66 61 46 37 21 18 23
33 33 33 32 34 35 38 34 35 37 36 36 36 39 38 40 42 42 44 44 48 49 53 55 58 53 54 53 57 59 64 65 64 65 67 62 53 54 36 20 17 16 21
36 35 36 37 36 38 40 41 42 41 41 42 41 43 43 45 46 48 47 48 50 51 57 59 57 52 50 51 56 58 56 63 65 69 57 59 56 35 27 22 16 21 26
38 39 39 40 41 40 40 42 44 42 42 45 46 47 49 49 49 51 52 53 56 59 60 58 58 58 54 54 55 53 57 56 51 62 54 52 30 22 19 12 16 22 25
43 42 42 43 44 43 44 42 43 44 46 46 49 49 50 51 52 55 57 60 62 61 59 61 62 60 55 54 48 50 47 48 51 52 44 35 17 21 24 19 24 25 24
45 46 47 45 44 44 46 47 45 46 47 48 51 52 54 56 56 59 62 60 61 61 62 61 59 56 50 44 44 39 40 29 35 27 19 20 21 18 18 23 24 27 25
44 45 46 46 48 48 46 48 48 51 53 54 55 55 57 59 57 55 56 57 55 55 55 57 62 48 41 39 38 37 40 30 29 14 7 10 18 20 18 21 24 26 26
48 49 51 49 50 52 52 54 56 57 58 59 55 55 56 58 57 58 60 58 58 57 61 61 51 42 39 35 34 36 34 29 20 21 21 26 27 23 24 28 30 25 29
55 58 58 59 60 60 60 61 63 63 61 60 57 58 60 60 59 62 61 63 62 64 61 52 42 39 36 31 35 35 29 25 21 17 19 26 29 33 34 32 31 29 28
60 62 61 63 64 65 65 65 64 62 59 59 59 61 63 64 64 63 66 65 67 59 55 49 41 38 35 34 34 35 38 23 21 30 31 31 34 35 34 31 30 30 28
58 62 66 68 67 65 62 63 63 62 61 63 65 68 68 68 68 66 66 70 65 60 53 47 41 38 36 36 34 33 32 31 33 37 36 34 32 31 31 30 30 31 30
65 68 68 65 64 66 67 65 67 67 65 66 68 67 68 70 75 68 64 59 56 50 49 48 48 41 37 37 37 35 39 38 40 42 41 38 38 34 33 30 30 30 31
61 62 61 61 61 60 60 63 64 67 67 67 71 69 63 59 58 57 53 46 45 48 53 52 47 44 45 44 39 42 44 45 43 43 40 39 38 37 34 32 31 31 32

GFSGL_500_spd_057.txt.gz
Wind_Speed
16 16 15 13 14 12 12 13 15 15 15 13 16 13 9 8 9 8 10 11 11 11 11 11 11 12 12 14 15 18 21 21 21 17 20 25 26 24 26 28 31 33 35
20 18 16 16 12 10 9 9 7 8 10 12 13 13 11 10 11 13 14 11 11 12 12 13 14 14 16 17 19 19 21 22 25 30 29 29 30 33 34 36 38 38 39
19 17 16 13 12 9 10 7 3 4 7 8 10 13 12 11 12 14 14 12 11 13 12 12 14 15 16 16 19 20 23 24 25 28 34 35 37 39 41 43 46 49 48
20 18 16 15 12 12 14 12 11 11 10 10 10 9 7 7 9 9 9 9 10 12 13 12 13 13 16 19 21 23 25 27 31 32 35 40 39 41 43 47 50 53 55
21 20 19 15 15 15 13 13 15 13 10 11 10 8 6 6 7 5 5 7 10 10 10 11 13 17 20 22 26 29 30 32 34 40 44 45 48 47 47 49 50 54 61
22 21 16 16 18 13 12 12 11 10 9 9 10 9 8 8 5 3 3 6 8 8 8 8 11 14 18 24 29 33 38 40 40 39 39 43 43 46 52 54 55 57 48
23 20 16 17 13 11 14 13 11 12 12 10 8 10 12 10 7 7 8 8 8 11 14 14 16 19 23 24 31 34 37 41 46 45 43 44 45 48 53 58 56 50 50
28 24 19 18 15 13 14 11 11 11 10 9 10 11 12 11 12 13 14 14 14 14 16 19 19 22 27 25 30 29 32 34 40 44 47 49 49 52 57 61 58 53 39
27 24 24 20 17 14 14 13 13 13 14 15 16 14 14 14 16 15 16 17 16 14 20 25 25 23 25 28 33 34 36 42 42 43 44 45 51 60 61 72 61 43 35
23 24 27 25 20 16 15 17 17 15 15 22 20 19 16 16 17 18 19 22 21 21 24 27 27 30 32 33 37 40 43 45 48 46 47 46 49 56 62 64 63 58 44
23 26 27 28 26 24 23 23 23 24 25 24 25 21 19 18 22 21 23 26 24 24 27 28 30 33 35 35 39 40 43 48 49 50 50 52 56 58 62 63 61 43 49
24 21 23 25 28 29 28 29 30 30 30 27 26 24 22 20 20 23 27 27 28 27 30 31 33 35 36 41 43 44 47 51 53 55 59 56 58 60 61 67 70 42 38
34 32 33 33 34 35 35 35 36 35 32 30 30 29 26 27 28 28 28 29 30 31 34 37 38 39 42 45 46 46 44 46 52 60 61 61 59 58 58 60 47 53 34
36 35 35 36 35 36 37 37 37 37 33 30 30 29 29 29 29 31 31 31 31 35 38 40 40 44 47 49 51 48 48 47 55 63 62 58 60 63 57 52 24 31 32
27 30 33 34 35 34 33 30 30 30 30 30 30 31 31 31 31 33 34 33 36 40 43 43 44 48 50 52 53 53 55 54 60 61 57 56 63 63 41 40 42 35 23
32 33 34 34 34 34 33 32 32 32 33 33 35 36 35 36 37 37 37 38 41 44 45 48 50 52 52 54 52 57 55 54 52 49 50 54 49 18 41 53 44 36 17
37 37 37 38 38 37 36 36 37 35 36 37 38 39 40 40 41 41 40 43 48 48 49 52 54 55 57 55 53 53 52 51 47 44 40 44 43 44 41 51 35 20 16
39 39 38 40 41 40 38 39 40 41 41 41 42 42 43 43 44 43 45 48 48 52 53 55 56 57 55 54 53 59 53 44 39 38 38 38 43 29 27 20 13 13 11
42 42 43 43 43 42 41 42 43 43 44 46 45 45 46 47 47 48 51 53 53 54 57 57 57 59 59 58 57 59 49 39 38 35 35 31 23 25 17 11 11 15 14
47 47 47 47 48 48 48 48 47 47 46 47 48 48 50 48 50 53 54 54 55 56 56 55 59 61 60 56 57 50 45 37 33 31 32 30 31 32 16 16 18 17 17
52 52 53 53 53 52 52 50 48 48 48 49 50 51 53 54 54 56 55 55 58 59 59 60 64 63 63 60 52 46 44 37 32 30 29 29 25 21 19 20 22 26 29
49 49 49 50 50 51 52 52 52 52 52 52 54 56 57 57 58 57 57 61 62 62 63 64 64 64 59 59 51 43 42 38 30 29 28 27 26 25 27 29 32 37 36
56 57 58 58 59 59 58 57 57 57 57 57 59 61 61 60 59 60 62 63 65 65 65 69 69 64 62 57 48 41 41 39 34 31 30 25 27 30 31 30 31 34 35
58 59 58 58 61 61 62 63 62 62 63 63 63 62 62 64 65 65 65 66 65 66 70 68 67 65 57 53 47 42 42 39 35 34 33 33 34 37 37 37 36 31 30
59 58 57 60 63 65 68 70 70 71 71 71 69 68 66 66 68 68 68 68 67 69 69 63 56 55 49 44 42 43 42 39 37 38 39 39 39 43 43 39 36 35 33
58 62 60 61 66 68 70 71 72 71 70 68 69 70 70 70 71 71 70 70 69 67 67 66 62 51 47 48 47 45 44 44 43 43 42 42 43 39 38 38 38 37 35

GFSGL_500_spd_060.txt.gz
Wind_Speed
20 22 22 20 18 16 16 14 14 14 14 15 15 10 10 10 10 11 9 10 10 9 9 8 11 12 14 15 16 17 19 21 23 23 26 30 34 36 38 38 38 37 40
23 21 21 21 19 17 14 13 10 10 11 17 18 14 14 14 13 11 11 11 11 11 8 8 8 11 14 15 17 18 20 21 23 26 28 31 33 37 38 41 44 43 44
23 24 23 21 19 14 11 9 6 4 3 6 13 14 12 11 11 12 11 10 11 11 9 9 9 7 8 10 13 16 20 22 24 26 33 34 34 34 35 40 40 39 41
21 23 23 21 16 13 13 13 12 9 6 6 8 8 6 7 9 8 8 7 7 7 6 6 6 6 10 11 13 15 19 23 29 31 33 36 36 38 37 42 42 45 47
22 23 22 20 18 16 16 16 16 14 12 9 8 10 9 8 7 4 3 3 2 2 2 2 3 6 10 14 19 23 24 29 32 34 37 38 40 40 41 45 46 47 49
24 24 24 21 18 19 16 15 14 14 11 10 8 7 9 7 6 7 7 4 3 2 1 3 5 9 14 17 25 27 26 30 30 33 36 35 38 39 41 44 48 51 51
28 27 26 22 19 17 15 13 14 14 13 12 10 9 9 7 9 10 8 7 5 5 7 8 10 12 15 16 20 20 24 28 35 39 40 42 44 42 45 50 51 55 55
30 29 25 20 18 16 14 13 15 14 14 11 10 9 10 10 10 11 10 8 7 9 11 12 8 14 19 20 22 24 26 29 32 39 46 44 48 46 47 48 52 56 60
32 29 24 20 19 18 15 16 16 13 12 11 12 12 11 13 15 15 13 12 11 12 13 16 18 17 21 25 28 29 31 31 34 40 47 50 49 49 50 53 56 61 62
35 33 31 28 24 21 20 19 18 18 18 18 17 17 17 18 18 20 19 18 15 16 17 19 21 23 24 26 29 32 30 33 34 37 40 44 48 52 54 57 59 63 62
40 39 38 36 33 29 25 22 22 21 21 19 18 20 18 18 19 20 25 24 21 21 22 23 24 25 26 29 32 34 35 41 40 41 38 37 50 56 60 61 63 62 55
33 34 31 32 35 34 31 29 27 27 26 25 23 22 23 20 20 21 23 25 25 25 27 28 29 28 29 32 35 38 42 44 48 50 48 46 51 57 57 55 56 66 60
34 32 30 31 31 32 34 36 33 32 31 31 30 29 26 26 24 26 27 28 29 29 30 30 30 29 32 37 40 42 45 47 51 52 48 50 55 55 56 55 60 52 33
39 37 37 35 38 40 41 42 41 40 39 37 37 34 32 33 30 29 31 32 33 33 35 37 35 36 37 41 44 47 50 50 53 52 51 57 57 56 53 51 55 32 35
34 33 35 37 42 45 45 46 45 44 42 40 38 37 36 34 34 32 31 33 35 35 37 39 38 40 42 43 47 49 51 52 52 54 55 55 55 50 50 48 54 40 42
33 35 39 47 48 45 41 37 35 36 35 35 35 34 33 33 35 35 35 37 38 39 41 41 41 43 45 47 49 51 53 51 54 52 54 52 45 46 49 41 43 36 47
32 32 36 43 46 44 41 36 34 34 33 33 33 33 33 34 36 37 39 41 41 43 42 43 45 47 48 50 52 52 52 53 52 53 50 46 44 44 41 37 42 29 16
37 36 35 36 39 40 40 39 38 38 38 37 36 36 36 38 39 40 41 42 44 44 45 47 49 48 51 53 53 52 56 57 54 52 50 43 38 39 37 36 32 11 9
40 39 40 40 40 41 42 42 43 43 42 41 41 41 42 44 43 44 45 47 47 47 50 50 49 53 53 53 53 56 58 56 54 50 46 41 37 36 32 31 17 19 20
47 45 44 43 42 43 43 43 44 45 45 46 46 46 46 47 48 48 49 48 49 50 51 51 53 54 54 54 57 58 59 59 56 51 42 38 37 34 29 27 21 16 15
53 51 49 49 49 48 48 48 49 49 49 49 50 51 51 50 49 50 51 51 51 53 53 54 55 54 55 58 58 61 62 59 53 54 42 37 38 37 30 29 26 26 25
55 56 54 54 53 52 53 53 54 53 54 54 53 54 54 53 53 53 54 55 56 55 56 56 56 59 58 56 59 63 61 58 55 48 41 39 38 37 34 31 31 30 30
56 59 59 59 57 58 60 59 60 59 58 55 54 54 54 55 56 57 58 59 59 59 59 60 61 59 59 61 61 62 61 58 51 47 39 38 39 39 37 33 33 36 37
62 61 60 61 61 58 59 59 57 57 57 57 59 59 60 61 61 61 62 62 62 62 61 62 61 61 63 64 64 63 59 60 54 46 40 39 40 40 40 39 38 39 41
64 62 61 62 62 63 63 61 63 64 62 63 65 66 66 67 67 66 64 65 65 65 65 65 65 67 66 66 65 64 64 62 54 46 43 42 40 41 42 43 44 44 45
61 62 63 64 65 66 67 65 65 66 66 67 69 70 69 69 69 68 67 68 67 64 64 68 69 66 61 60 60 63 66 59 50 46 44 44 43 42 44 43 44 45 45

GFSGL_500_spd_063.txt.gz
Wind_Speed
24 23 23 23 21 17 17 15 12 10 11 12 12 11 11 10 10 8 7 7 7 6 6 5 5 4 5 5 6 6 8 12 16 17 21 25 30 31 33 36 36 37 37
24 25 25 25 20 19 17 14 11 11 12 14 15 14 13 13 11 10 9 9 7 7 7 7 4 4 3 4 5 8 10 13 17 22 26 28 30 31 33 34 36 38 42
26 26 26 24 22 21 17 13 9 8 8 8 12 13 12 13 12 10 10 11 10 8 7 7 4 2 1 2 6 9 14 17 20 23 25 27 28 28 30 34 36 38 41
25 26 27 26 25 22 18 13 13 12 9 7 9 7 7 9 10 11 12 11 10 5 3 3 3 3 3 5 8 13 19 21 21 23 21 23 29 33 37 38 38 38 40
21 24 27 29 27 23 19 17 18 16 14 11 10 11 9 9 11 11 10 8 8 5 5 6 7 6 6 9 13 17 21 19 19 24 24 25 29 35 39 43 44 44 43
24 26 30 30 26 23 21 20 17 18 17 16 14 16 12 10 10 12 12 12 10 8 7 6 6 7 10 14 17 16 20 20 24 27 28 30 34 41 46 50 50 48 47
25 30 30 29 27 25 24 19 18 18 18 16 15 13 13 12 12 13 14 13 11 10 10 11 11 11 13 17 19 19 20 25 29 34 32 36 39 45 50 51 53 55 56
29 30 30 29 28 26 21 17 18 18 16 17 15 14 13 12 13 15 17 15 14 14 13 12 13 14 16 18 22 20 23 25 32 34 37 36 41 45 50 52 54 57 60
33 33 32 29 26 23 19 18 19 18 16 15 16 15 13 12 12 15 17 17 17 17 15 14 15 15 17 21 23 25 25 26 30 34 38 39 43 46 49 56 59 60 60
37 36 34 31 29 26 24 23 25 22 19 17 14 13 14 15 17 18 16 18 18 18 19 18 18 19 22 24 27 27 26 30 33 34 36 38 43 44 47 54 58 62 60
35 41 38 36 33 31 31 28 26 25 23 20 18 18 15 17 17 20 22 20 20 24 22 22 22 23 25 29 31 30 31 34 35 37 39 43 41 39 46 52 58 57 51
25 37 42 41 37 34 31 30 28 27 25 25 22 21 17 17 17 18 21 22 23 23 23 23 23 26 28 31 33 33 35 38 39 41 43 46 48 45 50 53 50 47 48
28 31 41 44 41 39 34 32 32 32 29 29 29 27 24 24 24 26 27 25 27 27 26 26 28 30 32 35 37 37 39 41 42 44 47 46 53 52 52 52 48 44 45
35 37 37 37 41 42 43 42 42 40 37 36 34 33 31 32 32 32 33 34 30 31 31 32 31 35 37 39 39 40 41 44 45 46 48 48 51 54 53 51 49 45 43
38 40 42 43 44 43 43 47 47 47 46 45 42 41 39 38 39 40 38 36 35 34 36 34 35 38 40 41 41 42 44 46 48 48 48 52 53 53 52 49 47 44 45
36 42 45 46 45 44 45 49 51 51 49 50 51 51 50 48 43 40 39 38 39 39 38 37 38 39 41 43 44 44 46 47 49 51 49 52 53 53 50 46 44 41 40
33 33 36 42 46 49 53 55 54 52 53 52 52 50 46 43 42 40 40 39 39 38 39 40 40 42 44 45 46 46 47 49 51 51 51 52 54 49 46 41 42 40 40
38 37 35 35 39 43 46 50 50 48 45 39 37 39 39 38 39 39 40 40 39 40 40 41 42 44 46 47 47 48 48 50 50 51 54 55 51 47 46 41 37 39 35
40 40 37 36 37 37 38 44 48 49 46 43 41 40 39 39 41 41 41 41 41 42 43 44 45 46 47 47 48 48 48 51 50 52 56 56 54 47 44 37 33 33 34
47 45 42 39 38 38 37 38 42 46 46 45 44 44 44 44 44 44 44 45 44 44 46 47 48 48 48 49 49 49 50 51 53 54 55 56 52 49 41 37 37 36 33
53 50 49 47 46 44 42 40 41 44 46 46 45 45 46 46 48 49 49 47 48 50 50 50 50 49 50 50 51 53 53 54 55 55 55 53 51 49 47 37 38 39 36
57 56 54 52 51 50 48 46 45 46 47 48 48 48 49 50 52 53 52 52 54 55 55 54 53 53 54 54 55 55 56 57 57 56 56 52 50 48 45 39 36 36 37
57 58 57 56 54 54 54 54 52 52 51 52 52 52 53 54 55 56 57 58 58 58 57 56 56 56 57 59 60 58 60 59 58 59 53 50 50 47 45 39 36 36 38
52 53 55 57 55 55 56 56 57 57 57 58 58 59 60 61 62 62 61 60 58 58 59 59 60 61 62 62 61 62 63 63 64 56 53 51 49 46 48 41 39 37 37
58 56 55 59 59 58 58 58 58 59 61 61 62 63 62 62 61 61 61 62 63 64 66 66 65 65 64 63 65 67 68 67 61 57 54 53 55 49 46 42 40 39 40
62 58 57 62 64 65 66 64 63 66 68 68 72 69 68 68 66 66 67 68 68 68 68 68 69 69 68 69 70 68 65 62 60 56 54 55 54 50 44 43 42 43 44

GFSGL_500_spd_069.txt.gz
Wind_Speed
38 36 33 28 25 22 20 19 19 19 17 14 12 10 8 8 7 4 4 5 6 5 3 3 5 5 8 9 7 5 4 6 9 11 14 16 19 21 25 29 33 35 38
38 36 34 32 28 25 24 21 20 20 17 15 14 12 10 9 9 7 5 4 4 5 3 4 3 4 5 7 5 2 5 7 10 13 16 18 19 22 25 28 31 35 39
38 37 35 34 30 28 27 25 23 22 19 16 14 14 13 11 9 9 8 7 7 7 7 6 7 7 8 7 4 2 4 9 12 8 12 17 19 25 26 29 32 37 39
36 35 34 34 33 32 30 27 26 23 20 17 15 13 14 14 12 10 11 11 11 11 11 10 10 11 11 9 7 6 8 11 11 10 11 16 19 22 24 28 31 35 39
34 33 32 35 37 36 32 29 28 23 22 19 15 11 11 13 14 14 14 13 12 12 12 12 12 15 13 11 9 10 10 11 12 12 13 14 19 24 26 30 31 35 40
33 32 35 37 38 37 35 32 30 26 24 21 16 13 10 11 13 14 14 13 12 13 15 15 14 12 12 10 11 12 12 13 12 13 14 16 20 26 29 32 34 35 38
33 33 33 36 37 38 37 35 31 29 28 25 21 16 15 14 15 15 15 14 14 15 17 16 14 12 11 12 13 14 13 11 12 15 15 18 20 25 30 34 37 42 44
37 33 32 33 35 39 39 36 34 32 30 27 23 20 18 18 16 16 15 14 16 16 17 17 14 12 12 14 14 15 13 13 15 18 19 21 24 28 28 33 36 40 44
38 32 31 33 35 38 38 37 35 33 32 28 25 21 19 20 17 17 14 14 16 17 17 16 16 14 15 15 15 14 14 16 19 21 26 28 30 33 34 32 36 38 39
37 36 34 34 35 35 37 38 37 34 32 31 24 22 22 22 19 17 15 15 15 17 18 18 19 19 20 20 18 18 16 20 21 21 24 27 31 34 35 37 37 37 40
37 40 39 38 37 39 41 42 37 35 32 27 24 22 22 22 19 19 18 16 17 17 19 20 21 22 23 25 25 23 21 21 23 25 26 28 32 36 37 38 40 42 43
37 37 40 42 41 41 42 41 39 35 31 28 26 24 22 23 23 23 21 17 19 19 22 22 23 25 27 28 27 27 26 26 26 27 28 30 32 35 36 35 37 40 41
31 34 37 40 41 40 41 40 39 36 32 29 28 26 26 27 28 27 25 18 16 17 16 17 20 21 24 25 26 28 30 29 29 29 31 32 33 36 37 36 37 39 41
32 34 35 37 38 38 40 40 40 37 32 29 29 29 30 27 31 31 28 26 24 22 21 22 24 24 26 26 27 28 28 30 32 32 33 33 34 36 36 37 38 41 40
31 30 28 29 33 34 37 40 42 39 35 34 34 35 36 36 36 37 36 35 35 36 33 29 29 29 30 30 31 31 31 32 34 36 35 35 36 37 36 36 38 41 40
39 38 36 37 41 30 31 41 42 45 41 40 40 41 41 39 40 40 41 40 40 39 39 37 38 39 36 32 32 32 33 34 36 36 36 36 37 38 37 37 39 41 41
45 49 49 48 27 32 35 33 35 44 48 47 47 47 47 47 47 46 44 44 44 45 44 44 45 45 40 35 33 31 33 35 35 35 35 37 39 39 39 38 39 41 42
54 48 47 34 42 43 40 35 38 43 51 54 55 56 56 51 51 50 48 47 46 48 50 50 49 44 37 33 32 32 34 35 36 35 37 39 39 39 40 39 40 41 42
54 50 42 41 43 45 45 45 46 47 45 47 48 54 56 54 53 52 49 48 50 49 47 46 43 37 34 34 35 36 37 36 37 38 40 40 41 41 42 40 40 42 42
49 50 49 50 47 44 41 39 37 38 38 41 46 45 45 48 50 52 53 54 53 49 42 39 37 37 36 37 38 39 38 39 40 42 43 43 44 43 43 41 42 43 43
47 43 43 42 41 39 37 31 30 31 33 35 38 43 48 51 53 53 51 47 43 38 37 39 39 39 39 40 39 40 42 43 43 44 45 46 45 43 43 43 44 42 44
48 47 44 44 44 41 43 38 33 32 34 37 39 41 42 42 43 43 43 42 41 40 40 40 40 40 41 41 42 43 44 46 48 50 50 48 46 45 47 47 45 44 43
53 52 51 50 50 48 48 48 41 37 36 37 38 42 43 44 44 44 43 42 41 42 42 43 42 43 44 45 46 48 50 51 51 51 50 48 49 50 51 49 48 45 44
62 61 59 59 57 56 52 55 52 46 39 38 38 42 46 46 46 48 48 47 45 45 45 45 47 48 49 50 51 52 52 52 53 53 54 54 55 55 54 51 49 47 47
69 67 66 64 64 63 60 55 55 52 47 44 42 44 46 48 49 49 49 50 49 49 49 50 50 52 54 55 54 55 56 56 58 59 59 59 59 57 53 50 50 50 49
75 74 72 71 71 73 71 65 60 58 59 55 47 49 49 48 50 49 50 52 53 53 54 55 56 57 58 59 59 60 62 64 63 64 65 64 63 59 53 52 52 52 52

GFSGL_500_spd_072.txt.gz
Wind_Speed
39 39 35 32 30 28 23 22 19 18 17 16 15 12 12 11 10 11 11 12 13 12 12 11 11 14 14 12 8 4 3 4 7 8 11 13 16 17 19 21 25 28 30
40 40 37 35 33 28 26 24 21 19 19 19 18 16 15 15 13 11 12 12 10 10 12 13 12 13 14 13 8 4 1 5 10 12 12 15 18 23 24 27 31 33 35
42 40 38 36 34 30 29 28 24 21 21 21 20 19 18 17 15 14 12 13 12 11 11 12 14 13 13 12 8 3 2 6 8 9 12 14 16 20 23 25 27 30 33
42 42 40 37 34 33 32 30 26 23 24 22 21 21 19 18 18 16 16 14 13 12 12 11 13 13 13 12 9 6 4 6 7 7 8 9 13 17 21 23 27 30 31
41 41 39 38 36 36 35 31 29 25 24 24 22 21 19 20 21 20 18 15 13 13 12 12 13 14 11 10 9 5 5 6 7 6 5 9 14 17 22 25 28 31 35
40 39 39 38 38 36 35 34 32 28 27 26 23 21 18 20 22 20 18 16 13 13 15 15 13 12 11 11 9 5 6 8 6 4 5 7 11 15 19 23 27 31 33
40 40 38 37 37 36 37 38 34 31 31 28 26 23 20 19 18 18 17 15 13 14 15 17 14 13 10 10 9 7 8 8 9 6 6 7 10 15 18 22 25 28 32
40 41 38 36 35 38 40 39 37 36 34 31 29 26 23 19 16 17 18 18 15 14 16 16 16 14 11 11 10 9 8 9 8 6 8 10 14 16 19 22 27 29 30
39 40 36 34 35 37 38 38 38 37 36 33 31 28 24 22 19 18 19 17 15 14 16 16 17 16 15 14 10 10 10 11 13 11 12 14 17 20 23 24 27 31 32
32 38 37 35 33 34 36 36 38 38 38 36 33 29 27 25 23 19 18 16 16 15 16 16 17 18 19 17 15 15 13 16 18 17 17 19 23 25 27 29 28 30 33
29 38 39 36 32 33 36 37 37 37 38 35 34 32 29 26 24 21 18 16 17 16 17 18 19 20 21 20 20 19 19 20 21 21 22 23 24 26 27 30 32 32 34
32 34 39 40 38 33 31 33 34 35 37 36 34 31 29 28 27 24 22 21 20 19 21 20 20 20 21 22 22 22 23 23 22 24 26 27 28 28 27 30 32 33 35
36 33 36 41 41 39 36 33 34 36 37 35 36 35 33 31 29 28 26 25 22 17 16 16 15 17 21 21 19 19 22 23 23 25 25 27 29 30 30 30 32 33 34
42 38 36 38 39 40 39 37 34 36 37 37 37 36 34 32 30 28 28 27 26 22 19 19 19 19 18 20 21 20 22 25 26 26 27 30 31 32 32 32 32 33 33
43 37 34 34 38 37 37 38 36 35 36 38 38 35 35 34 35 35 33 33 32 30 28 25 25 27 28 28 29 30 30 27 27 29 30 32 32 32 31 32 33 34 34
43 34 36 35 37 39 39 39 39 40 40 41 39 37 38 39 39 40 40 36 37 38 36 34 35 33 34 34 34 35 38 37 34 32 32 33 31 31 31 32 33 34 34
54 36 38 39 38 38 38 40 44 45 46 41 42 41 42 43 43 45 45 45 44 43 41 40 39 37 38 39 41 43 43 40 35 33 33 31 31 32 33 33 33 34 34
41 44 41 40 39 38 41 43 42 45 46 43 44 44 46 49 50 51 51 49 47 46 42 41 40 38 38 40 41 42 42 38 34 33 33 32 33 35 35 35 35 35 33
50 47 47 43 45 45 48 50 50 35 32 32 39 47 51 53 54 55 55 53 51 50 48 42 39 40 42 44 43 42 38 35 34 34 34 35 36 36 36 37 37 37 35
53 49 51 49 50 59 62 53 50 38 33 30 32 41 42 42 42 42 43 43 45 45 46 41 41 44 47 44 40 38 36 36 36 37 37 37 37 38 39 40 40 39 38
50 51 45 46 49 45 28 32 38 42 45 41 41 44 45 44 43 42 40 42 40 39 42 44 46 44 40 38 36 35 36 36 37 37 38 38 39 41 42 43 40 39 40
55 53 49 46 45 50 51 48 46 45 43 39 40 42 44 43 41 41 39 39 40 41 42 42 41 39 38 38 37 37 37 37 37 38 39 41 43 43 42 41 42 42 44
56 54 52 50 49 49 48 46 45 44 44 43 44 42 37 37 37 36 37 39 42 41 40 41 42 42 42 40 40 40 39 40 41 42 43 45 46 44 44 45 47 48 48
56 58 56 54 54 51 50 49 48 47 47 48 49 46 40 38 39 38 36 37 41 43 44 44 45 46 46 46 45 45 45 45 45 47 47 47 48 47 48 50 50 51 52
58 58 58 58 57 56 55 55 54 51 50 50 50 54 53 47 43 41 42 41 42 44 46 47 47 48 48 48 49 51 52 52 52 53 52 52 52 53 54 56 54 55 55
65 66 67 67 65 65 64 63 62 60 59 59 56 56 54 53 53 48 46 46 47 46 47 49 51 52 52 50 52 53 54 54 55 57 56 57 58 59 60 59 60 60 61

GFSGL_500_spd_075.txt.gz
Wind_Speed
37 36 33 31 28 27 25 23 20 18 18 17 13 12 10 7 6 8 9 10 12 12 12 13 14 13 13 11 9 7 4 5 6 5 5 8 11 13 16 20 24 28 32
39 39 37 35 31 29 25 24 22 19 19 18 16 15 14 12 9 8 10 11 11 12 13 13 15 16 16 13 10 6 3 3 5 5 5 8 11 15 19 22 28 32 34
41 40 40 38 34 31 27 26 25 23 21 20 19 18 17 15 14 12 11 13 13 12 14 14 15 16 17 14 11 8 3 2 4 6 8 11 14 16 20 22 24 26 29
40 41 40 38 35 32 31 29 28 25 23 23 22 21 19 16 16 15 16 15 14 14 13 14 15 15 14 14 12 8 4 2 3 4 6 7 10 14 17 18 23 31 33
37 40 39 39 38 35 36 32 31 29 25 25 24 23 20 17 17 18 20 20 16 15 13 12 13 14 12 12 13 8 5 4 4 5 4 6 8 12 15 19 21 23 29
33 36 39 40 39 36 37 35 33 31 28 26 25 24 21 19 20 21 21 20 17 15 15 15 13 13 12 13 13 9 5 5 6 5 6 7 8 8 11 14 17 21 23
29 35 40 41 42 39 38 38 35 33 32 28 27 25 21 19 20 18 17 18 16 16 15 15 16 13 12 13 13 10 8 7 8 6 8 9 11 13 13 14 18 21 25
27 31 36 39 39 39 37 35 36 36 34 31 30 28 24 21 20 16 14 14 14 15 15 16 15 15 15 14 12 11 11 10 10 8 8 10 11 13 15 16 18 19 23
23 27 32 37 38 37 35 35 36 38 37 33 32 31 26 25 23 19 16 16 18 18 16 15 15 15 17 16 12 11 11 11 13 11 12 13 15 17 18 18 21 23 25
20 23 30 35 38 36 34 35 36 37 37 36 35 33 30 28 26 21 18 17 17 19 17 14 15 17 20 20 15 15 13 16 15 14 15 17 19 20 22 24 26 27 28
25 24 29 33 37 36 36 35 34 34 36 36 36 34 32 30 28 24 20 18 20 20 17 17 17 18 20 21 19 18 18 19 18 18 19 20 21 23 24 24 26 28 30
31 28 26 30 34 38 36 33 31 32 32 34 35 34 34 32 29 26 24 20 23 21 19 19 19 19 19 20 20 20 19 20 18 18 19 19 20 23 24 27 29 29 31
37 33 28 26 32 37 37 33 28 27 30 32 34 35 34 32 31 29 27 23 25 22 20 18 15 16 19 19 20 19 17 17 17 17 19 21 23 27 27 28 29 29 31
43 40 33 28 29 32 37 36 32 27 27 30 33 34 35 34 33 31 29 27 27 25 23 20 19 12 12 12 13 14 14 17 20 21 22 24 27 29 31 29 29 27 29
50 47 42 33 29 28 32 36 37 35 31 30 32 35 36 36 36 34 31 30 28 28 30 28 25 22 22 22 22 24 25 25 26 27 29 31 32 33 33 30 28 30 27
52 50 47 42 38 34 32 35 39 39 36 35 34 35 39 39 36 35 34 33 33 31 32 32 32 32 30 31 31 31 30 30 32 34 34 34 35 36 33 30 29 30 30
56 54 52 48 41 39 37 37 39 40 41 40 39 40 41 40 38 36 37 36 37 36 36 35 35 37 37 38 38 38 36 36 36 37 36 36 36 35 32 32 31 30 31
60 58 58 56 47 42 41 40 41 41 39 40 44 43 43 44 41 38 41 37 38 41 42 43 43 43 43 44 43 40 37 35 34 38 38 37 35 34 32 32 32 30 31
61 61 61 59 54 46 45 41 40 39 39 41 42 44 46 50 48 46 46 45 44 44 48 49 47 47 46 46 46 46 40 37 37 39 37 35 35 35 34 33 33 33 33
62 64 66 62 57 59 43 43 38 38 41 47 50 49 49 50 56 52 50 50 50 48 51 50 47 46 47 44 44 40 37 37 38 39 36 36 36 37 36 34 33 34 36
61 64 68 63 66 51 53 51 47 46 51 55 61 51 47 36 53 60 57 44 41 41 43 43 43 40 36 33 35 40 36 36 37 38 37 37 37 36 36 37 36 36 38
64 63 58 68 51 57 60 55 59 63 60 43 53 53 29 38 39 37 38 38 39 43 44 42 38 36 36 36 33 33 33 34 36 37 38 38 37 38 39 39 39 41 38
69 64 60 51 54 58 48 34 30 32 30 34 36 30 28 35 38 38 39 40 44 47 45 41 38 34 34 35 37 36 35 34 36 38 39 40 41 42 43 43 42 45 43
73 62 57 54 47 42 39 38 41 40 40 41 40 39 42 43 43 42 39 41 40 42 44 42 40 40 40 39 41 41 40 41 43 44 44 45 45 46 48 47 46 48 49
56 52 53 54 53 50 49 48 46 43 44 39 39 43 43 46 47 46 47 46 44 41 42 44 45 44 44 43 43 46 46 47 47 49 50 49 48 50 51 52 51 51 53
53 58 52 61 52 50 57 55 52 51 51 50 51 49 48 49 49 49 51 52 53 52 52 49 48 49 49 47 48 49 50 51 51 53 54 55 51 52 52 51 50 51 51

GFSGL_500_spd_078.txt.gz
Wind_Speed
34 32 29 27 25 22 21 21 19 18 15 14 11 8 8 6 5 6 6 6 7 6 8 11 11 11 11 10 8 5 4 5 5 4 4 5 7 9 12 17 23 26 31
35 36 34 33 30 25 23 21 21 19 17 16 14 13 11 8 6 5 6 7 8 8 7 11 12 12 12 10 8 5 3 2 2 1 2 4 6 9 12 14 20 19 23
34 36 37 35 32 27 25 24 23 23 20 19 17 16 15 12 9 7 6 8 8 9 10 10 11 14 13 12 10 7 5 3 2 0 1 3 5 8 13 13 15 18 23
31 35 37 36 34 31 28 28 24 24 23 21 19 19 18 16 13 11 11 9 10 11 11 13 12 13 13 13 13 12 8 5 4 3 4 5 5 7 8 11 15 20 25
26 32 35 38 36 36 33 31 28 26 26 25 21 20 19 18 16 15 14 14 12 12 12 13 13 14 13 13 15 15 12 9 8 7 7 7 7 8 10 13 16 17 21
24 27 33 39 39 36 35 33 33 29 28 26 22 21 20 19 18 18 18 17 16 14 14 15 14 14 14 15 16 17 14 13 11 9 10 10 10 11 13 15 17 19 20
21 25 29 34 38 37 36 35 33 31 29 27 25 23 20 21 20 19 18 17 17 15 15 15 15 15 15 15 16 18 17 15 13 11 12 11 11 13 14 15 18 20 22
18 22 25 29 32 37 37 35 33 32 31 30 28 26 25 22 22 19 14 12 13 13 15 15 15 15 16 17 16 17 17 17 16 14 13 13 12 15 16 17 18 19 21
19 17 22 27 30 33 35 35 34 33 33 31 31 29 27 26 24 21 16 13 12 14 15 16 16 16 16 19 18 17 19 18 17 16 14 15 16 17 19 19 20 21 21
22 19 21 26 29 31 33 34 35 34 33 34 33 31 29 28 27 25 21 17 16 17 18 18 16 15 17 19 20 20 17 18 17 15 16 17 20 20 21 22 21 21 21
28 25 24 24 25 28 32 33 33 33 33 34 34 34 32 31 29 28 25 21 18 19 18 17 16 16 16 16 18 21 21 22 20 18 18 20 21 19 21 21 23 25 26
33 29 25 24 25 27 30 32 32 32 31 31 31 33 32 32 30 31 27 24 22 21 19 19 19 16 15 16 17 21 24 23 20 20 18 16 16 18 21 23 25 27 28
36 33 29 26 25 27 28 32 33 31 29 28 29 29 31 32 32 33 30 28 26 24 21 20 20 19 18 18 17 19 20 19 17 11 9 12 15 18 22 25 28 29 29
40 36 35 31 28 26 28 32 33 32 29 26 28 30 31 34 34 35 34 32 29 25 23 22 24 23 20 17 17 15 12 10 12 15 16 18 21 24 27 27 31 32 30
46 41 38 39 32 29 27 29 33 33 33 29 26 29 32 35 35 38 37 33 30 28 28 26 25 25 22 20 18 18 18 18 18 22 24 25 27 29 33 32 33 34 31
45 45 45 43 37 34 31 28 29 32 34 34 32 29 29 32 34 37 36 32 32 31 31 30 30 30 29 27 26 26 27 27 27 28 27 30 33 35 35 38 38 37 31
51 48 48 43 43 42 39 34 28 27 32 36 35 35 30 30 33 35 35 34 34 36 34 34 32 33 35 35 33 32 32 33 33 35 38 39 38 36 38 38 41 37 33
56 54 53 53 51 51 47 42 37 34 31 36 38 38 36 35 36 36 37 38 38 38 37 36 37 37 37 36 37 39 37 38 42 44 43 45 42 39 39 41 40 36 33
55 58 57 56 54 55 52 47 44 43 38 38 41 44 42 40 39 38 40 41 40 39 39 40 42 44 43 43 43 45 46 47 49 48 46 43 41 41 45 44 38 34 33
54 54 61 63 63 59 64 57 52 50 45 42 42 45 44 44 42 43 44 45 44 42 43 48 48 49 49 46 43 44 47 49 52 51 44 40 40 39 40 38 36 34 34
53 53 58 62 61 61 65 57 57 54 43 46 45 45 47 49 48 51 48 51 50 53 59 49 49 53 50 45 40 36 36 38 39 37 37 41 38 34 33 36 36 35 35
55 54 56 60 62 63 64 61 59 60 60 51 53 53 52 55 55 50 58 46 57 56 61 51 51 50 44 44 37 34 35 34 34 36 39 37 36 35 33 35 34 35 36
55 56 57 60 63 64 70 66 64 70 71 61 62 56 58 61 60 67 51 62 61 46 45 50 43 44 43 40 36 36 37 36 35 35 35 35 35 35 36 36 37 38 40
58 58 59 58 58 62 73 67 62 69 67 59 58 54 60 66 52 34 18 28 28 35 41 42 41 43 43 39 39 40 40 41 41 40 40 39 40 40 41 42 43 43 45
60 60 58 62 62 63 71 72 65 78 75 75 73 44 32 25 21 25 22 24 38 41 42 43 43 43 40 38 38 39 40 43 44 45 46 47 46 46 47 48 47 48 48
63 61 54 57 63 65 68 70 71 67 63 40 35 35 33 32 35 36 38 39 41 44 46 47 48 49 48 47 46 44 45 47 47 46 49 51 53 51 51 51 52 53 53

GFSGL_500_spd_081.txt.gz
Wind_Speed
29 29 28 25 24 23 22 22 21 17 14 10 8 5 6 5 4 4 4 4 3 5 7 10 11 10 8 7 6 4 4 4 4 4 3 4 5 8 10 14 16 19 20
31 31 31 30 27 23 21 22 22 20 17 14 11 9 8 7 6 5 5 5 4 5 7 11 12 12 10 8 5 4 3 1 0 2 2 2 4 6 10 11 16 17 19
29 32 33 31 27 25 24 23 22 22 20 18 14 14 12 11 9 7 5 5 6 7 7 10 13 13 12 11 8 6 5 4 4 4 3 4 4 6 9 13 14 17 20
25 31 33 34 31 30 27 25 23 24 23 21 17 15 13 12 11 10 9 8 8 9 10 10 11 13 15 14 13 11 9 8 8 8 7 6 6 7 9 10 15 19 23
21 27 31 36 37 34 32 28 26 23 23 23 20 17 14 14 14 14 12 11 11 10 11 11 12 12 13 14 15 15 14 13 12 11 9 9 9 9 11 13 15 17 22
20 24 31 35 37 36 35 32 29 26 24 24 22 20 15 15 17 16 14 12 12 13 14 13 13 13 14 14 16 17 17 17 16 14 12 12 12 12 12 14 15 19 21
20 22 25 30 33 36 37 36 33 29 29 25 24 23 19 16 17 18 16 14 14 15 16 16 15 16 17 17 19 19 20 19 19 18 16 16 13 13 13 15 16 19 21
24 18 22 25 29 34 36 36 34 34 31 29 26 25 23 20 17 19 17 14 13 16 17 17 16 17 18 19 18 19 21 21 23 21 18 17 15 15 15 16 17 19 22
20 18 19 23 25 30 33 34 34 34 34 31 31 27 24 24 22 20 19 15 13 14 15 16 16 17 19 19 19 20 20 20 23 22 18 18 17 18 18 19 20 20 21
20 20 19 21 23 25 29 33 36 35 34 34 32 31 29 28 26 23 21 19 17 16 16 17 18 20 21 18 17 19 22 24 20 17 15 16 17 20 21 22 21 21 22
27 26 23 20 19 23 26 30 34 35 36 35 33 32 32 30 29 26 22 21 22 22 21 21 20 20 20 18 16 18 23 26 23 19 19 19 20 21 21 21 20 22 24
34 33 28 24 22 22 24 28 31 34 34 34 33 33 32 30 30 29 27 25 25 27 24 22 19 18 20 20 17 19 22 25 24 23 22 21 20 18 16 15 19 23 26
41 37 33 30 25 23 23 26 30 33 33 32 32 31 30 30 30 31 30 29 28 28 29 25 22 19 21 20 19 20 21 22 23 23 22 20 15 14 18 20 22 25 28
43 43 39 36 31 27 25 26 29 31 32 32 30 28 29 30 31 32 32 33 32 30 30 29 27 24 22 22 21 21 21 23 23 22 18 15 17 19 23 23 25 30 33
47 46 48 44 40 34 28 28 27 28 32 34 32 31 30 30 31 33 35 35 34 34 34 32 28 25 24 26 25 23 22 21 17 18 18 19 21 24 28 28 30 35 37
53 55 52 53 49 40 35 31 28 27 32 34 36 34 32 26 29 32 33 35 37 38 35 32 31 28 26 29 29 27 24 24 27 26 26 25 30 33 32 33 36 38 38
54 49 44 60 54 45 42 35 31 26 28 34 37 37 35 31 28 30 33 35 37 36 33 33 33 32 31 30 32 32 32 33 31 31 32 34 37 40 42 43 41 41 41
54 52 51 46 53 47 43 36 35 34 31 30 33 35 38 38 35 34 35 36 37 36 37 37 35 35 34 34 34 37 39 38 37 39 40 41 43 45 48 48 44 44 44
57 55 51 50 42 47 45 39 41 41 39 38 37 36 35 39 41 41 40 38 37 38 39 40 39 38 36 38 39 41 40 41 40 41 44 48 52 53 54 52 47 45 46
60 56 54 51 49 49 47 45 47 49 46 46 46 44 44 43 44 46 45 44 43 43 44 44 43 43 42 42 42 43 44 43 41 42 46 48 48 46 43 42 42 42 43
59 56 55 53 52 53 53 55 56 56 54 52 52 51 63 57 50 49 52 51 50 50 49 50 47 47 47 48 43 44 44 44 43 43 48 42 41 40 36 36 39 42 41
60 58 55 53 53 56 58 61 62 63 57 58 60 59 63 40 41 42 48 50 50 50 50 44 49 51 51 50 51 37 44 47 42 43 42 36 39 41 40 38 37 38 38
62 60 60 55 54 55 55 56 56 61 62 63 64 69 63 56 52 50 49 47 50 53 54 52 56 58 50 50 47 49 47 41 41 40 39 37 40 40 38 36 34 34 34
63 61 61 59 56 55 55 53 52 43 60 65 62 51 58 63 60 62 54 54 56 55 59 57 51 58 54 42 39 44 40 39 39 39 39 37 37 38 39 39 39 39 39
63 62 60 61 60 57 55 53 52 53 49 62 64 63 62 60 65 69 59 62 65 61 59 71 47 55 66 44 37 40 41 41 41 40 41 41 40 39 40 41 42 43 43
63 62 62 61 60 59 56 54 56 57 64 57 56 61 54 44 56 65 69 54 55 62 66 45 36 36 37 35 41 42 44 46 47 46 47 47 46 47 47 47 48 50 50

GFSGL_500_spd_084.txt.gz
Wind_Speed
27 29 28 27 26 25 25 24 21 18 14 11 9 6 5 4 5 6 6 7 8 10 14 13 11 8 10 9 7 6 6 5 4 3 3 2 4 8 9 13 17 21 22
28 30 30 28 28 26 25 26 25 21 20 14 12 10 8 7 6 6 7 7 7 8 11 13 13 11 9 7 6 4 3 2 1 0 0 1 4 6 9 13 16 20 21
31 32 34 32 30 29 27 26 25 24 24 20 16 14 12 12 10 8 7 8 8 9 10 12 13 13 13 10 7 6 6 5 4 4 4 5 4 7 9 12 16 19 20
28 33 35 34 32 31 30 29 26 25 25 24 20 17 16 15 13 11 9 8 9 10 11 12 14 15 15 14 13 11 9 10 9 9 9 9 7 6 8 10 15 18 21
34 33 32 36 37 36 34 32 29 26 26 26 23 19 17 16 16 17 14 11 10 10 11 12 14 15 16 18 18 17 16 16 15 14 14 13 11 10 10 12 13 16 19
37 37 36 37 40 39 37 34 32 29 27 26 24 23 20 19 20 19 18 16 14 13 13 14 15 15 17 17 19 20 20 20 20 19 19 18 15 13 13 14 14 15 18
40 40 39 39 38 40 39 37 34 32 30 26 25 25 23 21 19 20 19 19 17 16 17 18 17 18 18 19 20 21 21 20 21 20 20 19 18 16 16 16 16 15 19
39 34 34 37 40 40 41 40 37 36 33 30 28 25 25 24 21 19 21 19 18 17 20 22 21 20 20 20 21 21 22 23 23 23 23 23 21 20 19 18 17 17 20
44 38 33 34 38 40 39 39 39 39 38 35 32 30 26 26 25 22 20 20 19 19 20 22 23 22 22 20 19 21 21 22 23 22 24 25 24 23 22 20 20 20 21
44 40 32 32 35 36 36 38 41 43 41 40 38 35 33 31 30 28 23 20 21 20 19 20 21 21 20 18 19 20 21 25 23 22 22 23 23 22 22 20 22 21 24
47 44 38 31 27 32 35 37 39 42 43 41 39 38 36 34 32 30 27 23 23 24 23 22 22 22 22 21 20 21 20 24 23 24 22 22 23 22 22 21 23 22 21
41 40 41 31 24 24 26 28 35 39 41 41 40 40 37 34 33 33 30 26 26 28 28 28 27 27 27 24 23 23 23 24 25 24 24 25 25 25 23 22 20 19 22
37 31 33 37 36 30 25 25 30 33 37 39 40 39 37 36 36 35 33 31 30 29 32 34 34 30 25 24 25 25 25 24 24 23 24 26 27 26 23 18 19 21 24
46 44 30 27 26 31 28 27 27 29 31 35 38 39 40 40 36 34 34 34 34 33 35 38 38 34 29 27 26 27 27 26 25 24 26 28 26 25 22 22 22 25 29
49 45 46 41 40 36 33 31 29 27 29 33 37 40 40 38 35 38 39 39 38 38 41 43 39 36 33 30 29 30 30 28 26 26 27 26 23 23 24 25 27 31 33
52 48 48 47 49 45 39 38 34 31 29 31 36 39 39 38 38 38 37 38 39 41 44 42 41 41 38 35 32 33 33 30 29 27 26 24 25 26 29 31 34 37 38
54 55 53 50 46 49 44 44 39 36 35 34 34 38 39 40 40 39 38 39 41 43 41 41 42 44 42 39 36 35 35 35 34 31 29 30 31 33 36 37 38 39 41
59 59 57 52 48 48 47 48 46 42 40 37 35 35 39 42 43 42 41 39 39 41 39 40 42 45 43 43 40 39 37 38 39 37 36 36 38 39 39 40 42 45 48
62 62 59 56 53 49 50 44 49 50 45 42 40 36 37 43 44 45 45 43 41 40 41 41 42 44 43 43 42 41 40 38 38 39 39 40 41 41 42 42 47 47 44
63 64 59 54 53 51 48 46 42 52 49 50 47 43 40 39 39 39 40 43 47 45 44 42 44 44 42 41 42 44 43 41 40 40 42 43 43 43 43 48 47 39 36
62 59 51 47 49 48 48 46 50 52 58 55 53 48 47 47 47 45 44 45 47 48 47 45 45 45 45 44 46 46 44 45 45 44 45 47 49 44 48 46 42 40 36
70 59 53 50 53 55 50 49 47 51 55 58 57 55 53 52 52 53 52 54 59 52 48 50 50 50 48 49 51 49 51 49 49 48 51 51 50 46 44 43 42 40 37
79 66 59 58 55 53 54 53 52 57 59 61 60 59 60 60 59 57 57 59 60 50 50 43 52 54 53 52 54 56 57 54 54 59 55 55 47 46 40 40 42 40 37
87 82 69 66 64 60 57 57 54 57 58 61 62 63 63 62 63 64 61 60 60 54 42 47 49 49 51 54 55 60 59 57 58 58 67 59 56 44 39 39 42 41 40
64 79 78 73 71 68 63 60 58 55 54 55 55 56 58 58 56 64 53 56 72 76 61 56 57 55 59 59 58 58 53 62 62 60 59 58 50 44 40 40 42 43 42
59 67 74 76 77 72 67 62 60 58 55 50 51 51 41 49 49 60 60 45 42 53 62 62 62 60 64 53 66 59 60 61 62 66 69 58 50 49 45 45 47 47 48

GFSGL_500_spd_087.txt.gz
Wind_Speed
32 32 32 28 26 25 24 22 20 17 13 10 9 8 9 9 9 8 9 11 15 18 19 16 11 10 8 6 6 6 5 4 3 3 1 1 2 5 8 10 14 18 21
33 34 34 34 32 28 25 24 23 21 18 14 13 12 10 10 10 10 9 11 12 16 17 17 12 10 10 8 6 6 5 4 3 2 3 4 5 6 8 10 13 16 18
39 37 36 35 33 31 29 27 26 26 23 20 18 16 13 12 12 12 12 12 13 13 16 17 16 13 12 11 8 8 7 7 5 5 6 7 6 9 9 12 13 15 16
34 39 40 38 36 36 35 32 29 28 28 25 22 19 17 16 14 13 12 13 13 14 15 17 18 18 16 14 13 12 11 10 10 11 11 11 10 9 12 14 17 16 17
34 31 36 40 41 41 40 37 35 31 29 29 26 23 21 19 17 16 15 14 13 14 15 16 17 19 19 19 19 18 16 16 15 15 16 16 16 14 13 15 16 16 18
36 35 35 40 43 43 44 42 39 35 33 30 28 26 25 23 23 22 20 19 17 15 16 16 17 17 19 20 20 21 20 21 21 20 20 21 20 18 17 17 18 16 17
43 40 41 41 43 46 47 47 43 40 37 33 30 29 26 25 25 25 24 23 21 19 18 17 18 19 20 20 20 20 20 21 22 22 22 23 22 19 20 19 19 19 19
53 52 46 44 44 45 48 49 45 42 40 36 33 31 31 28 28 26 26 26 25 23 21 20 21 22 21 21 21 21 21 21 23 23 22 24 23 25 22 20 21 20 21
60 53 52 47 45 47 46 47 48 45 42 39 36 35 32 30 30 29 27 24 26 25 24 23 23 25 26 24 21 22 21 22 22 21 23 23 25 26 24 23 22 22 22
65 58 57 50 48 48 50 49 51 51 47 45 42 39 37 35 33 32 31 27 24 25 25 23 23 25 29 26 21 20 17 24 21 20 21 24 25 26 24 21 20 21 23
53 58 63 57 48 46 50 52 51 50 52 49 46 44 41 39 38 35 32 30 26 26 27 24 24 25 27 25 20 17 20 27 22 19 21 23 25 26 25 21 21 23 23
61 54 56 47 53 51 45 47 48 50 51 51 51 49 45 43 41 39 36 30 29 28 28 28 28 28 28 25 22 20 23 26 23 22 23 25 24 25 25 23 24 25 24
45 42 50 44 43 48 43 43 44 44 47 48 50 49 46 45 44 42 39 37 33 32 31 33 35 35 34 30 27 26 26 26 27 26 26 26 25 24 25 26 27 26 24
48 43 45 33 47 50 46 44 42 42 43 44 47 48 48 47 45 44 42 40 39 36 37 39 40 40 39 36 33 29 27 28 29 29 29 29 28 27 27 28 27 27 24
51 46 46 46 35 42 60 42 38 36 38 39 41 44 46 46 45 47 47 45 43 42 46 45 42 42 42 39 39 36 33 31 31 32 32 30 28 28 29 28 26 25 26
55 53 52 40 39 37 49 46 38 39 36 32 34 38 41 43 46 47 47 47 47 47 45 42 42 43 44 45 44 42 38 35 36 36 36 33 30 29 29 27 27 28 29
62 65 62 51 43 43 40 42 44 39 34 34 32 35 38 37 42 45 47 48 48 48 43 40 39 42 44 48 49 48 43 40 40 39 38 37 33 30 29 30 31 33 36
61 72 74 60 51 56 52 44 46 44 41 38 36 34 33 35 39 42 45 46 47 46 44 41 40 41 44 48 51 51 49 44 43 42 42 40 38 35 34 35 38 39 41
68 64 66 64 52 55 59 54 47 51 50 45 42 39 38 37 36 38 42 45 46 47 45 42 40 40 42 45 47 49 48 47 47 43 44 44 43 41 41 43 45 45 41
70 71 70 66 60 56 58 56 50 48 58 54 47 45 42 40 38 40 38 38 42 46 46 43 42 40 39 41 42 45 45 48 48 46 45 45 45 45 46 49 48 45 45
75 81 72 68 63 60 59 60 57 53 45 43 47 50 48 48 46 44 43 42 38 40 38 41 45 46 44 44 44 45 46 47 46 47 48 49 47 47 48 48 48 48 50
65 76 77 66 63 62 63 60 60 56 50 46 45 48 51 57 53 50 49 48 46 45 44 44 43 42 47 49 46 50 50 48 47 47 48 49 49 49 50 51 49 49 50
77 72 66 62 66 69 68 60 56 53 50 48 48 49 49 56 56 56 56 53 53 52 53 57 57 51 52 58 48 56 60 57 52 51 51 52 54 52 53 53 53 53 58
85 80 71 62 64 72 68 56 56 50 48 45 48 50 53 54 61 66 63 57 58 60 60 62 62 59 60 55 56 61 68 57 51 54 55 58 54 55 55 53 52 61 62
66 66 81 73 69 64 64 58 59 52 49 46 44 46 50 52 57 64 63 60 61 63 65 66 67 70 72 70 60 56 59 53 54 59 61 62 64 66 62 64 61 62 60
64 54 66 68 71 67 65 65 65 58 52 51 47 46 49 51 56 62 65 66 67 67 66 68 67 70 71 67 55 55 57 61 57 58 62 61 62 68 71 68 64 64 68

GFSGL_500_spd_090.txt.gz
Wind_Speed
32 31 28 26 27 24 21 20 17 13 11 8 8 7 9 13 14 14 15 17 20 20 17 16 17 14 13 9 8 7 6 4 3 3 2 2 4 5 7 9 12 14 17
34 35 34 32 29 27 25 23 22 20 16 13 11 10 9 11 14 14 14 17 20 22 20 17 13 14 12 11 9 7 6 5 4 4 4 5 5 7 8 9 11 13 15
35 37 38 36 34 32 30 28 26 25 22 18 15 14 12 12 13 14 15 16 18 21 22 19 14 13 13 12 10 10 8 7 6 6 6 6 7 8 10 12 14 14 13
34 38 39 39 38 38 36 34 31 30 28 24 21 19 17 15 14 13 14 16 17 18 21 22 20 19 16 14 13 11 9 8 8 10 11 11 12 10 11 14 17 18 16
34 35 39 41 41 41 41 37 35 34 32 30 28 25 22 19 18 17 16 16 17 17 18 21 23 22 20 19 17 17 14 14 14 14 15 16 17 14 14 15 16 18 17
38 37 37 41 43 42 43 42 39 37 36 34 31 30 28 25 23 22 20 19 18 16 18 19 20 21 22 23 23 22 20 20 20 20 20 20 21 19 18 16 16 18 18
42 39 38 36 36 42 45 45 44 41 40 38 35 33 32 30 28 27 26 24 22 20 19 18 18 19 20 21 21 22 21 20 22 22 21 22 22 21 20 18 16 17 18
47 46 44 42 40 40 39 44 46 47 44 41 38 36 35 33 32 30 29 28 26 25 24 22 20 20 21 21 21 20 20 20 21 20 20 21 19 21 19 18 18 17 20
51 52 50 46 44 43 42 43 47 50 48 45 42 40 36 35 36 34 33 30 28 28 28 26 24 22 23 24 23 23 23 23 24 21 19 19 21 22 20 18 18 17 19
58 54 54 55 54 50 51 49 47 49 51 50 47 44 41 38 38 37 36 32 30 28 28 28 27 25 27 27 26 27 23 27 23 18 15 17 22 23 22 19 19 18 18
57 58 56 57 61 58 57 53 52 49 52 52 50 48 46 43 41 39 38 34 31 30 28 28 29 30 30 31 27 25 24 28 21 18 17 19 22 23 24 20 19 21 21
57 63 64 55 66 65 63 60 54 52 50 52 54 52 50 48 45 43 41 37 34 33 32 31 31 33 33 32 26 21 23 25 22 23 21 22 24 25 23 21 22 23 23
60 56 60 63 61 72 64 59 55 59 54 53 53 55 53 52 50 48 47 43 39 36 34 36 37 37 36 33 28 25 25 24 25 26 26 25 27 26 25 24 24 24 25
54 62 61 49 56 58 60 67 70 55 52 54 54 52 55 56 55 53 52 51 49 43 40 41 41 40 38 36 35 33 31 30 28 27 27 30 30 30 29 28 26 25 26
55 54 67 40 37 51 53 53 43 49 54 55 54 55 56 57 54 57 57 56 53 49 48 46 42 41 40 39 38 38 38 37 34 32 29 31 33 33 31 32 28 28 28
68 59 53 51 46 42 40 31 44 44 52 53 54 56 56 51 52 57 57 55 53 54 51 47 43 41 41 41 42 41 43 43 40 38 34 33 35 36 36 35 33 31 31
58 59 59 49 52 47 37 33 29 31 43 51 49 48 43 45 47 52 54 55 54 54 49 47 45 43 41 42 42 43 45 46 47 43 39 38 38 38 38 37 36 34 32
77 60 53 56 50 57 42 40 40 35 50 53 46 44 42 40 41 41 42 48 51 51 47 45 45 44 43 43 42 43 45 47 47 47 45 42 41 41 40 39 38 38 37
83 74 53 57 58 59 52 51 47 35 53 51 54 53 50 49 44 40 37 37 40 44 45 44 43 43 43 42 42 42 43 45 45 46 45 45 44 44 43 42 42 41 41
88 86 71 62 55 55 56 61 53 41 44 48 46 52 50 43 37 36 38 36 39 36 38 41 41 41 42 42 41 41 39 40 42 43 44 46 46 44 45 46 45 46 46
82 89 82 65 55 57 54 56 49 52 51 54 54 56 56 51 54 45 42 41 41 32 32 34 39 42 42 43 43 42 42 42 40 40 42 45 47 47 47 52 53 54 51
84 82 74 76 69 63 65 51 49 52 50 56 58 57 57 58 56 51 46 41 45 41 38 39 38 38 39 41 41 41 44 45 47 46 46 46 46 46 48 53 57 56 55
80 84 79 80 80 66 62 61 59 53 54 54 62 63 62 56 53 60 55 59 42 43 44 46 43 43 44 45 45 44 47 48 52 45 54 53 51 49 50 52 53 54 61
66 73 76 75 74 87 68 63 64 59 60 62 60 63 64 58 59 52 48 42 46 49 55 58 52 50 52 52 51 47 53 54 56 57 51 49 57 61 66 59 58 57 62
70 70 73 78 72 80 81 65 67 70 68 66 64 58 58 57 49 50 49 47 49 51 54 53 56 59 61 58 57 57 60 61 63 65 66 67 59 56 57 67 66 64 67
55 61 64 69 68 68 72 71 69 72 73 69 71 60 53 55 53 51 48 46 45 49 55 55 56 61 66 66 63 62 64 67 70 61 59 53 57 58 60 60 65 66 67

GFSGL_500_spd_096.txt.gz
Wind_Speed
34 31 29 28 27 26 24 21 20 17 15 12 11 12 13 11 12 13 13 12 13 13 13 13 14 15 14 14 14 13 12 10 9 7 5 3 1 1 2 4 6 9 11
36 34 32 31 29 27 27 26 23 21 19 16 13 11 13 14 12 12 13 14 14 15 15 15 15 14 13 13 12 12 11 9 8 6 6 5 3 3 4 6 7 8 9
36 36 35 33 31 30 29 29 27 25 23 20 17 15 13 13 15 15 14 14 16 16 16 15 14 14 14 13 12 11 10 10 9 7 6 6 6 7 7 9 10 11 9
35 38 37 35 34 34 34 31 29 29 27 24 22 19 16 15 14 16 18 16 16 18 19 18 16 15 15 15 13 12 12 11 10 9 8 8 9 7 7 11 16 15 11
35 37 39 38 37 37 36 34 33 31 29 28 26 23 20 17 17 16 17 19 20 20 20 21 21 20 18 16 15 14 13 13 12 11 11 12 14 12 11 14 16 16 16
37 35 37 39 42 40 40 39 37 36 34 32 30 28 26 22 21 21 19 19 19 20 22 22 21 23 23 22 21 20 17 17 17 17 17 18 19 18 17 17 17 16 16
40 37 40 41 42 45 44 43 41 40 41 37 35 33 31 28 27 26 25 23 21 21 21 22 23 23 23 23 24 24 24 23 23 23 23 22 21 18 16 17 18 17 15
46 46 45 46 43 43 45 45 44 44 43 41 39 38 36 33 32 31 31 29 27 24 23 23 22 23 22 23 24 23 25 24 23 23 23 23 21 19 17 19 19 17 16
54 53 49 48 48 46 48 45 44 44 45 44 43 41 40 38 37 36 36 35 31 29 28 27 26 25 24 24 22 22 23 23 24 23 21 23 22 23 22 20 17 15 16
57 58 57 55 53 50 58 49 45 43 42 44 45 44 44 43 42 41 40 39 34 32 33 31 30 28 29 29 27 25 24 25 27 24 23 24 24 25 26 19 17 17 17
56 59 60 58 54 50 38 49 47 46 44 43 43 45 48 45 44 44 44 43 38 35 35 35 33 31 32 33 33 29 26 30 30 26 22 24 26 26 27 22 19 20 21
60 59 58 57 57 56 52 48 47 40 49 47 46 44 45 43 46 47 46 46 44 41 38 37 36 35 35 35 35 32 29 31 29 27 25 25 26 28 28 24 22 22 23
65 64 63 59 57 59 57 54 53 53 51 52 51 51 50 45 48 46 42 45 47 47 42 40 40 40 39 40 37 34 31 29 27 28 28 27 26 27 28 26 24 24 24
70 68 67 66 63 61 63 62 58 55 54 60 59 55 56 53 48 42 41 45 51 50 48 46 45 46 44 41 39 37 34 32 30 29 30 30 29 29 29 29 28 25 24
74 74 73 71 70 67 64 64 62 60 60 63 61 63 60 56 54 54 53 53 51 51 54 53 52 48 45 42 40 40 38 37 37 35 34 33 34 34 33 35 33 33 31
72 75 77 76 73 72 68 67 64 60 60 62 59 62 64 59 56 57 57 59 58 58 57 58 52 50 49 46 46 47 46 43 42 41 39 38 37 36 36 37 36 36 37
71 72 75 79 79 77 73 71 66 66 60 63 61 57 61 58 61 60 51 57 55 54 52 52 51 53 54 53 51 50 50 49 49 47 45 43 41 41 39 38 39 39 38
74 75 75 75 79 81 80 76 71 66 63 61 60 58 58 57 55 52 63 60 57 58 55 54 57 56 56 57 57 55 55 54 54 52 49 47 45 45 44 41 42 41 40
71 72 76 77 77 80 82 82 79 72 64 62 66 64 62 61 61 57 52 55 54 58 58 54 59 60 57 58 58 60 59 57 55 55 52 50 49 48 47 43 43 43 42
75 69 68 73 77 80 82 83 82 80 73 65 59 63 52 59 56 58 56 53 45 51 55 53 56 57 58 60 63 60 56 56 56 55 54 52 51 50 48 44 43 43 42
74 72 68 67 69 75 81 84 84 81 79 72 62 59 57 53 53 53 53 55 54 52 61 58 54 50 56 56 58 59 50 52 55 56 55 53 52 51 48 45 43 41 40
60 63 61 60 65 71 76 82 85 84 82 79 73 64 64 59 52 54 46 49 44 44 49 53 54 48 45 50 46 47 52 56 54 55 56 53 50 47 46 46 45 45 44
56 60 58 56 58 60 66 75 84 87 85 81 82 76 66 64 63 57 47 44 52 49 50 48 58 58 55 47 45 51 53 58 58 54 52 52 47 46 46 47 46 47 45
48 50 51 56 57 55 57 65 76 86 88 84 83 80 72 61 58 62 55 50 51 47 45 52 55 58 62 59 59 58 52 59 59 54 52 49 49 53 54 51 48 45 42
35 37 41 47 50 53 54 61 72 83 86 85 82 77 76 61 59 58 57 54 57 53 46 49 55 52 42 58 53 42 43 41 43 44 43 41 42 40 37 38 40 42 45
33 37 40 50 55 56 53 55 64 70 71 78 81 71 79 74 63 66 54 53 55 57 43 46 53 44 37 36 35 37 41 42 45 47 44 42 44 46 48 48 49 50 51

GFSGL_500_spd_099.txt.gz
Wind_Speed
31 29 26 26 24 23 21 18 16 14 11 10 10 9 9 8 9 9 10 11 11 10 9 10 10 11 11 12 12 12 12 10 9 8 8 6 5 4 3 5 7 8 10
32 30 28 27 26 24 24 22 19 17 15 11 9 8 10 10 9 9 11 12 12 12 12 13 13 13 14 13 12 12 12 12 11 10 9 8 7 5 5 7 8 10 11
34 32 31 29 28 26 25 25 23 20 19 16 13 11 9 10 11 10 10 11 13 13 13 14 14 14 14 13 13 13 12 12 12 12 11 9 8 7 8 9 11 11 10
29 28 30 31 30 29 29 27 26 25 23 21 18 16 13 11 10 12 13 12 12 13 14 14 14 14 15 14 15 14 13 13 13 13 12 11 10 8 8 10 14 18 18
32 31 32 33 33 32 32 31 30 28 27 26 24 22 19 16 14 13 13 15 15 14 15 18 17 16 15 15 16 16 15 15 15 15 14 13 13 13 11 12 15 16 17
36 35 34 33 34 35 36 36 34 32 32 31 29 28 25 22 21 19 17 16 15 17 19 19 18 20 21 19 18 17 17 16 17 17 17 19 19 18 18 17 16 17 15
36 35 34 35 35 37 39 38 38 38 37 35 34 33 31 29 27 25 25 22 19 18 18 19 21 21 21 21 22 23 23 23 23 24 23 24 23 21 21 19 16 17 17
41 39 32 32 39 36 40 39 40 41 41 40 39 38 35 34 33 32 32 30 26 24 22 21 20 21 21 23 24 23 24 25 25 26 25 26 24 23 19 18 20 20 19
48 47 44 42 42 40 38 39 41 43 46 44 42 42 41 38 38 37 37 36 32 29 29 27 25 24 24 24 23 23 22 23 24 24 23 22 22 23 22 21 24 20 18
53 54 52 50 48 49 49 42 46 45 47 47 47 44 45 44 42 42 42 41 37 33 32 32 31 28 28 29 27 27 25 26 28 24 20 20 23 23 25 24 23 19 18
56 56 57 58 57 56 56 51 47 49 48 49 49 45 45 46 45 45 45 46 42 39 37 35 34 33 34 34 34 32 28 31 32 28 23 21 23 26 27 27 25 20 19
59 59 58 58 58 58 58 57 54 54 53 47 51 48 46 46 45 47 47 47 48 47 42 40 38 38 37 38 38 35 34 33 32 29 28 26 27 27 28 28 24 25 22
61 61 62 61 60 60 58 58 58 57 55 58 47 58 46 46 44 45 45 45 50 50 48 45 43 42 41 41 41 41 39 36 33 30 28 29 31 31 28 26 25 24 23
63 64 64 63 63 63 63 61 60 58 57 54 52 48 50 33 43 49 51 48 43 46 47 49 47 47 45 44 43 42 42 40 37 34 33 31 31 33 32 30 27 26 25
66 66 67 67 67 66 65 66 64 62 60 57 55 56 54 48 47 50 54 53 49 51 49 47 47 44 45 44 46 46 45 44 41 38 38 39 36 35 34 34 33 31 29
67 67 69 71 72 71 70 68 67 66 64 62 61 60 59 56 55 54 54 57 56 55 52 48 50 47 43 44 46 48 50 49 46 47 43 41 40 39 39 38 38 36 34
71 70 70 70 72 74 74 74 72 70 69 65 65 65 62 59 56 55 55 55 56 59 57 53 52 49 48 51 54 51 52 53 53 53 51 48 46 45 42 42 42 40 38
73 76 75 74 73 73 75 76 76 75 74 71 68 66 64 64 58 57 56 55 52 58 61 60 56 56 54 47 47 45 47 52 56 57 56 55 52 51 48 47 46 45 44
60 67 76 80 80 79 76 76 78 76 75 75 74 72 68 66 64 60 60 61 60 56 57 58 58 56 56 54 46 49 49 53 54 57 58 59 59 57 54 52 51 50 49
65 65 66 71 79 82 82 80 79 79 78 77 76 77 75 68 67 65 61 62 60 57 56 53 52 55 57 59 50 43 49 52 54 56 57 60 62 62 57 55 55 53 53
74 72 72 71 74 77 79 81 81 81 80 80 78 78 78 74 73 69 64 61 63 62 60 59 57 46 53 56 58 61 45 45 50 47 49 57 66 65 57 56 56 54 51
81 79 77 72 71 73 76 80 82 81 81 80 78 80 78 78 77 74 71 64 62 61 58 58 58 51 46 50 50 54 51 42 44 49 51 53 57 60 58 56 55 52 53
70 70 70 67 66 69 70 72 77 79 72 72 77 80 79 78 77 77 74 70 67 57 54 56 53 53 59 63 60 61 60 63 54 47 43 46 48 49 51 55 55 53 54
60 60 58 57 59 63 64 66 67 72 73 71 70 72 75 78 78 76 76 72 71 64 57 51 54 51 49 50 54 54 60 52 48 51 47 51 50 47 54 57 57 54 59
47 48 48 47 46 50 55 57 58 59 63 67 68 69 69 73 75 79 77 74 73 70 67 60 55 54 58 60 52 55 52 54 55 56 53 51 53 59 56 60 56 56 56
36 37 37 37 38 41 41 44 49 53 57 58 57 59 62 65 71 76 78 77 71 74 73 66 62 61 61 57 57 51 47 47 45 46 51 56 52 52 48 50 47 52 49

GFSGL_500_spd_102.txt.gz
Wind_Speed
28 24 21 20 18 17 16 14 13 10 7 1 4 10 9 6 5 4 5 6 7 7 6 7 8 8 8 9 10 11 11 10 11 10 9 9 9 8 9 9 10 8 12
29 25 25 22 20 19 18 17 17 12 11 8 10 11 7 5 6 7 7 7 7 8 8 8 8 8 9 10 11 12 13 12 12 12 11 11 10 10 9 10 11 10 9
29 27 27 25 22 22 21 19 19 17 14 13 11 8 5 5 8 8 9 10 10 9 9 10 11 11 11 11 12 12 13 12 13 13 12 12 12 11 11 10 12 15 14
34 27 27 29 27 26 25 23 21 21 20 18 17 14 11 9 8 10 11 11 11 12 12 12 12 13 13 13 14 14 14 14 14 14 13 12 12 11 10 10 14 19 20
19 23 25 28 27 29 28 27 26 24 23 24 23 20 18 16 13 12 11 13 14 13 13 14 15 14 14 14 15 16 16 15 15 15 15 14 13 13 13 13 15 17 19
29 28 25 27 27 29 30 29 29 28 27 26 27 26 24 22 21 19 17 16 15 16 17 16 15 15 18 19 18 17 17 17 16 15 16 16 17 17 18 18 17 17 17
27 34 32 31 30 27 30 31 31 31 31 29 29 29 29 28 28 26 24 22 19 18 17 17 18 19 19 20 21 22 23 23 22 21 21 22 22 21 20 20 18 17 18
36 34 32 38 37 36 32 34 33 32 32 32 33 33 32 32 32 32 32 30 26 23 22 21 20 21 22 23 24 24 24 24 26 25 24 26 23 22 20 19 19 19 20
42 39 39 38 40 46 38 33 34 36 35 33 35 37 36 35 36 36 36 35 33 30 29 27 26 25 26 25 24 25 24 25 26 26 24 24 23 21 21 19 22 21 21
49 47 44 42 47 44 40 35 39 34 34 34 38 39 39 38 39 39 40 40 39 37 36 34 32 30 32 32 30 29 26 27 28 26 23 22 23 23 24 22 23 23 21
50 49 49 49 50 49 45 45 44 43 39 41 37 38 39 42 44 43 44 45 43 43 42 40 37 37 36 35 36 33 29 32 32 31 26 24 25 27 28 29 25 22 22
52 52 51 51 51 52 51 49 47 48 47 45 46 41 44 45 45 46 49 50 48 47 45 44 43 41 40 40 39 37 35 37 36 34 32 30 30 31 32 31 28 25 24
55 55 55 55 55 55 54 54 54 51 50 49 47 46 46 47 48 51 53 51 51 49 48 48 47 45 43 41 41 41 40 39 38 36 35 34 34 35 34 33 32 27 24
56 56 57 57 58 58 58 58 58 58 56 53 51 49 48 45 50 49 54 53 51 50 48 47 48 47 44 43 43 42 43 44 42 39 36 37 38 38 38 35 33 31 27
59 59 59 60 60 60 60 60 60 60 59 58 58 56 53 48 47 48 51 53 55 59 50 46 44 41 39 41 43 44 45 47 50 46 44 40 40 43 42 41 38 35 32
60 62 62 62 62 63 64 64 63 62 61 61 60 59 58 57 53 49 51 51 53 43 41 44 46 46 44 45 44 47 46 48 48 51 52 50 46 45 43 43 43 41 39
63 63 64 65 65 66 66 68 69 68 67 65 63 63 61 57 58 59 56 54 52 51 52 51 48 48 52 51 49 49 48 48 55 52 53 55 56 53 47 44 44 43 42
65 66 66 67 68 69 70 71 72 72 71 70 71 70 68 63 61 60 61 60 58 57 54 54 50 51 50 50 54 56 51 52 53 54 56 59 67 61 53 52 47 48 47
62 63 64 63 65 67 70 73 75 75 74 75 75 73 71 73 70 66 65 62 62 62 60 57 55 52 50 48 48 53 58 58 58 56 55 53 45 49 47 53 49 53 53
59 63 65 65 65 64 69 72 73 75 76 75 76 76 74 77 77 73 68 69 65 65 63 61 61 59 55 54 53 49 50 51 52 55 57 53 59 57 54 50 54 59 57
70 72 74 73 72 72 71 71 69 69 73 75 77 77 78 80 81 77 70 73 71 69 67 65 63 63 62 58 55 53 55 53 56 52 53 68 49 36 48 53 54 53 56
74 75 76 76 77 77 77 75 74 73 76 78 75 74 77 80 82 81 76 71 75 75 73 70 67 66 62 61 59 56 56 55 44 32 38 48 46 54 52 44 44 45 46
76 77 78 79 79 77 76 77 78 78 79 78 80 81 78 76 78 79 71 71 76 75 74 75 71 69 67 63 62 61 61 63 66 68 62 58 54 48 46 45 44 46 41
76 77 77 79 79 79 80 80 81 82 84 84 85 82 80 78 74 73 75 76 77 76 75 75 74 71 69 66 64 62 63 63 61 59 54 53 55 58 61 55 45 48 41
70 72 76 77 79 78 78 77 75 74 72 73 74 73 73 75 74 75 74 73 73 75 75 75 75 74 70 68 68 63 62 60 60 55 49 51 50 52 50 50 51 48 47
43 43 44 45 47 49 52 53 54 56 58 60 61 62 65 68 69 70 72 71 69 68 70 74 76 75 71 69 67 66 61 59 60 59 57 53 51 51 53 54 55 52 51

GFSGL_500_spd_108.txt.gz
Wind_Speed
20 18 18 17 18 18 16 14 12 11 10 12 10 10 11 12 14 13 12 11 11 12 10 9 9 10 11 12 12 12 12 13 13 11 12 10 11 11 11 12 13 13 11
23 25 25 24 23 22 21 19 17 16 15 15 12 11 10 10 12 13 14 12 12 12 11 11 10 9 11 12 11 12 11 12 13 12 11 11 13 12 13 13 12 12 13
18 30 30 28 26 24 24 23 23 22 20 17 16 15 15 13 14 13 12 12 12 12 11 10 10 10 10 10 11 12 12 12 14 15 15 14 15 14 15 13 13 11 14
13 21 38 33 29 30 27 28 27 25 23 21 20 18 16 16 18 16 15 14 15 14 13 12 13 13 13 13 14 14 14 15 15 16 17 17 16 16 15 14 13 13 15
18 21 26 29 35 35 32 31 31 27 25 24 23 22 20 19 18 15 15 16 16 15 16 16 16 16 16 16 17 17 17 18 18 19 19 19 18 17 15 15 16 17 19
21 17 19 34 33 39 34 32 33 33 31 29 27 26 25 24 20 19 18 18 17 17 16 17 17 18 18 18 18 18 18 18 20 20 20 20 18 17 16 16 17 21 24
27 19 17 18 31 34 34 33 37 34 31 30 29 29 28 27 26 25 24 22 20 19 19 20 20 20 20 20 20 21 20 20 20 20 21 20 20 19 21 22 22 24 26
28 25 18 17 33 33 36 39 37 35 34 33 32 32 32 32 32 31 29 27 25 23 23 23 22 22 22 21 21 22 23 23 23 23 24 25 23 25 23 24 26 26 26
29 29 24 23 24 28 33 31 30 29 28 32 32 34 36 35 34 33 32 30 29 29 29 28 27 26 26 25 22 22 21 23 25 24 24 25 25 26 25 24 25 24 25
32 32 31 29 30 28 26 29 25 22 24 30 27 34 39 42 39 36 35 33 32 33 33 32 33 33 31 32 29 28 26 30 29 27 25 24 26 27 29 27 27 26 24
35 33 35 35 33 32 31 30 30 31 31 34 34 35 35 36 37 36 37 36 37 37 36 36 36 36 36 38 38 36 35 35 35 34 33 31 31 31 33 34 33 31 28
42 38 38 39 38 37 35 34 34 34 36 38 37 40 36 39 41 41 39 40 42 40 40 40 39 38 39 40 40 40 39 38 39 40 38 35 36 35 38 40 40 38 36
46 45 42 41 43 43 43 42 40 39 38 39 38 38 39 38 41 39 41 44 40 45 38 38 40 41 42 43 43 42 44 42 41 40 41 41 41 40 40 41 43 43 42
46 45 43 41 42 44 46 46 46 46 44 42 42 42 41 40 42 42 42 44 45 43 45 47 46 46 45 45 45 46 48 46 45 44 44 45 44 44 43 44 45 46 45
48 48 47 46 44 43 45 46 46 48 48 47 47 46 46 46 47 46 47 49 48 47 46 45 45 45 46 45 47 48 48 47 49 47 47 48 48 48 46 45 45 46 45
49 49 49 49 48 48 47 47 49 50 52 52 51 50 51 50 51 51 52 51 50 49 48 48 46 45 45 45 45 46 46 46 46 47 48 45 43 44 43 43 45 46 45
51 51 51 51 50 51 51 50 50 52 53 55 56 54 53 54 56 56 56 55 54 52 50 51 50 48 48 48 47 46 47 48 45 43 45 51 49 46 43 44 45 47 47
51 51 52 52 52 52 51 51 52 52 52 54 57 59 61 60 58 58 59 59 59 58 57 56 54 54 53 51 49 49 49 48 48 47 44 46 46 46 45 44 46 47 50
53 53 53 53 53 54 53 54 54 54 53 54 56 57 61 63 63 63 63 63 64 64 64 62 61 60 58 57 54 53 52 51 51 51 51 52 52 51 50 49 48 47 46
52 55 56 57 58 58 59 59 59 59 59 58 58 58 61 62 63 65 67 68 68 68 69 69 69 68 67 64 62 59 58 58 57 55 53 52 53 53 51 51 50 49 48
49 49 49 51 54 57 59 62 64 65 65 64 63 61 61 62 63 63 66 69 71 73 73 73 73 73 72 72 70 69 66 65 64 64 62 59 58 56 55 55 53 51 49
58 59 60 60 61 62 63 64 65 67 67 66 64 63 63 63 63 64 69 70 70 70 72 74 75 76 76 75 75 77 75 71 70 70 69 67 65 63 62 60 59 55 51
58 61 62 63 64 65 66 68 70 71 72 72 72 70 69 68 69 70 73 75 74 75 75 74 74 75 76 76 76 76 79 78 76 73 72 72 71 70 69 67 65 63 59
54 55 58 62 65 69 73 74 75 77 80 81 81 81 82 81 81 82 82 79 78 77 77 77 77 78 79 78 77 78 77 79 79 78 76 74 73 74 72 71 70 69 66
52 56 59 62 65 68 72 76 78 79 82 87 88 91 92 94 95 94 92 92 89 87 88 86 85 84 84 82 80 80 77 81 80 79 77 75 74 74 75 73 70 70 69
50 54 59 62 66 71 75 78 80 79 79 82 84 89 93 96 97 101 100 100 99 97 96 95 95 94 90 88 86 83 82 82 82 81 79 77 74 73 74 74 72 69 68

GFSGL_500_spd_111.txt.gz
Wind_Speed
24 22 21 20 18 17 17 16 16 16 15 17 15 14 15 16 15 15 15 15 15 16 14 13 11 10 10 11 13 15 14 13 14 15 16 15 13 14 14 13 14 14 12
29 28 27 25 23 21 21 20 18 18 17 20 18 17 16 16 16 16 16 16 17 15 14 15 14 13 13 13 14 15 15 15 15 16 15 15 13 14 14 13 13 12 12
32 32 30 29 27 25 24 22 21 21 20 19 22 18 19 18 18 18 19 20 18 17 17 17 17 16 17 17 16 16 15 15 16 17 17 15 14 13 15 14 14 12 12
30 41 35 29 28 27 26 26 26 24 23 21 22 21 21 20 19 19 19 20 19 19 19 18 17 17 17 16 17 17 16 16 16 17 18 17 15 14 14 14 14 13 14
19 24 14 14 36 32 31 32 32 30 28 26 24 22 22 20 19 19 19 18 18 18 19 19 18 18 17 17 17 17 15 16 17 18 19 20 18 16 15 14 15 16 17
8 4 6 9 13 41 37 35 35 34 33 33 31 29 27 25 23 21 19 19 19 18 18 18 18 19 19 17 17 17 17 18 16 16 18 18 16 15 15 14 16 19 22
17 10 9 12 7 34 37 39 40 40 39 39 37 35 33 32 30 26 23 22 20 20 20 20 20 21 20 19 18 18 18 19 20 18 19 20 20 17 19 20 21 24 25
22 19 16 14 13 12 30 41 44 48 47 47 46 41 38 36 34 32 30 29 27 26 25 23 22 23 23 22 20 19 21 21 21 21 21 21 21 23 21 22 23 25 27
23 22 22 19 17 15 22 31 40 43 47 39 43 47 47 40 36 34 33 33 32 31 31 29 28 27 26 24 22 22 22 23 22 20 20 22 22 24 24 23 25 23 23
23 22 24 23 21 22 21 21 23 30 47 42 36 42 41 37 39 41 39 38 38 37 36 35 33 32 32 32 30 29 27 28 28 26 25 24 26 27 28 28 28 27 26
26 27 28 27 25 26 26 26 24 24 26 34 36 44 41 39 30 40 40 41 45 43 39 38 37 36 36 38 36 35 34 34 34 34 32 31 31 32 33 34 33 31 30
39 36 35 34 33 33 31 29 29 28 27 28 35 42 31 32 32 30 37 40 45 48 43 42 41 40 39 40 41 40 39 37 38 39 38 37 37 37 37 38 38 39 37
46 44 42 41 38 38 38 36 35 33 33 32 33 34 36 37 37 36 40 37 39 39 40 41 41 42 43 43 43 43 42 41 41 40 40 41 41 41 40 40 39 40 40
48 47 46 44 42 39 39 41 41 39 39 39 38 38 39 40 40 41 41 42 42 43 44 45 43 44 44 44 44 44 44 43 44 45 44 44 45 45 44 44 43 44 43
47 47 48 47 45 41 41 41 42 44 43 43 43 43 44 44 44 44 45 44 44 45 46 42 42 41 47 46 49 53 53 51 49 46 45 45 45 46 46 48 47 45 43
47 46 45 45 45 45 44 43 43 45 47 47 47 47 48 47 48 48 48 48 47 49 48 49 51 51 52 50 50 52 52 52 50 50 46 44 45 46 46 47 46 45 41
48 48 48 49 49 49 48 48 48 48 50 51 51 52 52 52 52 52 53 53 53 53 52 51 52 53 51 53 52 53 53 53 51 50 49 47 47 45 45 47 47 48 48
48 49 50 51 51 51 51 52 52 53 52 54 55 56 57 57 56 56 57 58 57 57 58 57 57 56 55 55 54 54 53 53 53 52 52 51 49 48 48 47 45 44 45
52 52 52 51 52 53 53 53 54 55 55 56 57 59 60 61 62 62 63 63 63 63 63 63 64 62 61 61 61 60 58 57 57 56 54 54 53 52 51 49 48 48 48
42 45 49 53 55 55 56 56 56 56 57 57 58 60 61 62 64 66 67 69 70 70 70 70 69 68 68 67 66 66 66 64 62 62 61 60 59 59 56 55 53 51 50
47 45 44 44 46 48 51 54 58 61 62 63 63 64 65 65 66 66 67 68 71 73 75 76 76 76 75 74 73 73 72 70 70 69 67 67 66 65 64 62 61 59 57
58 57 57 56 55 56 56 56 57 57 59 60 62 63 65 67 68 69 70 71 72 74 75 76 78 79 80 79 79 77 76 75 76 76 75 73 72 71 70 69 68 66 65
52 55 57 58 58 59 60 61 63 64 65 67 68 69 70 71 71 71 70 70 72 75 76 76 76 77 79 81 83 82 82 81 79 79 79 79 79 77 76 75 73 71 70
49 49 51 53 54 56 58 59 61 63 65 67 69 71 73 76 77 79 79 78 77 77 78 78 78 78 78 79 81 81 81 82 83 83 83 81 81 81 80 79 78 76 74
46 45 45 47 51 52 54 58 61 65 68 71 73 76 80 82 83 83 84 84 85 84 84 86 86 86 87 87 86 84 83 82 82 83 83 83 80 84 83 81 79 78 77
42 44 46 47 50 52 52 54 56 61 66 68 70 70 72 75 82 89 90 92 94 95 97 98 98 97 96 97 98 98 97 95 89 86 86 83 81 84 85 84 84 82 79

GFSGL_500_spd_114.txt.gz
Wind_Speed
26 25 25 22 21 21 19 20 17 17 16 17 16 16 16 16 17 17 17 16 15 15 15 15 15 15 15 16 15 15 14 14 13 13 14 14 13 13 13 12 12 9 8
31 29 28 26 25 24 23 22 21 20 19 19 18 18 18 18 18 18 18 18 18 18 18 17 15 15 15 15 15 15 16 15 15 14 14 12 12 12 13 13 10 8 8
33 34 33 31 30 29 28 25 23 22 21 19 19 19 18 18 18 19 18 19 18 18 18 19 17 17 15 14 15 15 15 15 15 14 14 13 12 11 12 12 9 7 9
36 37 36 34 32 30 30 28 27 26 24 22 20 23 21 19 19 21 21 20 20 19 19 19 18 19 17 16 17 16 16 16 16 17 16 14 13 12 10 10 8 8 9
38 40 40 37 35 34 32 31 30 29 28 26 24 26 25 22 23 21 20 19 19 19 19 20 19 19 18 18 19 18 17 17 17 17 17 16 13 10 8 8 8 8 9
35 36 41 41 36 34 38 36 35 32 31 29 27 27 25 25 25 25 25 24 22 21 21 21 20 21 21 19 18 19 17 18 17 15 14 13 12 10 10 11 13 15 15
29 15 33 20 44 23 31 40 40 35 35 32 32 31 30 29 29 28 27 25 24 25 24 23 22 21 21 20 19 18 18 18 18 17 17 16 17 15 15 15 16 18 19
13 11 14 16 14 14 22 38 43 38 41 35 33 33 34 35 34 34 32 30 29 28 26 25 24 23 22 22 21 21 20 20 21 19 20 20 19 19 17 18 19 18 19
16 10 15 16 16 16 17 24 33 36 40 39 44 39 39 40 40 39 39 36 36 33 31 30 28 27 27 24 23 23 22 23 20 19 20 21 20 20 19 18 19 18 19
15 18 16 15 16 16 18 20 20 25 26 25 45 47 45 45 46 49 45 45 41 39 40 36 34 33 32 30 29 27 26 26 24 24 24 24 26 27 28 25 24 24 23
19 19 17 18 17 16 18 21 25 27 25 24 25 33 45 47 50 53 48 50 45 48 45 41 38 36 37 37 37 34 33 32 33 32 31 31 32 32 33 33 32 31 30
26 27 25 24 25 26 25 25 26 27 26 28 28 27 29 36 38 42 48 46 48 48 48 46 47 46 46 45 44 42 40 37 36 37 37 36 37 37 37 37 37 37 35
36 36 36 36 37 36 36 33 33 32 31 33 31 29 31 31 33 40 43 44 42 36 39 44 38 46 51 49 46 45 44 42 39 39 39 40 41 40 41 41 41 40 39
44 44 44 44 43 42 42 42 41 40 38 37 36 37 36 35 35 36 38 40 40 36 33 37 37 41 36 43 44 45 46 49 46 44 44 44 44 44 44 45 46 46 44
51 51 50 50 49 49 48 47 46 44 44 43 42 42 42 42 41 41 40 39 40 42 42 46 45 45 44 47 49 49 49 50 48 47 48 48 48 48 48 47 48 48 46
49 49 50 51 51 51 51 49 49 50 49 48 48 46 46 45 45 45 45 45 46 45 46 47 48 48 48 47 48 50 49 48 49 49 47 47 47 48 49 47 48 49 49
51 51 52 51 51 51 51 52 51 51 51 50 50 50 50 49 49 49 49 49 50 51 51 52 51 52 53 52 53 53 55 56 56 56 55 55 54 52 52 50 48 49 49
45 46 50 47 47 49 51 53 55 56 55 55 56 55 54 55 55 55 54 54 54 56 56 56 56 55 55 56 56 57 57 57 58 58 58 59 57 57 54 54 52 51 50
49 49 52 51 52 52 52 53 55 56 58 58 58 58 58 59 59 60 61 61 61 61 61 61 61 61 61 61 61 61 60 61 61 61 61 60 59 60 58 57 56 55 53
44 44 49 55 56 57 58 58 58 58 59 59 60 60 61 62 63 64 65 65 65 67 67 67 67 67 66 66 66 67 67 67 67 67 67 67 66 66 65 64 62 60 60
50 50 48 48 47 47 50 54 58 61 62 63 64 64 64 64 65 66 67 69 71 71 72 72 73 74 74 74 73 73 73 73 73 73 73 73 72 72 72 71 69 68 67
55 56 56 55 55 53 51 50 50 52 53 54 57 59 62 64 67 70 71 73 74 75 76 75 76 77 78 79 80 81 80 79 79 79 79 79 78 78 78 77 76 76 74
54 56 56 57 58 57 56 55 55 56 58 60 62 64 65 67 68 70 71 72 73 73 75 77 79 80 81 81 82 84 85 85 86 86 86 85 84 83 82 82 82 82 81
46 46 46 47 49 51 51 52 53 55 57 58 59 60 62 65 68 70 72 75 77 79 80 80 80 81 81 80 81 81 84 87 91 91 92 92 91 90 89 88 87 86 86
44 44 44 45 47 48 49 50 52 55 57 58 59 62 64 66 70 72 76 78 81 83 84 86 87 87 87 87 86 86 85 86 87 87 90 93 94 93 93 94 92 91 89
43 44 44 44 43 41 41 43 46 50 52 54 55 58 60 65 69 72 76 80 84 85 87 85 86 88 89 89 92 93 93 92 92 92 92 92 91 90 92 94 96 95 94

GFSGL_500_spd_117.txt.gz
Wind_Speed
26 25 24 22 22 22 22 21 21 19 18 17 16 15 15 15 15 15 16 16 15 14 14 13 13 14 15 16 17 16 14 13 12 10 9 8 8 8 9 9 8 5 5
29 28 27 26 25 26 25 24 23 19 20 19 18 16 15 16 17 17 17 17 16 16 15 14 13 14 15 15 16 15 15 15 13 12 10 8 7 8 11 10 7 3 3
34 32 31 30 29 29 27 27 24 23 21 20 18 17 17 17 17 18 18 18 18 18 17 16 15 15 14 13 14 15 14 13 13 12 12 11 8 8 9 10 9 6 4
37 34 35 34 32 32 31 28 27 25 24 22 21 21 21 21 19 18 18 19 19 19 18 18 17 18 17 15 14 14 14 13 14 15 14 12 10 8 8 9 6 7 5
39 40 39 39 36 34 33 32 31 29 27 25 24 23 23 24 23 21 21 20 21 21 21 22 21 20 19 17 17 16 15 14 14 15 16 14 12 8 7 8 7 8 6
45 43 44 40 41 39 37 34 34 33 33 32 29 27 25 26 26 23 23 23 22 22 22 23 23 22 20 20 19 17 18 17 17 16 17 15 10 7 8 10 11 12 14
48 46 46 41 43 42 38 36 35 36 37 36 35 32 29 28 29 28 26 25 25 25 25 24 24 23 22 21 21 20 19 19 18 15 16 16 16 12 12 13 13 13 13
42 51 47 43 44 46 39 31 32 38 43 40 39 37 33 33 32 32 30 28 28 28 28 28 27 26 24 24 23 22 21 21 20 18 19 20 18 17 15 14 13 11 11
16 39 49 31 28 36 50 44 36 41 47 46 41 39 37 34 33 35 37 35 35 33 33 31 30 29 27 27 26 25 24 25 23 22 21 21 21 20 18 16 16 14 16
9 17 20 16 20 22 26 30 28 28 31 39 48 41 42 38 33 36 40 39 39 39 37 36 37 34 33 31 30 29 28 27 26 25 25 25 25 26 25 25 24 22 22
19 10 14 19 18 23 24 24 26 25 22 24 31 43 31 35 49 49 46 44 46 45 46 44 45 42 39 39 38 36 34 31 33 33 33 32 32 31 32 32 31 31 29
23 20 18 17 23 24 18 18 18 20 22 24 26 28 30 29 29 33 41 54 47 46 52 54 49 49 51 46 46 45 42 38 39 40 39 38 38 38 37 38 38 36 35
24 22 21 25 24 25 25 26 26 27 27 28 29 30 30 30 33 34 35 33 43 53 58 51 51 50 52 54 52 54 53 52 50 50 46 45 44 43 43 43 42 41 39
33 33 32 30 32 33 33 35 34 34 35 35 35 36 35 35 36 37 38 38 34 35 45 46 44 50 55 56 53 49 51 53 54 52 52 49 49 48 47 47 47 47 44
40 41 40 40 42 41 41 42 43 44 43 43 43 42 43 42 43 42 42 41 40 40 43 43 41 44 45 47 40 45 52 50 49 49 50 52 50 49 51 51 49 49 48
44 45 47 48 49 50 51 51 50 49 49 49 49 49 49 48 47 46 46 47 47 47 48 47 48 46 46 49 53 54 52 51 52 51 51 53 54 53 53 53 51 52 52
50 49 51 52 53 55 55 54 53 54 54 53 52 52 53 52 52 52 52 52 52 52 53 52 51 53 53 52 53 52 53 56 58 57 55 54 56 56 54 55 54 54 52
55 55 56 56 55 54 55 54 52 53 53 53 53 53 53 54 55 55 55 55 55 55 56 56 57 57 56 56 56 56 57 58 57 58 58 58 59 59 59 61 60 60 60
43 41 45 46 48 49 52 54 54 55 57 57 57 58 58 57 58 59 60 60 61 61 61 61 61 61 62 62 62 63 61 61 61 61 62 62 63 63 64 64 62 61 60
45 47 49 50 52 53 54 54 55 56 57 56 56 57 58 59 59 60 61 62 63 64 65 65 67 68 67 67 68 69 69 69 69 69 69 69 68 69 69 68 68 68 67
48 47 48 48 49 50 50 52 56 58 64 65 65 64 64 64 65 66 67 68 69 70 70 70 70 71 72 73 72 73 73 74 75 76 77 76 76 75 74 75 74 75 75
54 54 55 55 55 54 53 54 54 54 54 55 56 56 59 61 64 66 69 72 74 76 77 78 79 79 79 79 80 80 80 80 82 82 82 82 82 82 82 82 82 81 81
53 55 56 55 55 56 56 58 59 60 61 61 62 63 65 66 67 68 69 70 70 71 72 74 75 77 79 83 87 89 88 88 88 89 89 89 90 90 91 91 90 89 88
52 52 52 50 47 47 49 50 52 52 53 55 56 58 61 64 66 68 70 72 73 73 75 76 77 79 80 81 83 85 87 87 87 88 91 94 95 96 96 96 97 97 96
50 48 46 46 48 47 47 48 49 49 49 49 50 52 54 57 60 60 61 62 64 69 74 79 82 84 87 88 90 90 90 88 90 91 91 91 90 90 90 92 96 100 102
53 52 52 52 49 46 45 44 44 46 47 46 46 46 46 48 51 56 60 64 67 71 74 75 78 80 81 82 84 85 86 88 93 96 94 94 95 95 97 97 96 96 95

GFSGL_500_spd_120.txt.gz
Wind_Speed
27 25 24 22 21 19 19 18 17 17 17 16 16 16 14 13 14 15 14 14 13 13 12 11 11 12 12 12 11 11 10 11 11 11 10 8 7 7 9 9 8 6 5
29 28 27 25 23 23 22 20 19 18 18 17 17 16 15 15 15 14 14 15 15 15 14 12 12 12 12 12 12 12 11 12 11 11 10 8 6 7 9 10 8 5 6
32 32 30 29 28 26 25 23 22 20 19 17 18 19 17 16 16 16 17 16 15 16 16 15 14 14 13 12 13 13 13 12 12 12 10 8 7 7 10 11 9 7 6
39 36 34 33 31 30 28 27 23 24 22 21 20 19 19 18 18 18 18 18 19 18 18 18 17 17 17 15 13 14 14 13 13 13 12 10 9 10 10 12 9 9 8
42 43 39 37 35 34 34 31 29 27 26 25 24 23 22 21 20 21 21 21 21 20 20 20 19 19 18 17 16 15 15 15 14 14 14 14 12 12 11 11 10 10 9
42 48 47 43 40 38 37 35 33 31 30 29 27 26 25 24 24 24 24 24 23 21 21 21 20 20 19 19 19 20 18 17 17 16 17 16 16 11 12 13 13 14 16
39 44 50 46 45 43 42 40 37 36 36 34 33 32 30 27 27 26 27 27 25 25 25 23 23 22 21 21 21 22 22 21 20 18 18 17 16 15 15 17 17 16 16
32 41 53 47 41 47 46 42 45 41 39 39 36 36 35 33 32 31 30 30 29 29 29 28 26 27 24 26 25 24 24 23 23 22 22 23 20 20 19 19 19 17 16
34 40 47 54 47 47 47 45 50 46 43 43 41 40 37 36 35 35 37 34 32 33 31 32 31 29 28 29 28 28 28 27 25 27 26 27 26 25 23 20 20 19 19
22 29 30 47 54 48 53 41 36 46 47 43 37 39 39 42 41 40 41 38 37 38 38 38 37 35 33 34 33 33 31 30 30 29 29 30 29 29 27 25 25 24 24
23 11 15 19 26 45 38 40 43 47 45 35 30 29 33 41 44 43 45 47 46 41 40 39 41 41 39 39 37 39 39 37 36 35 36 35 35 34 33 32 32 32 31
28 19 21 21 31 22 22 22 25 23 26 30 26 22 21 21 33 44 36 35 43 47 51 47 46 46 47 46 44 46 46 48 43 41 41 41 43 42 40 40 40 40 38
31 25 32 23 23 24 19 22 28 26 26 26 26 23 24 25 25 28 31 34 36 35 37 33 39 48 57 48 48 46 47 50 53 55 49 47 47 48 49 49 47 47 47
30 29 22 31 34 34 34 34 31 30 29 30 27 26 29 29 31 33 35 36 36 37 37 38 39 36 38 44 51 52 48 50 55 58 54 53 56 57 55 55 57 55 51
33 32 33 29 29 31 38 41 41 41 37 34 36 35 36 37 38 39 40 40 40 41 43 44 44 43 41 41 45 47 48 49 54 54 56 55 53 51 50 52 57 57 58
42 41 45 43 39 36 39 39 38 38 40 41 41 44 46 47 48 48 48 47 46 46 46 48 48 48 48 47 49 48 48 47 44 51 56 56 51 52 52 52 52 54 56
49 49 50 49 46 45 44 45 47 48 50 51 51 52 53 53 53 53 52 52 52 53 53 53 54 53 54 53 54 55 53 53 53 53 53 54 57 57 60 59 59 58 61
53 49 50 50 49 50 53 53 53 56 55 55 58 58 55 54 54 55 57 58 56 54 55 55 56 57 58 59 60 59 58 60 61 61 61 62 63 62 63 64 63 65 64
55 54 56 59 60 59 58 57 56 56 55 55 56 56 55 54 54 56 57 58 60 60 61 61 61 61 62 62 64 64 65 66 66 67 68 68 67 68 68 68 67 67 68
59 61 63 61 62 61 60 59 58 57 56 53 53 53 54 55 57 58 59 59 60 61 61 62 62 63 64 66 67 70 70 71 72 73 73 74 74 74 73 73 72 74 74
41 42 43 46 42 43 43 46 49 50 52 54 55 56 58 59 60 60 61 62 64 65 66 67 68 69 70 72 72 71 72 73 74 76 76 79 81 82 83 82 82 82 81
45 48 50 50 50 50 51 52 53 55 56 57 59 60 61 63 64 66 67 68 70 70 70 71 73 74 76 77 80 81 82 82 83 83 83 84 84 85 85 85 86 87 87
45 47 48 50 51 52 55 57 58 60 59 60 60 61 61 61 62 63 65 67 68 70 71 73 75 76 78 79 80 81 82 84 86 89 91 92 92 92 94 95 96 95 96
48 48 48 48 49 50 50 50 50 51 53 56 59 61 63 65 66 68 70 71 72 73 74 76 77 79 80 82 84 86 87 88 89 89 89 90 91 92 91 91 92 93 94
50 50 50 50 49 49 49 50 49 49 48 49 50 51 52 53 55 57 59 61 63 65 68 70 71 73 76 79 84 87 90 91 93 95 96 96 97 98 99 99 99 99 99
49 45 50 49 49 49 50 50 49 48 49 49 50 51 53 53 53 55 56 55 53 54 56 61 64 68 72 75 78 79 81 81 79 79 80 81 80 81 82 83 83 85 85

GFSGL_500_spd_123.txt.gz
Wind_Speed
20 20 20 19 19 17 16 17 17 16 16 16 15 13 12 11 11 12 14 12 11 10 9 9 9 9 9 10 10 10 10 10 10 11 9 8 9 9 11 10 8 4 7
23 23 23 22 22 21 19 17 16 16 17 18 16 15 15 14 13 12 12 13 13 13 12 12 10 10 11 11 12 12 11 10 11 11 11 6 7 10 11 11 10 6 6
26 26 26 25 25 24 22 22 20 19 18 18 19 18 16 16 15 15 14 14 15 15 15 14 13 12 12 11 14 14 14 13 12 11 11 10 9 9 12 14 12 9 7
29 29 28 29 29 29 27 26 25 24 23 20 18 18 18 17 16 17 16 17 16 16 17 17 16 15 15 15 14 14 14 15 14 13 13 13 12 12 14 14 13 9 8
29 32 32 32 32 31 31 30 28 29 28 27 22 21 19 19 18 19 18 18 18 18 18 18 17 17 17 16 15 16 16 16 16 16 16 15 15 16 16 16 13 10 9
32 29 34 39 36 37 35 35 34 32 31 27 26 27 24 21 22 20 20 20 21 20 19 20 20 20 18 19 19 19 19 18 19 19 19 19 18 18 16 14 14 16 16
26 29 37 41 42 44 42 40 37 38 36 34 30 30 28 23 26 25 24 24 24 23 22 21 22 23 21 23 22 22 21 21 21 22 22 22 20 18 17 18 19 18 19
26 29 33 35 42 47 48 47 44 44 42 39 38 35 32 33 31 31 29 29 27 26 26 27 25 26 26 27 26 25 25 25 24 24 24 25 23 23 22 21 22 21 22
28 29 35 31 34 47 50 50 53 49 48 45 42 39 38 38 36 35 33 33 34 32 31 30 29 28 29 31 30 29 29 29 27 28 28 28 28 28 27 27 27 25 24
30 30 29 37 40 44 47 55 56 51 53 48 45 45 43 44 41 40 35 34 37 36 36 37 34 35 32 32 33 34 34 33 32 31 32 32 33 32 32 30 28 29 29
30 31 29 28 34 35 40 52 47 49 49 47 45 48 51 46 44 39 40 43 43 42 39 40 41 38 41 41 40 40 40 38 37 38 37 37 37 36 38 34 35 36 34
31 32 29 27 25 30 38 45 48 53 50 52 43 43 44 46 45 41 40 46 47 48 45 41 45 46 47 46 46 45 44 42 44 43 43 45 44 44 44 43 41 40 42
35 33 30 27 27 30 21 22 31 47 39 29 35 38 39 36 30 32 29 28 37 41 39 36 33 37 43 41 45 54 54 55 55 52 52 48 45 49 50 50 50 49 48
38 36 35 33 31 39 30 27 30 21 25 26 21 23 28 31 32 30 29 29 29 28 30 31 34 35 36 38 36 37 37 40 39 45 51 54 50 49 51 53 52 53 55
44 42 38 35 33 36 34 34 31 28 27 30 28 29 29 29 32 30 30 32 34 35 35 36 37 38 38 39 40 41 43 42 41 40 43 46 48 49 52 54 54 54 54
45 43 38 37 32 27 36 38 37 37 36 37 39 42 45 42 40 41 43 43 40 40 40 41 44 45 46 45 46 47 48 48 48 48 48 49 49 51 50 50 52 54 56
45 43 44 39 38 41 38 43 41 36 38 37 47 46 46 47 43 46 47 48 50 54 55 53 56 55 55 57 56 55 55 55 56 56 54 54 54 55 56 55 56 57 56
50 50 54 54 53 52 51 49 47 48 46 47 49 50 49 49 53 53 55 55 57 57 57 59 58 58 59 59 59 59 60 62 60 62 62 63 64 62 61 62 62 63 65
55 54 57 56 59 58 55 52 52 52 52 52 53 57 59 59 57 60 62 60 58 58 58 58 58 57 57 59 61 61 60 61 62 64 65 66 66 67 68 69 71 72 72
37 46 50 57 64 68 66 58 57 55 55 55 57 60 61 60 59 59 59 58 57 57 56 57 58 58 59 60 61 61 61 61 61 60 61 62 64 66 68 71 74 76 79
43 48 36 33 37 36 39 49 53 54 57 59 59 55 54 56 52 50 52 53 54 55 58 60 61 62 63 64 65 66 67 68 70 72 73 73 74 76 79 80 81 82 82
37 38 43 44 42 41 43 43 40 42 49 50 49 46 49 50 51 52 54 55 56 58 60 62 64 65 67 69 71 73 75 77 79 81 83 84 85 88 91 92 93 95 95
40 40 41 40 41 43 45 47 48 50 50 52 54 53 55 56 57 58 59 60 61 62 64 67 68 70 72 73 75 76 78 81 83 85 88 91 95 97 97 97 96 95 96
43 45 44 46 47 48 49 50 51 51 53 53 55 56 57 58 59 61 62 63 65 67 68 70 71 72 74 75 76 78 80 83 86 89 92 94 95 96 98 100 101 100 101
50 51 49 49 47 48 51 51 52 53 54 56 58 58 59 59 60 61 63 63 62 63 64 66 67 69 70 72 74 76 78 80 85 88 91 93 95 98 99 99 100 100 100
52 52 50 51 50 53 52 51 50 52 52 51 52 53 53 54 55 55 56 56 58 60 62 64 64 65 64 60 60 63 69 75 77 78 79 78 76 74 73 72 72 72 73

GFSGL_500_spd_126.txt.gz
Wind_Speed
17 17 16 15 15 14 13 14 15 16 16 14 14 13 13 12 12 11 10 9 8 7 5 6 7 7 7 7 8 10 11 10 10 12 10 9 9 10 10 9 7 9 8
20 19 19 18 17 16 15 14 15 15 16 16 16 15 16 15 14 12 11 11 11 10 9 8 8 9 10 9 10 9 10 10 9 11 10 9 8 11 13 12 12 6 8
25 22 22 22 20 19 18 16 17 17 17 17 17 16 16 17 16 15 14 13 12 11 11 10 10 11 13 13 13 11 11 11 10 10 11 11 10 12 12 12 13 11 7
26 26 23 24 24 23 22 21 19 19 19 19 18 17 18 18 16 16 16 16 16 15 13 13 13 13 14 15 16 15 14 12 12 12 12 13 11 11 13 14 14 12 10
27 23 28 28 27 27 27 26 24 23 23 22 22 21 20 18 19 20 19 17 16 17 17 17 15 16 16 16 17 17 17 16 15 15 15 15 14 13 14 15 15 12 11
31 27 24 29 29 31 30 30 30 29 28 27 25 27 28 22 23 22 20 19 19 19 19 21 20 18 17 20 19 19 19 19 19 17 18 17 17 18 17 16 16 14 16
24 26 27 25 28 30 32 34 33 33 32 32 32 30 23 22 23 24 24 23 22 20 22 23 23 20 22 20 20 21 21 21 21 21 21 21 21 20 20 19 17 16 18
19 18 23 24 25 32 36 36 36 37 37 36 35 31 29 30 30 30 29 28 26 23 25 25 24 24 23 24 24 24 25 25 23 25 25 25 24 23 23 23 22 22 22
23 24 23 24 24 26 26 31 38 42 43 42 42 38 38 37 37 38 35 32 33 31 31 27 27 28 29 29 28 28 29 27 26 28 29 30 30 28 27 25 26 27 27
26 25 24 25 26 28 33 37 42 45 43 42 46 44 42 41 41 40 40 38 39 37 36 35 34 33 31 30 31 33 33 33 32 33 34 34 35 35 31 30 31 31 30
32 32 31 30 30 30 26 28 35 35 39 45 45 50 50 50 46 46 43 44 43 43 39 36 40 40 39 40 39 39 39 41 41 40 39 41 41 39 35 39 38 37 38
39 37 37 33 31 31 28 25 29 37 43 45 49 48 45 42 47 50 45 47 51 46 43 44 47 46 45 45 45 42 43 45 45 43 44 44 45 44 46 43 44 46 46
43 42 40 41 39 37 32 29 30 36 41 44 43 51 56 41 51 46 46 41 39 50 50 46 41 46 46 46 46 46 46 46 45 43 43 47 50 50 53 57 52 51 49
47 49 48 46 42 37 33 29 31 29 29 35 43 41 38 32 41 45 40 37 37 29 27 28 30 31 35 36 36 36 35 36 36 38 39 39 38 39 39 44 51 49 48
46 44 46 43 45 42 38 36 35 38 37 27 29 25 40 38 36 33 36 30 31 28 28 28 28 30 33 34 35 35 36 35 37 38 38 39 42 42 42 42 44 45 46
47 46 46 48 47 47 44 38 37 37 39 40 41 33 31 27 27 29 31 35 37 37 33 36 39 39 38 35 37 40 41 40 41 44 46 48 49 50 49 50 51 52 53
45 47 45 40 35 40 37 40 36 33 35 37 34 34 33 36 41 39 41 43 43 43 46 46 47 51 53 50 50 47 48 53 53 56 57 57 57 57 58 57 57 59 58
47 53 52 51 49 46 41 43 42 40 37 37 40 42 37 38 43 43 44 48 48 53 56 47 50 53 53 54 54 56 55 56 59 60 61 61 60 61 63 64 63 62 63
53 54 53 51 56 52 46 45 51 47 47 48 49 50 49 46 46 49 50 52 52 52 52 56 57 58 60 61 63 63 60 59 59 59 57 58 58 59 60 60 59 60 61
43 36 47 63 56 52 54 59 58 55 55 57 58 58 55 54 53 53 55 55 55 57 60 61 62 62 62 62 60 60 60 58 57 59 59 60 61 62 63 63 64 65 65
39 46 48 41 57 46 39 35 52 45 50 59 66 66 63 58 56 55 56 56 57 58 59 60 59 58 57 57 57 59 61 60 62 64 66 66 68 70 72 73 74 75 77
34 33 34 36 43 44 44 46 48 41 34 34 37 42 46 48 50 48 48 50 49 50 51 53 54 54 55 57 58 60 61 62 64 66 68 70 72 73 76 78 81 84 86
39 38 38 39 38 38 39 40 40 44 45 43 43 40 42 42 42 45 47 49 50 52 53 55 57 59 59 60 61 63 65 67 69 71 73 75 78 81 84 86 89 93 95
38 38 38 40 41 41 43 44 45 44 44 45 46 47 47 48 48 49 50 51 52 54 55 58 59 61 63 66 67 69 70 70 70 71 74 76 78 81 83 85 86 88 90
40 41 43 45 44 46 46 47 47 49 50 52 52 52 51 52 53 53 53 54 56 58 60 60 63 64 65 65 65 67 67 69 71 72 74 76 77 79 81 82 83 83 86
44 44 45 46 47 50 50 50 50 50 50 49 52 52 51 51 53 55 55 55 57 57 58 58 59 60 61 62 62 62 62 64 65 68 70 73 75 76 76 70 66 64 63